<?xml version="1.0" encoding="UTF-8" standalone="no" ?>
<gpx xmlns="http://www.topografix.com/GPX/1/1" xmlns:xsi="http://www.w3.org/2001/XMLSchema-instance" xsi:schemaLocation="http://www.topografix.com/GPX/1/1 http://www.topografix.com/GPX/1/1/gpx.xsd" version="1.1" creator="VisuGPX - https://www.visugpx.com">
  <metadata>
    <name>Rando Oratoire/Clos Ginoux/ Laupie /Clapouse </name>
    <desc><![CDATA[Très beau circuit en montagnes russes aériennes . Le départ se fait du Gué à 3km d\'Esparron ( le pont )  sur la piste du lac (vaste esplanade tout près avant le gué) le retour par le magnifique lac des Monges mais on peut raccourcir en le shuntant 
Montée de la piste  de Garnaysse à crête de la colle par un sentier étroit envahi de végétation et peu balisé GPS recommandé
Descente de la Laupie à Clapouse péniblement caillouteuse avec gravette instable roulant sous le  pied 

]]></desc>
  </metadata>
  <trk>
    <name><![CDATA[N°21Esparron Le Gué/Garnaysse/Oratoire/Clot Ginoux/Laupie/Clapouse/Lac]]></name>
    <trkseg>
      <trkpt lat="44.29984" lon="6.17167">
        <ele>1372.4194336</ele>
        <time>2013-07-30T06:52:29Z</time>
      </trkpt>
      <trkpt lat="44.29976" lon="6.1718">
        <ele>1337.8117676</ele>
        <time>2013-07-30T06:53:23Z</time>
      </trkpt>
      <trkpt lat="44.29975" lon="6.17182">
        <ele>1337.3310547</ele>
        <time>2013-07-30T06:53:39Z</time>
      </trkpt>
      <trkpt lat="44.29978" lon="6.17188">
        <ele>1336.8503418</ele>
        <time>2013-07-30T06:53:44Z</time>
      </trkpt>
      <trkpt lat="44.29978" lon="6.17195">
        <ele>1337.3310547</ele>
        <time>2013-07-30T06:53:49Z</time>
      </trkpt>
      <trkpt lat="44.29973" lon="6.17225">
        <ele>1335.4084473</ele>
        <time>2013-07-30T06:54:10Z</time>
      </trkpt>
      <trkpt lat="44.29973" lon="6.17239">
        <ele>1335.4084473</ele>
        <time>2013-07-30T06:54:20Z</time>
      </trkpt>
      <trkpt lat="44.29969" lon="6.17258">
        <ele>1334.4472656</ele>
        <time>2013-07-30T06:54:34Z</time>
      </trkpt>
      <trkpt lat="44.29968" lon="6.1726">
        <ele>1333.9665527</ele>
        <time>2013-07-30T06:54:37Z</time>
      </trkpt>
      <trkpt lat="44.29962" lon="6.17277">
        <ele>1332.0439453</ele>
        <time>2013-07-30T06:54:54Z</time>
      </trkpt>
      <trkpt lat="44.2995" lon="6.17291">
        <ele>1330.6020508</ele>
        <time>2013-07-30T06:55:10Z</time>
      </trkpt>
      <trkpt lat="44.29915" lon="6.17308">
        <ele>1328.1987305</ele>
        <time>2013-07-30T06:55:38Z</time>
      </trkpt>
      <trkpt lat="44.2991" lon="6.17341">
        <ele>1325.3146973</ele>
        <time>2013-07-30T06:55:58Z</time>
      </trkpt>
      <trkpt lat="44.29894" lon="6.17358">
        <ele>1324.8342285</ele>
        <time>2013-07-30T06:56:25Z</time>
      </trkpt>
      <trkpt lat="44.29873" lon="6.17371">
        <ele>1324.8342285</ele>
        <time>2013-07-30T06:56:45Z</time>
      </trkpt>
      <trkpt lat="44.29856" lon="6.17397">
        <ele>1326.276123</ele>
        <time>2013-07-30T06:57:04Z</time>
      </trkpt>
      <trkpt lat="44.29842" lon="6.17411">
        <ele>1327.2375488</ele>
        <time>2013-07-30T06:57:19Z</time>
      </trkpt>
      <trkpt lat="44.29835" lon="6.17425">
        <ele>1327.7180176</ele>
        <time>2013-07-30T06:57:29Z</time>
      </trkpt>
      <trkpt lat="44.29842" lon="6.17439">
        <ele>1332.0439453</ele>
        <time>2013-07-30T06:57:36Z</time>
      </trkpt>
      <trkpt lat="44.29846" lon="6.1748">
        <ele>1343.579834</ele>
        <time>2013-07-30T06:57:59Z</time>
      </trkpt>
      <trkpt lat="44.29845" lon="6.17484">
        <ele>1343.579834</ele>
        <time>2013-07-30T06:58:04Z</time>
      </trkpt>
      <trkpt lat="44.29845" lon="6.17487">
        <ele>1344.0605469</ele>
        <time>2013-07-30T06:58:06Z</time>
      </trkpt>
      <trkpt lat="44.29841" lon="6.17508">
        <ele>1345.0217285</ele>
        <time>2013-07-30T06:58:24Z</time>
      </trkpt>
      <trkpt lat="44.29825" lon="6.17524">
        <ele>1344.5410156</ele>
        <time>2013-07-30T06:58:39Z</time>
      </trkpt>
      <trkpt lat="44.29824" lon="6.17531">
        <ele>1344.5410156</ele>
        <time>2013-07-30T06:58:44Z</time>
      </trkpt>
      <trkpt lat="44.29818" lon="6.17541">
        <ele>1340.6958008</ele>
        <time>2013-07-30T06:58:56Z</time>
      </trkpt>
      <trkpt lat="44.29813" lon="6.17543">
        <ele>1340.215332</ele>
        <time>2013-07-30T06:59:01Z</time>
      </trkpt>
      <trkpt lat="44.29806" lon="6.17547">
        <ele>1339.2536621</ele>
        <time>2013-07-30T06:59:05Z</time>
      </trkpt>
      <trkpt lat="44.29789" lon="6.17552">
        <ele>1337.3310547</ele>
        <time>2013-07-30T06:59:14Z</time>
      </trkpt>
      <trkpt lat="44.29794" lon="6.17575">
        <ele>1340.215332</ele>
        <time>2013-07-30T06:59:26Z</time>
      </trkpt>
      <trkpt lat="44.2983" lon="6.17622">
        <ele>1352.2314453</ele>
        <time>2013-07-30T06:59:48Z</time>
      </trkpt>
      <trkpt lat="44.29834" lon="6.17633">
        <ele>1353.673584</ele>
        <time>2013-07-30T06:59:54Z</time>
      </trkpt>
      <trkpt lat="44.29831" lon="6.17667">
        <ele>1352.2314453</ele>
        <time>2013-07-30T07:00:15Z</time>
      </trkpt>
      <trkpt lat="44.2982" lon="6.17691">
        <ele>1344.5410156</ele>
        <time>2013-07-30T07:00:36Z</time>
      </trkpt>
      <trkpt lat="44.29813" lon="6.17716">
        <ele>1341.1765137</ele>
        <time>2013-07-30T07:00:57Z</time>
      </trkpt>
      <trkpt lat="44.29809" lon="6.17735">
        <ele>1339.734375</ele>
        <time>2013-07-30T07:01:10Z</time>
      </trkpt>
      <trkpt lat="44.29812" lon="6.17739">
        <ele>1339.2536621</ele>
        <time>2013-07-30T07:01:14Z</time>
      </trkpt>
      <trkpt lat="44.29826" lon="6.17781">
        <ele>1348.3862305</ele>
        <time>2013-07-30T07:01:33Z</time>
      </trkpt>
      <trkpt lat="44.29835" lon="6.17808">
        <ele>1351.2702637</ele>
        <time>2013-07-30T07:01:52Z</time>
      </trkpt>
      <trkpt lat="44.29845" lon="6.17842">
        <ele>1355.1154785</ele>
        <time>2013-07-30T07:02:11Z</time>
      </trkpt>
      <trkpt lat="44.29845" lon="6.17871">
        <ele>1355.1154785</ele>
        <time>2013-07-30T07:02:28Z</time>
      </trkpt>
      <trkpt lat="44.29848" lon="6.17891">
        <ele>1356.0769043</ele>
        <time>2013-07-30T07:02:40Z</time>
      </trkpt>
      <trkpt lat="44.29859" lon="6.17919">
        <ele>1357.0383301</ele>
        <time>2013-07-30T07:03:02Z</time>
      </trkpt>
      <trkpt lat="44.29866" lon="6.17937">
        <ele>1357.9997559</ele>
        <time>2013-07-30T07:03:23Z</time>
      </trkpt>
      <trkpt lat="44.29868" lon="6.17942">
        <ele>1358.4802246</ele>
        <time>2013-07-30T07:07:32Z</time>
      </trkpt>
      <trkpt lat="44.29872" lon="6.17948">
        <ele>1358.9609375</ele>
        <time>2013-07-30T07:07:38Z</time>
      </trkpt>
      <trkpt lat="44.29884" lon="6.17965">
        <ele>1358.9609375</ele>
        <time>2013-07-30T07:07:52Z</time>
      </trkpt>
      <trkpt lat="44.29899" lon="6.17985">
        <ele>1360.402832</ele>
        <time>2013-07-30T07:08:10Z</time>
      </trkpt>
      <trkpt lat="44.29903" lon="6.17991">
        <ele>1360.8835449</ele>
        <time>2013-07-30T07:08:16Z</time>
      </trkpt>
      <trkpt lat="44.29915" lon="6.18007">
        <ele>1364.2480469</ele>
        <time>2013-07-30T07:08:32Z</time>
      </trkpt>
      <trkpt lat="44.29932" lon="6.18013">
        <ele>1366.1706543</ele>
        <time>2013-07-30T07:08:48Z</time>
      </trkpt>
      <trkpt lat="44.29941" lon="6.18016">
        <ele>1366.1706543</ele>
        <time>2013-07-30T07:08:57Z</time>
      </trkpt>
      <trkpt lat="44.29941" lon="6.1802">
        <ele>1364.7287598</ele>
        <time>2013-07-30T07:09:15Z</time>
      </trkpt>
      <trkpt lat="44.2994" lon="6.1802">
        <ele>1365.2094727</ele>
        <time>2013-07-30T07:09:24Z</time>
      </trkpt>
      <trkpt lat="44.29958" lon="6.18019">
        <ele>1368.0932617</ele>
        <time>2013-07-30T07:09:40Z</time>
      </trkpt>
      <trkpt lat="44.2998" lon="6.18023">
        <ele>1372.4194336</ele>
        <time>2013-07-30T07:10:02Z</time>
      </trkpt>
      <trkpt lat="44.29997" lon="6.18031">
        <ele>1374.8227539</ele>
        <time>2013-07-30T07:10:21Z</time>
      </trkpt>
      <trkpt lat="44.30013" lon="6.18045">
        <ele>1375.3032227</ele>
        <time>2013-07-30T07:10:42Z</time>
      </trkpt>
      <trkpt lat="44.30025" lon="6.18061">
        <ele>1361.8449707</ele>
        <time>2013-07-30T07:10:59Z</time>
      </trkpt>
      <trkpt lat="44.30026" lon="6.18061">
        <ele>1361.8449707</ele>
        <time>2013-07-30T07:11:00Z</time>
      </trkpt>
      <trkpt lat="44.30046" lon="6.18082">
        <ele>1363.767334</ele>
        <time>2013-07-30T07:11:25Z</time>
      </trkpt>
      <trkpt lat="44.3006" lon="6.18095">
        <ele>1366.1706543</ele>
        <time>2013-07-30T07:11:45Z</time>
      </trkpt>
      <trkpt lat="44.30065" lon="6.18099">
        <ele>1366.6513672</ele>
        <time>2013-07-30T07:11:51Z</time>
      </trkpt>
      <trkpt lat="44.30067" lon="6.181">
        <ele>1367.6125488</ele>
        <time>2013-07-30T07:11:53Z</time>
      </trkpt>
      <trkpt lat="44.3007" lon="6.18102">
        <ele>1366.1706543</ele>
        <time>2013-07-30T07:11:56Z</time>
      </trkpt>
      <trkpt lat="44.30077" lon="6.18105">
        <ele>1366.1706543</ele>
        <time>2013-07-30T07:12:02Z</time>
      </trkpt>
      <trkpt lat="44.3008" lon="6.18105">
        <ele>1367.1320801</ele>
        <time>2013-07-30T07:12:05Z</time>
      </trkpt>
      <trkpt lat="44.30084" lon="6.18105">
        <ele>1369.5354004</ele>
        <time>2013-07-30T07:12:09Z</time>
      </trkpt>
      <trkpt lat="44.30103" lon="6.18102">
        <ele>1370.496582</ele>
        <time>2013-07-30T07:12:29Z</time>
      </trkpt>
      <trkpt lat="44.30117" lon="6.18102">
        <ele>1371.4577637</ele>
        <time>2013-07-30T07:12:44Z</time>
      </trkpt>
      <trkpt lat="44.30133" lon="6.18106">
        <ele>1372.4194336</ele>
        <time>2013-07-30T07:13:02Z</time>
      </trkpt>
      <trkpt lat="44.30136" lon="6.18105">
        <ele>1373.8613281</ele>
        <time>2013-07-30T07:13:04Z</time>
      </trkpt>
      <trkpt lat="44.30152" lon="6.18123">
        <ele>1373.8613281</ele>
        <time>2013-07-30T07:13:25Z</time>
      </trkpt>
      <trkpt lat="44.30162" lon="6.18135">
        <ele>1376.7453613</ele>
        <time>2013-07-30T07:13:39Z</time>
      </trkpt>
      <trkpt lat="44.30175" lon="6.18159">
        <ele>1376.7453613</ele>
        <time>2013-07-30T07:13:58Z</time>
      </trkpt>
      <trkpt lat="44.30184" lon="6.18164">
        <ele>1378.6679688</ele>
        <time>2013-07-30T07:14:11Z</time>
      </trkpt>
      <trkpt lat="44.30191" lon="6.18187">
        <ele>1380.5905762</ele>
        <time>2013-07-30T07:14:28Z</time>
      </trkpt>
      <trkpt lat="44.30204" lon="6.18207">
        <ele>1381.5517578</ele>
        <time>2013-07-30T07:14:36Z</time>
      </trkpt>
      <trkpt lat="44.30208" lon="6.18214">
        <ele>1382.0324707</ele>
        <time>2013-07-30T07:14:42Z</time>
      </trkpt>
      <trkpt lat="44.30209" lon="6.18215">
        <ele>1381.0712891</ele>
        <time>2013-07-30T07:14:44Z</time>
      </trkpt>
      <trkpt lat="44.30224" lon="6.18223">
        <ele>1383.4743652</ele>
        <time>2013-07-30T07:14:59Z</time>
      </trkpt>
      <trkpt lat="44.30228" lon="6.18225">
        <ele>1383.9550781</ele>
        <time>2013-07-30T07:15:04Z</time>
      </trkpt>
      <trkpt lat="44.30229" lon="6.18231">
        <ele>1384.435791</ele>
        <time>2013-07-30T07:15:09Z</time>
      </trkpt>
      <trkpt lat="44.30245" lon="6.18241">
        <ele>1386.3583984</ele>
        <time>2013-07-30T07:15:24Z</time>
      </trkpt>
      <trkpt lat="44.30259" lon="6.18256">
        <ele>1386.3583984</ele>
        <time>2013-07-30T07:15:40Z</time>
      </trkpt>
      <trkpt lat="44.30268" lon="6.18262">
        <ele>1385.8776855</ele>
        <time>2013-07-30T07:15:50Z</time>
      </trkpt>
      <trkpt lat="44.30269" lon="6.18263">
        <ele>1385.8776855</ele>
        <time>2013-07-30T07:15:52Z</time>
      </trkpt>
      <trkpt lat="44.30271" lon="6.18266">
        <ele>1387.800293</ele>
        <time>2013-07-30T07:15:55Z</time>
      </trkpt>
      <trkpt lat="44.30281" lon="6.18278">
        <ele>1389.7231445</ele>
        <time>2013-07-30T07:16:11Z</time>
      </trkpt>
      <trkpt lat="44.30288" lon="6.18294">
        <ele>1391.645752</ele>
        <time>2013-07-30T07:16:24Z</time>
      </trkpt>
      <trkpt lat="44.30298" lon="6.18305">
        <ele>1391.645752</ele>
        <time>2013-07-30T07:16:36Z</time>
      </trkpt>
      <trkpt lat="44.30302" lon="6.18312">
        <ele>1392.1264648</ele>
        <time>2013-07-30T07:16:42Z</time>
      </trkpt>
      <trkpt lat="44.30306" lon="6.18324">
        <ele>1392.6071777</ele>
        <time>2013-07-30T07:16:49Z</time>
      </trkpt>
      <trkpt lat="44.30305" lon="6.18328">
        <ele>1393.0876465</ele>
        <time>2013-07-30T07:16:52Z</time>
      </trkpt>
      <trkpt lat="44.30306" lon="6.18333">
        <ele>1393.0876465</ele>
        <time>2013-07-30T07:16:55Z</time>
      </trkpt>
      <trkpt lat="44.30311" lon="6.18338">
        <ele>1393.5683594</ele>
        <time>2013-07-30T07:17:01Z</time>
      </trkpt>
      <trkpt lat="44.30316" lon="6.1836">
        <ele>1395.0102539</ele>
        <time>2013-07-30T07:17:15Z</time>
      </trkpt>
      <trkpt lat="44.30316" lon="6.18362">
        <ele>1395.0102539</ele>
        <time>2013-07-30T07:17:16Z</time>
      </trkpt>
      <trkpt lat="44.30322" lon="6.18382">
        <ele>1395.9716797</ele>
        <time>2013-07-30T07:17:30Z</time>
      </trkpt>
      <trkpt lat="44.30321" lon="6.18388">
        <ele>1396.4523926</ele>
        <time>2013-07-30T07:17:35Z</time>
      </trkpt>
      <trkpt lat="44.30327" lon="6.18398">
        <ele>1397.4135742</ele>
        <time>2013-07-30T07:17:45Z</time>
      </trkpt>
      <trkpt lat="44.3033" lon="6.18401">
        <ele>1397.8942871</ele>
        <time>2013-07-30T07:17:48Z</time>
      </trkpt>
      <trkpt lat="44.30331" lon="6.18409">
        <ele>1397.8942871</ele>
        <time>2013-07-30T07:17:54Z</time>
      </trkpt>
      <trkpt lat="44.3033" lon="6.18419">
        <ele>1398.8554688</ele>
        <time>2013-07-30T07:18:01Z</time>
      </trkpt>
      <trkpt lat="44.30341" lon="6.18435">
        <ele>1400.7780762</ele>
        <time>2013-07-30T07:18:15Z</time>
      </trkpt>
      <trkpt lat="44.30349" lon="6.18446">
        <ele>1402.2199707</ele>
        <time>2013-07-30T07:18:27Z</time>
      </trkpt>
      <trkpt lat="44.30355" lon="6.1846">
        <ele>1403.1813965</ele>
        <time>2013-07-30T07:18:40Z</time>
      </trkpt>
      <trkpt lat="44.30354" lon="6.18481">
        <ele>1405.104248</ele>
        <time>2013-07-30T07:18:57Z</time>
      </trkpt>
      <trkpt lat="44.30348" lon="6.18504">
        <ele>1407.0268555</ele>
        <time>2013-07-30T07:19:13Z</time>
      </trkpt>
      <trkpt lat="44.30346" lon="6.18505">
        <ele>1407.5075684</ele>
        <time>2013-07-30T07:19:14Z</time>
      </trkpt>
      <trkpt lat="44.30346" lon="6.18513">
        <ele>1407.5075684</ele>
        <time>2013-07-30T07:19:19Z</time>
      </trkpt>
      <trkpt lat="44.30347" lon="6.18518">
        <ele>1407.9882813</ele>
        <time>2013-07-30T07:19:22Z</time>
      </trkpt>
      <trkpt lat="44.30346" lon="6.18535">
        <ele>1409.4301758</ele>
        <time>2013-07-30T07:19:36Z</time>
      </trkpt>
      <trkpt lat="44.30347" lon="6.18563">
        <ele>1411.3527832</ele>
        <time>2013-07-30T07:19:55Z</time>
      </trkpt>
      <trkpt lat="44.3035" lon="6.18583">
        <ele>1412.7946777</ele>
        <time>2013-07-30T07:20:12Z</time>
      </trkpt>
      <trkpt lat="44.30356" lon="6.18601">
        <ele>1414.7172852</ele>
        <time>2013-07-30T07:20:27Z</time>
      </trkpt>
      <trkpt lat="44.30364" lon="6.18621">
        <ele>1415.197998</ele>
        <time>2013-07-30T07:20:40Z</time>
      </trkpt>
      <trkpt lat="44.30368" lon="6.18635">
        <ele>1416.6398926</ele>
        <time>2013-07-30T07:20:53Z</time>
      </trkpt>
      <trkpt lat="44.30378" lon="6.18654">
        <ele>1418.0817871</ele>
        <time>2013-07-30T07:21:12Z</time>
      </trkpt>
      <trkpt lat="44.30381" lon="6.18658">
        <ele>1419.0432129</ele>
        <time>2013-07-30T07:21:16Z</time>
      </trkpt>
      <trkpt lat="44.30384" lon="6.18663">
        <ele>1419.5239258</ele>
        <time>2013-07-30T07:21:21Z</time>
      </trkpt>
      <trkpt lat="44.30385" lon="6.18679">
        <ele>1418.5625</ele>
        <time>2013-07-30T07:21:36Z</time>
      </trkpt>
      <trkpt lat="44.30384" lon="6.18697">
        <ele>1420.0046387</ele>
        <time>2013-07-30T07:21:52Z</time>
      </trkpt>
      <trkpt lat="44.30379" lon="6.18715">
        <ele>1422.8886719</ele>
        <time>2013-07-30T07:22:12Z</time>
      </trkpt>
      <trkpt lat="44.30377" lon="6.1873">
        <ele>1426.2531738</ele>
        <time>2013-07-30T07:22:28Z</time>
      </trkpt>
      <trkpt lat="44.30364" lon="6.18741">
        <ele>1428.1757813</ele>
        <time>2013-07-30T07:22:49Z</time>
      </trkpt>
      <trkpt lat="44.30351" lon="6.18753">
        <ele>1431.5402832</ele>
        <time>2013-07-30T07:23:12Z</time>
      </trkpt>
      <trkpt lat="44.30346" lon="6.18778">
        <ele>1434.4243164</ele>
        <time>2013-07-30T07:23:35Z</time>
      </trkpt>
      <trkpt lat="44.30342" lon="6.18792">
        <ele>1436.8276367</ele>
        <time>2013-07-30T07:23:59Z</time>
      </trkpt>
      <trkpt lat="44.30343" lon="6.18808">
        <ele>1439.230957</ele>
        <time>2013-07-30T07:24:16Z</time>
      </trkpt>
      <trkpt lat="44.30335" lon="6.18814">
        <ele>1442.5957031</ele>
        <time>2013-07-30T07:24:31Z</time>
      </trkpt>
      <trkpt lat="44.30328" lon="6.18819">
        <ele>1445.4794922</ele>
        <time>2013-07-30T07:24:48Z</time>
      </trkpt>
      <trkpt lat="44.30326" lon="6.18829">
        <ele>1447.8828125</ele>
        <time>2013-07-30T07:25:05Z</time>
      </trkpt>
      <trkpt lat="44.30322" lon="6.18835">
        <ele>1451.2473145</ele>
        <time>2013-07-30T07:25:20Z</time>
      </trkpt>
      <trkpt lat="44.3032" lon="6.18835">
        <ele>1454.1315918</ele>
        <time>2013-07-30T07:25:31Z</time>
      </trkpt>
      <trkpt lat="44.30318" lon="6.18845">
        <ele>1455.5734863</ele>
        <time>2013-07-30T07:25:44Z</time>
      </trkpt>
      <trkpt lat="44.30316" lon="6.18852">
        <ele>1457.4960938</ele>
        <time>2013-07-30T07:25:55Z</time>
      </trkpt>
      <trkpt lat="44.30312" lon="6.18861">
        <ele>1459.8991699</ele>
        <time>2013-07-30T07:26:11Z</time>
      </trkpt>
      <trkpt lat="44.30315" lon="6.18874">
        <ele>1462.3024902</ele>
        <time>2013-07-30T07:26:27Z</time>
      </trkpt>
      <trkpt lat="44.30318" lon="6.18881">
        <ele>1464.2250977</ele>
        <time>2013-07-30T07:26:39Z</time>
      </trkpt>
      <trkpt lat="44.30323" lon="6.18896">
        <ele>1463.7443848</ele>
        <time>2013-07-30T07:26:53Z</time>
      </trkpt>
      <trkpt lat="44.30327" lon="6.18906">
        <ele>1464.7058105</ele>
        <time>2013-07-30T07:27:09Z</time>
      </trkpt>
      <trkpt lat="44.30328" lon="6.18927">
        <ele>1466.1477051</ele>
        <time>2013-07-30T07:27:31Z</time>
      </trkpt>
      <trkpt lat="44.30324" lon="6.18937">
        <ele>1469.5126953</ele>
        <time>2013-07-30T07:27:47Z</time>
      </trkpt>
      <trkpt lat="44.30319" lon="6.18945">
        <ele>1472.3964844</ele>
        <time>2013-07-30T07:28:04Z</time>
      </trkpt>
      <trkpt lat="44.30319" lon="6.18952">
        <ele>1475.2802734</ele>
        <time>2013-07-30T07:28:21Z</time>
      </trkpt>
      <trkpt lat="44.30317" lon="6.18961">
        <ele>1478.6450195</ele>
        <time>2013-07-30T07:28:43Z</time>
      </trkpt>
      <trkpt lat="44.3032" lon="6.18966">
        <ele>1479.1254883</ele>
        <time>2013-07-30T07:29:00Z</time>
      </trkpt>
      <trkpt lat="44.30324" lon="6.18978">
        <ele>1478.6450195</ele>
        <time>2013-07-30T07:29:20Z</time>
      </trkpt>
      <trkpt lat="44.30316" lon="6.18965">
        <ele>1479.6062012</ele>
        <time>2013-07-30T07:29:34Z</time>
      </trkpt>
      <trkpt lat="44.30302" lon="6.18953">
        <ele>1480.567627</ele>
        <time>2013-07-30T07:29:54Z</time>
      </trkpt>
      <trkpt lat="44.303" lon="6.18961">
        <ele>1482.4902344</ele>
        <time>2013-07-30T07:30:10Z</time>
      </trkpt>
      <trkpt lat="44.30301" lon="6.18965">
        <ele>1484.8937988</ele>
        <time>2013-07-30T07:30:15Z</time>
      </trkpt>
      <trkpt lat="44.30306" lon="6.18978">
        <ele>1487.7775879</ele>
        <time>2013-07-30T07:30:29Z</time>
      </trkpt>
      <trkpt lat="44.30302" lon="6.19002">
        <ele>1490.1809082</ele>
        <time>2013-07-30T07:30:57Z</time>
      </trkpt>
      <trkpt lat="44.30301" lon="6.19018">
        <ele>1493.5454102</ele>
        <time>2013-07-30T07:31:16Z</time>
      </trkpt>
      <trkpt lat="44.303" lon="6.19031">
        <ele>1495.4680176</ele>
        <time>2013-07-30T07:31:29Z</time>
      </trkpt>
      <trkpt lat="44.30291" lon="6.19041">
        <ele>1498.3518066</ele>
        <time>2013-07-30T07:31:46Z</time>
      </trkpt>
      <trkpt lat="44.3029" lon="6.19044">
        <ele>1498.3518066</ele>
        <time>2013-07-30T07:32:04Z</time>
      </trkpt>
      <trkpt lat="44.30293" lon="6.19065">
        <ele>1497.8713379</ele>
        <time>2013-07-30T07:33:10Z</time>
      </trkpt>
      <trkpt lat="44.30293" lon="6.19083">
        <ele>1495.9487305</ele>
        <time>2013-07-30T07:33:26Z</time>
      </trkpt>
      <trkpt lat="44.30292" lon="6.19087">
        <ele>1496.4294434</ele>
        <time>2013-07-30T07:33:29Z</time>
      </trkpt>
      <trkpt lat="44.30285" lon="6.19108">
        <ele>1494.5065918</ele>
        <time>2013-07-30T07:33:48Z</time>
      </trkpt>
      <trkpt lat="44.30288" lon="6.19123">
        <ele>1494.026123</ele>
        <time>2013-07-30T07:33:59Z</time>
      </trkpt>
      <trkpt lat="44.30298" lon="6.19131">
        <ele>1495.4680176</ele>
        <time>2013-07-30T07:34:11Z</time>
      </trkpt>
      <trkpt lat="44.30309" lon="6.19136">
        <ele>1494.9873047</ele>
        <time>2013-07-30T07:34:24Z</time>
      </trkpt>
      <trkpt lat="44.30323" lon="6.19141">
        <ele>1493.0646973</ele>
        <time>2013-07-30T07:34:40Z</time>
      </trkpt>
      <trkpt lat="44.30336" lon="6.19148">
        <ele>1490.661377</ele>
        <time>2013-07-30T07:34:56Z</time>
      </trkpt>
      <trkpt lat="44.30353" lon="6.19161">
        <ele>1488.7390137</ele>
        <time>2013-07-30T07:35:17Z</time>
      </trkpt>
      <trkpt lat="44.30362" lon="6.19178">
        <ele>1487.7775879</ele>
        <time>2013-07-30T07:35:34Z</time>
      </trkpt>
      <trkpt lat="44.30364" lon="6.19181">
        <ele>1487.7775879</ele>
        <time>2013-07-30T07:35:37Z</time>
      </trkpt>
      <trkpt lat="44.30374" lon="6.192">
        <ele>1485.8549805</ele>
        <time>2013-07-30T07:35:54Z</time>
      </trkpt>
      <trkpt lat="44.30385" lon="6.19214">
        <ele>1483.9321289</ele>
        <time>2013-07-30T07:36:09Z</time>
      </trkpt>
      <trkpt lat="44.30398" lon="6.1923">
        <ele>1483.451416</ele>
        <time>2013-07-30T07:36:27Z</time>
      </trkpt>
      <trkpt lat="44.30401" lon="6.19237">
        <ele>1483.451416</ele>
        <time>2013-07-30T07:36:32Z</time>
      </trkpt>
      <trkpt lat="44.30403" lon="6.19247">
        <ele>1482.4902344</ele>
        <time>2013-07-30T07:36:40Z</time>
      </trkpt>
      <trkpt lat="44.30412" lon="6.19265">
        <ele>1480.567627</ele>
        <time>2013-07-30T07:36:56Z</time>
      </trkpt>
      <trkpt lat="44.30414" lon="6.19268">
        <ele>1480.567627</ele>
        <time>2013-07-30T07:36:58Z</time>
      </trkpt>
      <trkpt lat="44.3042" lon="6.19274">
        <ele>1479.6062012</ele>
        <time>2013-07-30T07:37:05Z</time>
      </trkpt>
      <trkpt lat="44.3043" lon="6.19285">
        <ele>1478.1643066</ele>
        <time>2013-07-30T07:37:21Z</time>
      </trkpt>
      <trkpt lat="44.30436" lon="6.19296">
        <ele>1477.203125</ele>
        <time>2013-07-30T07:37:31Z</time>
      </trkpt>
      <trkpt lat="44.3045" lon="6.19308">
        <ele>1476.7224121</ele>
        <time>2013-07-30T07:37:41Z</time>
      </trkpt>
      <trkpt lat="44.30458" lon="6.19325">
        <ele>1475.7609863</ele>
        <time>2013-07-30T07:37:56Z</time>
      </trkpt>
      <trkpt lat="44.30462" lon="6.19344">
        <ele>1474.7998047</ele>
        <time>2013-07-30T07:38:08Z</time>
      </trkpt>
      <trkpt lat="44.30462" lon="6.19347">
        <ele>1474.7998047</ele>
        <time>2013-07-30T07:38:09Z</time>
      </trkpt>
      <trkpt lat="44.30462" lon="6.19352">
        <ele>1474.7998047</ele>
        <time>2013-07-30T07:38:11Z</time>
      </trkpt>
      <trkpt lat="44.30469" lon="6.19374">
        <ele>1475.2802734</ele>
        <time>2013-07-30T07:38:32Z</time>
      </trkpt>
      <trkpt lat="44.30467" lon="6.19387">
        <ele>1476.2416992</ele>
        <time>2013-07-30T07:38:43Z</time>
      </trkpt>
      <trkpt lat="44.30457" lon="6.19407">
        <ele>1478.6450195</ele>
        <time>2013-07-30T07:39:02Z</time>
      </trkpt>
      <trkpt lat="44.30453" lon="6.19421">
        <ele>1479.6062012</ele>
        <time>2013-07-30T07:39:16Z</time>
      </trkpt>
      <trkpt lat="44.30452" lon="6.19423">
        <ele>1480.0869141</ele>
        <time>2013-07-30T07:39:18Z</time>
      </trkpt>
      <trkpt lat="44.30449" lon="6.19426">
        <ele>1480.0869141</ele>
        <time>2013-07-30T07:39:27Z</time>
      </trkpt>
      <trkpt lat="44.30447" lon="6.19439">
        <ele>1479.1254883</ele>
        <time>2013-07-30T07:39:39Z</time>
      </trkpt>
      <trkpt lat="44.30446" lon="6.19442">
        <ele>1480.567627</ele>
        <time>2013-07-30T07:39:42Z</time>
      </trkpt>
      <trkpt lat="44.30444" lon="6.19459">
        <ele>1483.451416</ele>
        <time>2013-07-30T07:39:54Z</time>
      </trkpt>
      <trkpt lat="44.30444" lon="6.19461">
        <ele>1482.9707031</ele>
        <time>2013-07-30T07:39:55Z</time>
      </trkpt>
      <trkpt lat="44.30447" lon="6.19479">
        <ele>1483.9321289</ele>
        <time>2013-07-30T07:40:09Z</time>
      </trkpt>
      <trkpt lat="44.30454" lon="6.19491">
        <ele>1484.4130859</ele>
        <time>2013-07-30T07:40:21Z</time>
      </trkpt>
      <trkpt lat="44.30446" lon="6.19512">
        <ele>1487.296875</ele>
        <time>2013-07-30T07:40:38Z</time>
      </trkpt>
      <trkpt lat="44.30447" lon="6.19532">
        <ele>1488.7390137</ele>
        <time>2013-07-30T07:40:55Z</time>
      </trkpt>
      <trkpt lat="44.30446" lon="6.19547">
        <ele>1492.1035156</ele>
        <time>2013-07-30T07:41:09Z</time>
      </trkpt>
      <trkpt lat="44.30445" lon="6.19552">
        <ele>1493.0646973</ele>
        <time>2013-07-30T07:41:12Z</time>
      </trkpt>
      <trkpt lat="44.30447" lon="6.19563">
        <ele>1493.5454102</ele>
        <time>2013-07-30T07:41:25Z</time>
      </trkpt>
      <trkpt lat="44.30447" lon="6.19572">
        <ele>1493.5454102</ele>
        <time>2013-07-30T07:41:37Z</time>
      </trkpt>
      <trkpt lat="44.3045" lon="6.19584">
        <ele>1493.0646973</ele>
        <time>2013-07-30T07:41:51Z</time>
      </trkpt>
      <trkpt lat="44.3045" lon="6.19586">
        <ele>1493.0646973</ele>
        <time>2013-07-30T07:41:53Z</time>
      </trkpt>
      <trkpt lat="44.30443" lon="6.19595">
        <ele>1494.5065918</ele>
        <time>2013-07-30T07:42:05Z</time>
      </trkpt>
      <trkpt lat="44.30442" lon="6.19595">
        <ele>1494.5065918</ele>
        <time>2013-07-30T07:42:06Z</time>
      </trkpt>
      <trkpt lat="44.30439" lon="6.19601">
        <ele>1495.4680176</ele>
        <time>2013-07-30T07:42:13Z</time>
      </trkpt>
      <trkpt lat="44.30434" lon="6.19615">
        <ele>1496.9099121</ele>
        <time>2013-07-30T07:42:27Z</time>
      </trkpt>
      <trkpt lat="44.30429" lon="6.19632">
        <ele>1497.390625</ele>
        <time>2013-07-30T07:42:44Z</time>
      </trkpt>
      <trkpt lat="44.30419" lon="6.19649">
        <ele>1499.3132324</ele>
        <time>2013-07-30T07:43:01Z</time>
      </trkpt>
      <trkpt lat="44.30412" lon="6.19667">
        <ele>1501.236084</ele>
        <time>2013-07-30T07:43:18Z</time>
      </trkpt>
      <trkpt lat="44.30409" lon="6.19683">
        <ele>1502.6779785</ele>
        <time>2013-07-30T07:43:35Z</time>
      </trkpt>
      <trkpt lat="44.30413" lon="6.19696">
        <ele>1503.6394043</ele>
        <time>2013-07-30T07:43:49Z</time>
      </trkpt>
      <trkpt lat="44.30405" lon="6.19714">
        <ele>1505.5620117</ele>
        <time>2013-07-30T07:44:04Z</time>
      </trkpt>
      <trkpt lat="44.30405" lon="6.19715">
        <ele>1505.5620117</ele>
        <time>2013-07-30T07:44:05Z</time>
      </trkpt>
      <trkpt lat="44.30405" lon="6.19718">
        <ele>1505.0812988</ele>
        <time>2013-07-30T07:44:08Z</time>
      </trkpt>
      <trkpt lat="44.30404" lon="6.19724">
        <ele>1506.5231934</ele>
        <time>2013-07-30T07:44:13Z</time>
      </trkpt>
      <trkpt lat="44.30407" lon="6.19737">
        <ele>1507.0039063</ele>
        <time>2013-07-30T07:44:26Z</time>
      </trkpt>
      <trkpt lat="44.30406" lon="6.19754">
        <ele>1509.4072266</ele>
        <time>2013-07-30T07:44:43Z</time>
      </trkpt>
      <trkpt lat="44.30407" lon="6.19757">
        <ele>1509.8876953</ele>
        <time>2013-07-30T07:44:46Z</time>
      </trkpt>
      <trkpt lat="44.30406" lon="6.19776">
        <ele>1511.329834</ele>
        <time>2013-07-30T07:45:03Z</time>
      </trkpt>
      <trkpt lat="44.30407" lon="6.19784">
        <ele>1513.2524414</ele>
        <time>2013-07-30T07:45:14Z</time>
      </trkpt>
      <trkpt lat="44.30407" lon="6.19794">
        <ele>1513.7329102</ele>
        <time>2013-07-30T07:45:20Z</time>
      </trkpt>
      <trkpt lat="44.30405" lon="6.1981">
        <ele>1514.213623</ele>
        <time>2013-07-30T07:45:32Z</time>
      </trkpt>
      <trkpt lat="44.304" lon="6.19829">
        <ele>1516.1364746</ele>
        <time>2013-07-30T07:45:50Z</time>
      </trkpt>
      <trkpt lat="44.30401" lon="6.19846">
        <ele>1517.5783691</ele>
        <time>2013-07-30T07:46:06Z</time>
      </trkpt>
      <trkpt lat="44.30399" lon="6.19861">
        <ele>1519.0205078</ele>
        <time>2013-07-30T07:46:19Z</time>
      </trkpt>
      <trkpt lat="44.30396" lon="6.19866">
        <ele>1519.9816895</ele>
        <time>2013-07-30T07:46:26Z</time>
      </trkpt>
      <trkpt lat="44.30397" lon="6.19881">
        <ele>1522.3850098</ele>
        <time>2013-07-30T07:46:42Z</time>
      </trkpt>
      <trkpt lat="44.30393" lon="6.19892">
        <ele>1523.3464355</ele>
        <time>2013-07-30T07:46:56Z</time>
      </trkpt>
      <trkpt lat="44.3039" lon="6.19911">
        <ele>1524.7883301</ele>
        <time>2013-07-30T07:47:13Z</time>
      </trkpt>
      <trkpt lat="44.30388" lon="6.19929">
        <ele>1527.1916504</ele>
        <time>2013-07-30T07:47:30Z</time>
      </trkpt>
      <trkpt lat="44.3039" lon="6.19948">
        <ele>1529.1140137</ele>
        <time>2013-07-30T07:47:48Z</time>
      </trkpt>
      <trkpt lat="44.3039" lon="6.19969">
        <ele>1531.517334</ele>
        <time>2013-07-30T07:48:07Z</time>
      </trkpt>
      <trkpt lat="44.30387" lon="6.19984">
        <ele>1533.9208984</ele>
        <time>2013-07-30T07:48:23Z</time>
      </trkpt>
      <trkpt lat="44.3038" lon="6.20002">
        <ele>1535.362793</ele>
        <time>2013-07-30T07:48:40Z</time>
      </trkpt>
      <trkpt lat="44.30378" lon="6.20018">
        <ele>1537.2854004</ele>
        <time>2013-07-30T07:48:56Z</time>
      </trkpt>
      <trkpt lat="44.30376" lon="6.20033">
        <ele>1538.7275391</ele>
        <time>2013-07-30T07:49:11Z</time>
      </trkpt>
      <trkpt lat="44.30384" lon="6.20052">
        <ele>1541.1306152</ele>
        <time>2013-07-30T07:49:32Z</time>
      </trkpt>
      <trkpt lat="44.30381" lon="6.20073">
        <ele>1543.5339355</ele>
        <time>2013-07-30T07:49:52Z</time>
      </trkpt>
      <trkpt lat="44.30382" lon="6.20092">
        <ele>1545.9372559</ele>
        <time>2013-07-30T07:50:10Z</time>
      </trkpt>
      <trkpt lat="44.30383" lon="6.20111">
        <ele>1547.8598633</ele>
        <time>2013-07-30T07:50:27Z</time>
      </trkpt>
      <trkpt lat="44.30383" lon="6.20127">
        <ele>1550.2634277</ele>
        <time>2013-07-30T07:50:44Z</time>
      </trkpt>
      <trkpt lat="44.30377" lon="6.20138">
        <ele>1552.185791</ele>
        <time>2013-07-30T07:51:00Z</time>
      </trkpt>
      <trkpt lat="44.30376" lon="6.20149">
        <ele>1553.1472168</ele>
        <time>2013-07-30T07:51:13Z</time>
      </trkpt>
      <trkpt lat="44.30374" lon="6.20159">
        <ele>1554.1086426</ele>
        <time>2013-07-30T07:51:28Z</time>
      </trkpt>
      <trkpt lat="44.30374" lon="6.20168">
        <ele>1556.5117188</ele>
        <time>2013-07-30T07:51:45Z</time>
      </trkpt>
      <trkpt lat="44.30378" lon="6.20179">
        <ele>1558.4343262</ele>
        <time>2013-07-30T07:52:06Z</time>
      </trkpt>
      <trkpt lat="44.30378" lon="6.20182">
        <ele>1558.4343262</ele>
        <time>2013-07-30T07:52:09Z</time>
      </trkpt>
      <trkpt lat="44.30385" lon="6.20195">
        <ele>1559.395752</ele>
        <time>2013-07-30T07:52:26Z</time>
      </trkpt>
      <trkpt lat="44.3039" lon="6.20197">
        <ele>1562.279541</ele>
        <time>2013-07-30T07:52:33Z</time>
      </trkpt>
      <trkpt lat="44.30403" lon="6.20202">
        <ele>1562.7602539</ele>
        <time>2013-07-30T07:52:48Z</time>
      </trkpt>
      <trkpt lat="44.30408" lon="6.20203">
        <ele>1561.3183594</ele>
        <time>2013-07-30T07:52:53Z</time>
      </trkpt>
      <trkpt lat="44.3042" lon="6.20209">
        <ele>1563.2409668</ele>
        <time>2013-07-30T07:53:09Z</time>
      </trkpt>
      <trkpt lat="44.30431" lon="6.2021">
        <ele>1564.2023926</ele>
        <time>2013-07-30T07:53:22Z</time>
      </trkpt>
      <trkpt lat="44.30437" lon="6.20213">
        <ele>1564.2023926</ele>
        <time>2013-07-30T07:53:29Z</time>
      </trkpt>
      <trkpt lat="44.30443" lon="6.20218">
        <ele>1565.6445313</ele>
        <time>2013-07-30T07:53:42Z</time>
      </trkpt>
      <trkpt lat="44.30443" lon="6.20215">
        <ele>1564.6831055</ele>
        <time>2013-07-30T07:53:48Z</time>
      </trkpt>
      <trkpt lat="44.30442" lon="6.20215">
        <ele>1567.0864258</ele>
        <time>2013-07-30T07:54:01Z</time>
      </trkpt>
      <trkpt lat="44.30444" lon="6.20214">
        <ele>1567.0864258</ele>
        <time>2013-07-30T07:54:45Z</time>
      </trkpt>
      <trkpt lat="44.30453" lon="6.20208">
        <ele>1567.5668945</ele>
        <time>2013-07-30T07:56:17Z</time>
      </trkpt>
      <trkpt lat="44.30465" lon="6.20198">
        <ele>1570.4509277</ele>
        <time>2013-07-30T07:56:38Z</time>
      </trkpt>
      <trkpt lat="44.3047" lon="6.20186">
        <ele>1573.8154297</ele>
        <time>2013-07-30T07:56:56Z</time>
      </trkpt>
      <trkpt lat="44.30475" lon="6.20182">
        <ele>1574.7768555</ele>
        <time>2013-07-30T07:57:11Z</time>
      </trkpt>
      <trkpt lat="44.30487" lon="6.20168">
        <ele>1577.6606445</ele>
        <time>2013-07-30T07:57:33Z</time>
      </trkpt>
      <trkpt lat="44.30501" lon="6.20158">
        <ele>1580.064209</ele>
        <time>2013-07-30T07:57:57Z</time>
      </trkpt>
      <trkpt lat="44.3051" lon="6.20149">
        <ele>1582.4675293</ele>
        <time>2013-07-30T07:58:15Z</time>
      </trkpt>
      <trkpt lat="44.30519" lon="6.20138">
        <ele>1584.3901367</ele>
        <time>2013-07-30T07:58:31Z</time>
      </trkpt>
      <trkpt lat="44.3052" lon="6.20137">
        <ele>1584.3901367</ele>
        <time>2013-07-30T07:58:33Z</time>
      </trkpt>
      <trkpt lat="44.30522" lon="6.20134">
        <ele>1584.8708496</ele>
        <time>2013-07-30T07:58:35Z</time>
      </trkpt>
      <trkpt lat="44.30526" lon="6.20119">
        <ele>1586.3127441</ele>
        <time>2013-07-30T07:58:48Z</time>
      </trkpt>
      <trkpt lat="44.30532" lon="6.20099">
        <ele>1587.2739258</ele>
        <time>2013-07-30T07:59:00Z</time>
      </trkpt>
      <trkpt lat="44.30536" lon="6.20079">
        <ele>1589.6772461</ele>
        <time>2013-07-30T07:59:14Z</time>
      </trkpt>
      <trkpt lat="44.30542" lon="6.20075">
        <ele>1591.5998535</ele>
        <time>2013-07-30T07:59:27Z</time>
      </trkpt>
      <trkpt lat="44.30552" lon="6.2007">
        <ele>1594.0031738</ele>
        <time>2013-07-30T07:59:42Z</time>
      </trkpt>
      <trkpt lat="44.30556" lon="6.20062">
        <ele>1594.4836426</ele>
        <time>2013-07-30T07:59:51Z</time>
      </trkpt>
      <trkpt lat="44.30559" lon="6.2005">
        <ele>1594.4836426</ele>
        <time>2013-07-30T08:00:03Z</time>
      </trkpt>
      <trkpt lat="44.30565" lon="6.2004">
        <ele>1594.9643555</ele>
        <time>2013-07-30T08:00:18Z</time>
      </trkpt>
      <trkpt lat="44.30576" lon="6.20021">
        <ele>1597.3679199</ele>
        <time>2013-07-30T08:00:36Z</time>
      </trkpt>
      <trkpt lat="44.30578" lon="6.20007">
        <ele>1599.7712402</ele>
        <time>2013-07-30T08:00:54Z</time>
      </trkpt>
      <trkpt lat="44.30577" lon="6.19999">
        <ele>1599.7712402</ele>
        <time>2013-07-30T08:01:00Z</time>
      </trkpt>
      <trkpt lat="44.30585" lon="6.19985">
        <ele>1601.2131348</ele>
        <time>2013-07-30T08:01:16Z</time>
      </trkpt>
      <trkpt lat="44.3059" lon="6.19972">
        <ele>1602.6550293</ele>
        <time>2013-07-30T08:01:39Z</time>
      </trkpt>
      <trkpt lat="44.30591" lon="6.19971">
        <ele>1602.6550293</ele>
        <time>2013-07-30T08:01:40Z</time>
      </trkpt>
      <trkpt lat="44.30601" lon="6.19961">
        <ele>1604.5776367</ele>
        <time>2013-07-30T08:01:55Z</time>
      </trkpt>
      <trkpt lat="44.30605" lon="6.19953">
        <ele>1606.980957</ele>
        <time>2013-07-30T08:02:08Z</time>
      </trkpt>
      <trkpt lat="44.30609" lon="6.1995">
        <ele>1607.9423828</ele>
        <time>2013-07-30T08:02:27Z</time>
      </trkpt>
      <trkpt lat="44.30609" lon="6.19946">
        <ele>1608.9035645</ele>
        <time>2013-07-30T08:02:39Z</time>
      </trkpt>
      <trkpt lat="44.30618" lon="6.19938">
        <ele>1610.8261719</ele>
        <time>2013-07-30T08:02:56Z</time>
      </trkpt>
      <trkpt lat="44.30626" lon="6.19922">
        <ele>1613.7102051</ele>
        <time>2013-07-30T08:03:18Z</time>
      </trkpt>
      <trkpt lat="44.30625" lon="6.19903">
        <ele>1615.1523438</ele>
        <time>2013-07-30T08:03:40Z</time>
      </trkpt>
      <trkpt lat="44.30628" lon="6.19876">
        <ele>1618.0361328</ele>
        <time>2013-07-30T08:04:03Z</time>
      </trkpt>
      <trkpt lat="44.30634" lon="6.19857">
        <ele>1620.4394531</ele>
        <time>2013-07-30T08:04:28Z</time>
      </trkpt>
      <trkpt lat="44.30641" lon="6.19843">
        <ele>1622.8427734</ele>
        <time>2013-07-30T08:04:52Z</time>
      </trkpt>
      <trkpt lat="44.30653" lon="6.19823">
        <ele>1625.2458496</ele>
        <time>2013-07-30T08:05:21Z</time>
      </trkpt>
      <trkpt lat="44.3065" lon="6.19806">
        <ele>1626.6879883</ele>
        <time>2013-07-30T08:05:42Z</time>
      </trkpt>
      <trkpt lat="44.30654" lon="6.19807">
        <ele>1628.6108398</ele>
        <time>2013-07-30T08:06:10Z</time>
      </trkpt>
      <trkpt lat="44.30657" lon="6.19818">
        <ele>1631.9753418</ele>
        <time>2013-07-30T08:06:30Z</time>
      </trkpt>
      <trkpt lat="44.30663" lon="6.19834">
        <ele>1633.8979492</ele>
        <time>2013-07-30T08:06:56Z</time>
      </trkpt>
      <trkpt lat="44.30662" lon="6.19841">
        <ele>1636.7817383</ele>
        <time>2013-07-30T08:07:18Z</time>
      </trkpt>
      <trkpt lat="44.30667" lon="6.19845">
        <ele>1637.2624512</ele>
        <time>2013-07-30T08:07:43Z</time>
      </trkpt>
      <trkpt lat="44.30667" lon="6.19845">
        <ele>1639.1850586</ele>
        <time>2013-07-30T08:07:45Z</time>
      </trkpt>
      <trkpt lat="44.3067" lon="6.19859">
        <ele>1642.0690918</ele>
        <time>2013-07-30T08:08:26Z</time>
      </trkpt>
      <trkpt lat="44.30671" lon="6.19873">
        <ele>1644.4724121</ele>
        <time>2013-07-30T08:08:51Z</time>
      </trkpt>
      <trkpt lat="44.30668" lon="6.19885">
        <ele>1648.317627</ele>
        <time>2013-07-30T08:09:10Z</time>
      </trkpt>
      <trkpt lat="44.30668" lon="6.19886">
        <ele>1648.317627</ele>
        <time>2013-07-30T08:09:11Z</time>
      </trkpt>
      <trkpt lat="44.30674" lon="6.19892">
        <ele>1651.2016602</ele>
        <time>2013-07-30T08:09:35Z</time>
      </trkpt>
      <trkpt lat="44.30675" lon="6.1991">
        <ele>1651.2016602</ele>
        <time>2013-07-30T08:09:56Z</time>
      </trkpt>
      <trkpt lat="44.3068" lon="6.19915">
        <ele>1652.6435547</ele>
        <time>2013-07-30T08:10:10Z</time>
      </trkpt>
      <trkpt lat="44.30684" lon="6.19928">
        <ele>1655.046875</ele>
        <time>2013-07-30T08:10:35Z</time>
      </trkpt>
      <trkpt lat="44.30688" lon="6.19938">
        <ele>1656.0080566</ele>
        <time>2013-07-30T08:10:48Z</time>
      </trkpt>
      <trkpt lat="44.30692" lon="6.19951">
        <ele>1657.9309082</ele>
        <time>2013-07-30T08:11:03Z</time>
      </trkpt>
      <trkpt lat="44.30692" lon="6.19951">
        <ele>1657.9309082</ele>
        <time>2013-07-30T08:11:05Z</time>
      </trkpt>
      <trkpt lat="44.3069" lon="6.19959">
        <ele>1658.8920898</ele>
        <time>2013-07-30T08:11:21Z</time>
      </trkpt>
      <trkpt lat="44.3069" lon="6.1997">
        <ele>1660.8149414</ele>
        <time>2013-07-30T08:11:40Z</time>
      </trkpt>
      <trkpt lat="44.30684" lon="6.19974">
        <ele>1662.7375488</ele>
        <time>2013-07-30T08:11:54Z</time>
      </trkpt>
      <trkpt lat="44.30682" lon="6.19984">
        <ele>1664.1794434</ele>
        <time>2013-07-30T08:12:12Z</time>
      </trkpt>
      <trkpt lat="44.30676" lon="6.19993">
        <ele>1666.5827637</ele>
        <time>2013-07-30T08:12:31Z</time>
      </trkpt>
      <trkpt lat="44.30673" lon="6.19993">
        <ele>1668.0246582</ele>
        <time>2013-07-30T08:12:44Z</time>
      </trkpt>
      <trkpt lat="44.30671" lon="6.19988">
        <ele>1668.5053711</ele>
        <time>2013-07-30T08:12:59Z</time>
      </trkpt>
      <trkpt lat="44.30685" lon="6.19988">
        <ele>1671.3891602</ele>
        <time>2013-07-30T08:13:41Z</time>
      </trkpt>
      <trkpt lat="44.30699" lon="6.19996">
        <ele>1673.7924805</ele>
        <time>2013-07-30T08:14:05Z</time>
      </trkpt>
      <trkpt lat="44.30705" lon="6.1998">
        <ele>1674.2731934</ele>
        <time>2013-07-30T08:14:21Z</time>
      </trkpt>
      <trkpt lat="44.30706" lon="6.19972">
        <ele>1676.6767578</ele>
        <time>2013-07-30T08:14:33Z</time>
      </trkpt>
      <trkpt lat="44.30707" lon="6.19971">
        <ele>1676.6767578</ele>
        <time>2013-07-30T08:14:36Z</time>
      </trkpt>
      <trkpt lat="44.30707" lon="6.19963">
        <ele>1678.1186523</ele>
        <time>2013-07-30T08:14:50Z</time>
      </trkpt>
      <trkpt lat="44.30716" lon="6.19952">
        <ele>1681.4831543</ele>
        <time>2013-07-30T08:15:16Z</time>
      </trkpt>
      <trkpt lat="44.30723" lon="6.19924">
        <ele>1682.4445801</ele>
        <time>2013-07-30T08:15:35Z</time>
      </trkpt>
      <trkpt lat="44.30729" lon="6.19917">
        <ele>1684.3671875</ele>
        <time>2013-07-30T08:15:49Z</time>
      </trkpt>
      <trkpt lat="44.30734" lon="6.19912">
        <ele>1687.7316895</ele>
        <time>2013-07-30T08:16:09Z</time>
      </trkpt>
      <trkpt lat="44.3074" lon="6.19898">
        <ele>1690.6154785</ele>
        <time>2013-07-30T08:16:34Z</time>
      </trkpt>
      <trkpt lat="44.30738" lon="6.19892">
        <ele>1691.5769043</ele>
        <time>2013-07-30T08:16:44Z</time>
      </trkpt>
      <trkpt lat="44.30735" lon="6.1988">
        <ele>1693.4997559</ele>
        <time>2013-07-30T08:17:01Z</time>
      </trkpt>
      <trkpt lat="44.30743" lon="6.19866">
        <ele>1694.9416504</ele>
        <time>2013-07-30T08:17:21Z</time>
      </trkpt>
      <trkpt lat="44.30759" lon="6.19854">
        <ele>1697.8256836</ele>
        <time>2013-07-30T08:17:44Z</time>
      </trkpt>
      <trkpt lat="44.30769" lon="6.19839">
        <ele>1700.7094727</ele>
        <time>2013-07-30T08:18:09Z</time>
      </trkpt>
      <trkpt lat="44.3078" lon="6.19831">
        <ele>1703.112793</ele>
        <time>2013-07-30T08:18:27Z</time>
      </trkpt>
      <trkpt lat="44.30788" lon="6.19824">
        <ele>1704.5546875</ele>
        <time>2013-07-30T08:18:41Z</time>
      </trkpt>
      <trkpt lat="44.30792" lon="6.19822">
        <ele>1707.4387207</ele>
        <time>2013-07-30T08:18:58Z</time>
      </trkpt>
      <trkpt lat="44.30791" lon="6.19831">
        <ele>1710.8034668</ele>
        <time>2013-07-30T08:19:19Z</time>
      </trkpt>
      <trkpt lat="44.30791" lon="6.19832">
        <ele>1710.8034668</ele>
        <time>2013-07-30T08:19:20Z</time>
      </trkpt>
      <trkpt lat="44.30786" lon="6.1984">
        <ele>1711.7648926</ele>
        <time>2013-07-30T08:19:34Z</time>
      </trkpt>
      <trkpt lat="44.30786" lon="6.19856">
        <ele>1715.1293945</ele>
        <time>2013-07-30T08:19:54Z</time>
      </trkpt>
      <trkpt lat="44.30785" lon="6.19856">
        <ele>1715.1293945</ele>
        <time>2013-07-30T08:19:55Z</time>
      </trkpt>
      <trkpt lat="44.30783" lon="6.19877">
        <ele>1717.5324707</ele>
        <time>2013-07-30T08:20:28Z</time>
      </trkpt>
      <trkpt lat="44.30782" lon="6.19898">
        <ele>1720.4165039</ele>
        <time>2013-07-30T08:20:53Z</time>
      </trkpt>
      <trkpt lat="44.30782" lon="6.19924">
        <ele>1723.7810059</ele>
        <time>2013-07-30T08:21:19Z</time>
      </trkpt>
      <trkpt lat="44.30782" lon="6.19934">
        <ele>1726.6652832</ele>
        <time>2013-07-30T08:21:52Z</time>
      </trkpt>
      <trkpt lat="44.30783" lon="6.19957">
        <ele>1730.0297852</ele>
        <time>2013-07-30T08:22:14Z</time>
      </trkpt>
      <trkpt lat="44.30792" lon="6.19988">
        <ele>1732.9135742</ele>
        <time>2013-07-30T08:22:43Z</time>
      </trkpt>
      <trkpt lat="44.30786" lon="6.20003">
        <ele>1736.2783203</ele>
        <time>2013-07-30T08:23:10Z</time>
      </trkpt>
      <trkpt lat="44.30789" lon="6.20019">
        <ele>1738.2009277</ele>
        <time>2013-07-30T08:23:30Z</time>
      </trkpt>
      <trkpt lat="44.30794" lon="6.20035">
        <ele>1741.0849609</ele>
        <time>2013-07-30T08:23:52Z</time>
      </trkpt>
      <trkpt lat="44.30799" lon="6.20041">
        <ele>1742.0463867</ele>
        <time>2013-07-30T08:24:17Z</time>
      </trkpt>
      <trkpt lat="44.30798" lon="6.20028">
        <ele>1743.4882813</ele>
        <time>2013-07-30T08:24:32Z</time>
      </trkpt>
      <trkpt lat="44.30802" lon="6.2001">
        <ele>1745.4108887</ele>
        <time>2013-07-30T08:24:49Z</time>
      </trkpt>
      <trkpt lat="44.30809" lon="6.19995">
        <ele>1747.3334961</ele>
        <time>2013-07-30T08:25:10Z</time>
      </trkpt>
      <trkpt lat="44.30817" lon="6.19981">
        <ele>1749.7368164</ele>
        <time>2013-07-30T08:25:31Z</time>
      </trkpt>
      <trkpt lat="44.30821" lon="6.19975">
        <ele>1751.6594238</ele>
        <time>2013-07-30T08:25:39Z</time>
      </trkpt>
      <trkpt lat="44.30825" lon="6.19965">
        <ele>1751.1787109</ele>
        <time>2013-07-30T08:25:49Z</time>
      </trkpt>
      <trkpt lat="44.30823" lon="6.19953">
        <ele>1753.5820313</ele>
        <time>2013-07-30T08:26:00Z</time>
      </trkpt>
      <trkpt lat="44.30823" lon="6.19947">
        <ele>1754.5432129</ele>
        <time>2013-07-30T08:26:07Z</time>
      </trkpt>
      <trkpt lat="44.30834" lon="6.19932">
        <ele>1756.4660645</ele>
        <time>2013-07-30T08:26:29Z</time>
      </trkpt>
      <trkpt lat="44.30844" lon="6.19915">
        <ele>1758.3886719</ele>
        <time>2013-07-30T08:26:50Z</time>
      </trkpt>
      <trkpt lat="44.30841" lon="6.19919">
        <ele>1761.2727051</ele>
        <time>2013-07-30T08:27:10Z</time>
      </trkpt>
      <trkpt lat="44.3084" lon="6.19938">
        <ele>1764.1564941</ele>
        <time>2013-07-30T08:27:37Z</time>
      </trkpt>
      <trkpt lat="44.30843" lon="6.19972">
        <ele>1766.5598145</ele>
        <time>2013-07-30T08:28:09Z</time>
      </trkpt>
      <trkpt lat="44.30843" lon="6.19997">
        <ele>1769.9243164</ele>
        <time>2013-07-30T08:28:32Z</time>
      </trkpt>
      <trkpt lat="44.30845" lon="6.20022">
        <ele>1773.2893066</ele>
        <time>2013-07-30T08:29:00Z</time>
      </trkpt>
      <trkpt lat="44.30843" lon="6.20043">
        <ele>1776.1730957</ele>
        <time>2013-07-30T08:29:23Z</time>
      </trkpt>
      <trkpt lat="44.30845" lon="6.20048">
        <ele>1779.0568848</ele>
        <time>2013-07-30T08:29:48Z</time>
      </trkpt>
      <trkpt lat="44.30847" lon="6.20042">
        <ele>1779.5375977</ele>
        <time>2013-07-30T08:30:10Z</time>
      </trkpt>
      <trkpt lat="44.30847" lon="6.20042">
        <ele>1781.4602051</ele>
        <time>2013-07-30T08:30:20Z</time>
      </trkpt>
      <trkpt lat="44.30856" lon="6.20039">
        <ele>1782.9020996</ele>
        <time>2013-07-30T08:30:43Z</time>
      </trkpt>
      <trkpt lat="44.30864" lon="6.20024">
        <ele>1781.940918</ele>
        <time>2013-07-30T08:31:02Z</time>
      </trkpt>
      <trkpt lat="44.30869" lon="6.20006">
        <ele>1784.8249512</ele>
        <time>2013-07-30T08:31:28Z</time>
      </trkpt>
      <trkpt lat="44.30871" lon="6.20023">
        <ele>1788.6704102</ele>
        <time>2013-07-30T08:31:54Z</time>
      </trkpt>
      <trkpt lat="44.30872" lon="6.20047">
        <ele>1792.0349121</ele>
        <time>2013-07-30T08:32:21Z</time>
      </trkpt>
      <trkpt lat="44.3087" lon="6.20071">
        <ele>1794.9187012</ele>
        <time>2013-07-30T08:32:45Z</time>
      </trkpt>
      <trkpt lat="44.30874" lon="6.20096">
        <ele>1797.8027344</ele>
        <time>2013-07-30T08:33:07Z</time>
      </trkpt>
      <trkpt lat="44.3087" lon="6.20102">
        <ele>1799.2446289</ele>
        <time>2013-07-30T08:33:22Z</time>
      </trkpt>
      <trkpt lat="44.30864" lon="6.20111">
        <ele>1801.6479492</ele>
        <time>2013-07-30T08:33:42Z</time>
      </trkpt>
      <trkpt lat="44.30867" lon="6.2014">
        <ele>1804.0515137</ele>
        <time>2013-07-30T08:34:02Z</time>
      </trkpt>
      <trkpt lat="44.3087" lon="6.20151">
        <ele>1805.4934082</ele>
        <time>2013-07-30T08:34:14Z</time>
      </trkpt>
      <trkpt lat="44.30872" lon="6.20167">
        <ele>1807.8967285</ele>
        <time>2013-07-30T08:34:40Z</time>
      </trkpt>
      <trkpt lat="44.30879" lon="6.20165">
        <ele>1810.7805176</ele>
        <time>2013-07-30T08:34:54Z</time>
      </trkpt>
      <trkpt lat="44.30882" lon="6.20158">
        <ele>1811.2612305</ele>
        <time>2013-07-30T08:35:07Z</time>
      </trkpt>
      <trkpt lat="44.30886" lon="6.20144">
        <ele>1812.703125</ele>
        <time>2013-07-30T08:35:25Z</time>
      </trkpt>
      <trkpt lat="44.30887" lon="6.20138">
        <ele>1813.1838379</ele>
        <time>2013-07-30T08:35:41Z</time>
      </trkpt>
      <trkpt lat="44.30889" lon="6.20134">
        <ele>1813.6643066</ele>
        <time>2013-07-30T08:35:44Z</time>
      </trkpt>
      <trkpt lat="44.30894" lon="6.20121">
        <ele>1813.6643066</ele>
        <time>2013-07-30T08:35:58Z</time>
      </trkpt>
      <trkpt lat="44.30902" lon="6.20097">
        <ele>1815.1064453</ele>
        <time>2013-07-30T08:36:17Z</time>
      </trkpt>
      <trkpt lat="44.30911" lon="6.20084">
        <ele>1816.067627</ele>
        <time>2013-07-30T08:36:18Z</time>
      </trkpt>
      <trkpt lat="44.3093" lon="6.20062">
        <ele>1817.0290527</ele>
        <time>2013-07-30T08:36:43Z</time>
      </trkpt>
      <trkpt lat="44.3094" lon="6.20061">
        <ele>1818.4709473</ele>
        <time>2013-07-30T08:36:58Z</time>
      </trkpt>
      <trkpt lat="44.30939" lon="6.2007">
        <ele>1818.9516602</ele>
        <time>2013-07-30T08:37:06Z</time>
      </trkpt>
      <trkpt lat="44.30935" lon="6.20089">
        <ele>1821.3549805</ele>
        <time>2013-07-30T08:37:23Z</time>
      </trkpt>
      <trkpt lat="44.30935" lon="6.201">
        <ele>1822.7971191</ele>
        <time>2013-07-30T08:37:34Z</time>
      </trkpt>
      <trkpt lat="44.30932" lon="6.20115">
        <ele>1824.2390137</ele>
        <time>2013-07-30T08:37:52Z</time>
      </trkpt>
      <trkpt lat="44.30932" lon="6.20129">
        <ele>1826.1616211</ele>
        <time>2013-07-30T08:38:06Z</time>
      </trkpt>
      <trkpt lat="44.30936" lon="6.20143">
        <ele>1829.0454102</ele>
        <time>2013-07-30T08:38:26Z</time>
      </trkpt>
      <trkpt lat="44.30937" lon="6.20158">
        <ele>1832.4101563</ele>
        <time>2013-07-30T08:38:43Z</time>
      </trkpt>
      <trkpt lat="44.30949" lon="6.2017">
        <ele>1835.2939453</ele>
        <time>2013-07-30T08:39:04Z</time>
      </trkpt>
      <trkpt lat="44.30957" lon="6.20181">
        <ele>1837.6975098</ele>
        <time>2013-07-30T08:39:20Z</time>
      </trkpt>
      <trkpt lat="44.3096" lon="6.20197">
        <ele>1840.1008301</ele>
        <time>2013-07-30T08:39:37Z</time>
      </trkpt>
      <trkpt lat="44.30963" lon="6.20209">
        <ele>1842.5041504</ele>
        <time>2013-07-30T08:39:53Z</time>
      </trkpt>
      <trkpt lat="44.30969" lon="6.20222">
        <ele>1843.465332</ele>
        <time>2013-07-30T08:40:06Z</time>
      </trkpt>
      <trkpt lat="44.30972" lon="6.20229">
        <ele>1843.9460449</ele>
        <time>2013-07-30T08:40:13Z</time>
      </trkpt>
      <trkpt lat="44.30973" lon="6.20252">
        <ele>1845.3879395</ele>
        <time>2013-07-30T08:40:32Z</time>
      </trkpt>
      <trkpt lat="44.3097" lon="6.20262">
        <ele>1845.8686523</ele>
        <time>2013-07-30T08:40:51Z</time>
      </trkpt>
      <trkpt lat="44.30971" lon="6.20262">
        <ele>1844.4265137</ele>
        <time>2013-07-30T08:40:57Z</time>
      </trkpt>
      <trkpt lat="44.30973" lon="6.20262">
        <ele>1845.8686523</ele>
        <time>2013-07-30T08:41:39Z</time>
      </trkpt>
      <trkpt lat="44.30972" lon="6.20267">
        <ele>1846.3493652</ele>
        <time>2013-07-30T08:41:43Z</time>
      </trkpt>
      <trkpt lat="44.3097" lon="6.2027">
        <ele>1847.7912598</ele>
        <time>2013-07-30T08:41:45Z</time>
      </trkpt>
      <trkpt lat="44.3097" lon="6.2028">
        <ele>1848.2717285</ele>
        <time>2013-07-30T08:41:51Z</time>
      </trkpt>
      <trkpt lat="44.30967" lon="6.20295">
        <ele>1849.7138672</ele>
        <time>2013-07-30T08:42:06Z</time>
      </trkpt>
      <trkpt lat="44.3096" lon="6.20302">
        <ele>1849.7138672</ele>
        <time>2013-07-30T08:42:12Z</time>
      </trkpt>
      <trkpt lat="44.30958" lon="6.20316">
        <ele>1851.1557617</ele>
        <time>2013-07-30T08:42:26Z</time>
      </trkpt>
      <trkpt lat="44.30957" lon="6.20318">
        <ele>1852.5979004</ele>
        <time>2013-07-30T08:42:29Z</time>
      </trkpt>
      <trkpt lat="44.30953" lon="6.20334">
        <ele>1854.0400391</ele>
        <time>2013-07-30T08:42:45Z</time>
      </trkpt>
      <trkpt lat="44.30951" lon="6.20351">
        <ele>1856.4431152</ele>
        <time>2013-07-30T08:43:01Z</time>
      </trkpt>
      <trkpt lat="44.3095" lon="6.20355">
        <ele>1856.4431152</ele>
        <time>2013-07-30T08:43:04Z</time>
      </trkpt>
      <trkpt lat="44.30947" lon="6.20368">
        <ele>1858.8464355</ele>
        <time>2013-07-30T08:43:20Z</time>
      </trkpt>
      <trkpt lat="44.30941" lon="6.20387">
        <ele>1861.2497559</ele>
        <time>2013-07-30T08:43:39Z</time>
      </trkpt>
      <trkpt lat="44.30938" lon="6.20397">
        <ele>1864.1335449</ele>
        <time>2013-07-30T08:43:56Z</time>
      </trkpt>
      <trkpt lat="44.30929" lon="6.20419">
        <ele>1867.0175781</ele>
        <time>2013-07-30T08:44:17Z</time>
      </trkpt>
      <trkpt lat="44.30927" lon="6.20434">
        <ele>1869.4211426</ele>
        <time>2013-07-30T08:44:35Z</time>
      </trkpt>
      <trkpt lat="44.30921" lon="6.20448">
        <ele>1871.8242188</ele>
        <time>2013-07-30T08:44:51Z</time>
      </trkpt>
      <trkpt lat="44.30915" lon="6.20466">
        <ele>1873.7468262</ele>
        <time>2013-07-30T08:45:08Z</time>
      </trkpt>
      <trkpt lat="44.30909" lon="6.20482">
        <ele>1875.6694336</ele>
        <time>2013-07-30T08:45:25Z</time>
      </trkpt>
      <trkpt lat="44.30903" lon="6.205">
        <ele>1878.0727539</ele>
        <time>2013-07-30T08:45:41Z</time>
      </trkpt>
      <trkpt lat="44.30902" lon="6.20507">
        <ele>1878.0727539</ele>
        <time>2013-07-30T08:45:48Z</time>
      </trkpt>
      <trkpt lat="44.30894" lon="6.20523">
        <ele>1879.9953613</ele>
        <time>2013-07-30T08:46:04Z</time>
      </trkpt>
      <trkpt lat="44.30891" lon="6.20535">
        <ele>1881.4372559</ele>
        <time>2013-07-30T08:46:15Z</time>
      </trkpt>
      <trkpt lat="44.30886" lon="6.20544">
        <ele>1883.3598633</ele>
        <time>2013-07-30T08:46:26Z</time>
      </trkpt>
      <trkpt lat="44.30878" lon="6.20572">
        <ele>1885.2827148</ele>
        <time>2013-07-30T08:46:53Z</time>
      </trkpt>
      <trkpt lat="44.30876" lon="6.20579">
        <ele>1887.6860352</ele>
        <time>2013-07-30T08:47:00Z</time>
      </trkpt>
      <trkpt lat="44.30869" lon="6.20603">
        <ele>1890.5698242</ele>
        <time>2013-07-30T08:47:25Z</time>
      </trkpt>
      <trkpt lat="44.30868" lon="6.20609">
        <ele>1892.0119629</ele>
        <time>2013-07-30T08:47:30Z</time>
      </trkpt>
      <trkpt lat="44.30867" lon="6.20618">
        <ele>1892.4926758</ele>
        <time>2013-07-30T08:47:45Z</time>
      </trkpt>
      <trkpt lat="44.30865" lon="6.20622">
        <ele>1894.4150391</ele>
        <time>2013-07-30T08:47:51Z</time>
      </trkpt>
      <trkpt lat="44.30858" lon="6.20645">
        <ele>1897.2990723</ele>
        <time>2013-07-30T08:48:12Z</time>
      </trkpt>
      <trkpt lat="44.30855" lon="6.20655">
        <ele>1898.7409668</ele>
        <time>2013-07-30T08:48:24Z</time>
      </trkpt>
      <trkpt lat="44.30852" lon="6.20666">
        <ele>1900.1833496</ele>
        <time>2013-07-30T08:48:35Z</time>
      </trkpt>
      <trkpt lat="44.30849" lon="6.20683">
        <ele>1903.5478516</ele>
        <time>2013-07-30T08:48:52Z</time>
      </trkpt>
      <trkpt lat="44.30842" lon="6.20708">
        <ele>1904.0285645</ele>
        <time>2013-07-30T08:49:17Z</time>
      </trkpt>
      <trkpt lat="44.30837" lon="6.20725">
        <ele>1906.9123535</ele>
        <time>2013-07-30T08:49:36Z</time>
      </trkpt>
      <trkpt lat="44.30832" lon="6.20745">
        <ele>1908.8349609</ele>
        <time>2013-07-30T08:49:56Z</time>
      </trkpt>
      <trkpt lat="44.30832" lon="6.20747">
        <ele>1910.7575684</ele>
        <time>2013-07-30T08:49:58Z</time>
      </trkpt>
      <trkpt lat="44.30827" lon="6.20768">
        <ele>1912.6801758</ele>
        <time>2013-07-30T08:50:22Z</time>
      </trkpt>
      <trkpt lat="44.30826" lon="6.20779">
        <ele>1916.0449219</ele>
        <time>2013-07-30T08:50:36Z</time>
      </trkpt>
      <trkpt lat="44.30823" lon="6.20791">
        <ele>1918.9289551</ele>
        <time>2013-07-30T08:50:55Z</time>
      </trkpt>
      <trkpt lat="44.30821" lon="6.20809">
        <ele>1922.293457</ele>
        <time>2013-07-30T08:51:14Z</time>
      </trkpt>
      <trkpt lat="44.30818" lon="6.20827">
        <ele>1924.6967773</ele>
        <time>2013-07-30T08:51:34Z</time>
      </trkpt>
      <trkpt lat="44.30815" lon="6.20842">
        <ele>1927.5805664</ele>
        <time>2013-07-30T08:51:56Z</time>
      </trkpt>
      <trkpt lat="44.30812" lon="6.20856">
        <ele>1931.4257813</ele>
        <time>2013-07-30T08:52:16Z</time>
      </trkpt>
      <trkpt lat="44.30808" lon="6.20874">
        <ele>1934.3100586</ele>
        <time>2013-07-30T08:52:40Z</time>
      </trkpt>
      <trkpt lat="44.30803" lon="6.20884">
        <ele>1937.6745605</ele>
        <time>2013-07-30T08:53:01Z</time>
      </trkpt>
      <trkpt lat="44.30797" lon="6.20898">
        <ele>1941.0390625</ele>
        <time>2013-07-30T08:53:19Z</time>
      </trkpt>
      <trkpt lat="44.30792" lon="6.2091">
        <ele>1944.4035645</ele>
        <time>2013-07-30T08:53:37Z</time>
      </trkpt>
      <trkpt lat="44.30787" lon="6.20925">
        <ele>1945.8457031</ele>
        <time>2013-07-30T08:53:57Z</time>
      </trkpt>
      <trkpt lat="44.30783" lon="6.2094">
        <ele>1947.2875977</ele>
        <time>2013-07-30T08:54:30Z</time>
      </trkpt>
      <trkpt lat="44.30778" lon="6.2096">
        <ele>1950.171875</ele>
        <time>2013-07-30T08:54:51Z</time>
      </trkpt>
      <trkpt lat="44.30774" lon="6.20977">
        <ele>1954.0170898</ele>
        <time>2013-07-30T08:55:10Z</time>
      </trkpt>
      <trkpt lat="44.30774" lon="6.20978">
        <ele>1954.0170898</ele>
        <time>2013-07-30T08:55:11Z</time>
      </trkpt>
      <trkpt lat="44.30772" lon="6.20984">
        <ele>1956.420166</ele>
        <time>2013-07-30T08:55:18Z</time>
      </trkpt>
      <trkpt lat="44.30769" lon="6.2099">
        <ele>1958.3427734</ele>
        <time>2013-07-30T08:55:27Z</time>
      </trkpt>
      <trkpt lat="44.30768" lon="6.20997">
        <ele>1959.784668</ele>
        <time>2013-07-30T08:55:36Z</time>
      </trkpt>
      <trkpt lat="44.30759" lon="6.21017">
        <ele>1961.2268066</ele>
        <time>2013-07-30T08:56:04Z</time>
      </trkpt>
      <trkpt lat="44.30757" lon="6.2102">
        <ele>1963.1494141</ele>
        <time>2013-07-30T08:56:09Z</time>
      </trkpt>
      <trkpt lat="44.30756" lon="6.21028">
        <ele>1965.0722656</ele>
        <time>2013-07-30T08:56:24Z</time>
      </trkpt>
      <trkpt lat="44.30754" lon="6.21035">
        <ele>1967.4753418</ele>
        <time>2013-07-30T08:56:37Z</time>
      </trkpt>
      <trkpt lat="44.30752" lon="6.21046">
        <ele>1969.3981934</ele>
        <time>2013-07-30T08:56:55Z</time>
      </trkpt>
      <trkpt lat="44.30748" lon="6.21054">
        <ele>1972.7626953</ele>
        <time>2013-07-30T08:57:11Z</time>
      </trkpt>
      <trkpt lat="44.30746" lon="6.21062">
        <ele>1975.6464844</ele>
        <time>2013-07-30T08:57:29Z</time>
      </trkpt>
      <trkpt lat="44.30742" lon="6.21071">
        <ele>1978.5305176</ele>
        <time>2013-07-30T08:57:45Z</time>
      </trkpt>
      <trkpt lat="44.30739" lon="6.21085">
        <ele>1980.4533691</ele>
        <time>2013-07-30T08:58:03Z</time>
      </trkpt>
      <trkpt lat="44.30735" lon="6.21095">
        <ele>1983.3371582</ele>
        <time>2013-07-30T08:58:23Z</time>
      </trkpt>
      <trkpt lat="44.30732" lon="6.2111">
        <ele>1986.2211914</ele>
        <time>2013-07-30T08:58:45Z</time>
      </trkpt>
      <trkpt lat="44.30728" lon="6.21124">
        <ele>1989.5856934</ele>
        <time>2013-07-30T08:59:06Z</time>
      </trkpt>
      <trkpt lat="44.30726" lon="6.21135">
        <ele>1992.4697266</ele>
        <time>2013-07-30T08:59:23Z</time>
      </trkpt>
      <trkpt lat="44.30724" lon="6.21143">
        <ele>1996.3151855</ele>
        <time>2013-07-30T08:59:43Z</time>
      </trkpt>
      <trkpt lat="44.30719" lon="6.21154">
        <ele>1999.1989746</ele>
        <time>2013-07-30T09:00:06Z</time>
      </trkpt>
      <trkpt lat="44.30716" lon="6.21162">
        <ele>2002.5634766</ele>
        <time>2013-07-30T09:00:23Z</time>
      </trkpt>
      <trkpt lat="44.30714" lon="6.21166">
        <ele>2004.0056152</ele>
        <time>2013-07-30T09:00:31Z</time>
      </trkpt>
      <trkpt lat="44.30714" lon="6.21169">
        <ele>2005.4475098</ele>
        <time>2013-07-30T09:00:37Z</time>
      </trkpt>
      <trkpt lat="44.30712" lon="6.21178">
        <ele>2008.3312988</ele>
        <time>2013-07-30T09:00:58Z</time>
      </trkpt>
      <trkpt lat="44.30708" lon="6.21184">
        <ele>2010.7346191</ele>
        <time>2013-07-30T09:01:10Z</time>
      </trkpt>
      <trkpt lat="44.30704" lon="6.21195">
        <ele>2012.6574707</ele>
        <time>2013-07-30T09:01:29Z</time>
      </trkpt>
      <trkpt lat="44.30699" lon="6.21203">
        <ele>2013.6186523</ele>
        <time>2013-07-30T09:01:47Z</time>
      </trkpt>
      <trkpt lat="44.30697" lon="6.21212">
        <ele>2016.9833984</ele>
        <time>2013-07-30T09:02:04Z</time>
      </trkpt>
      <trkpt lat="44.30691" lon="6.2123">
        <ele>2018.425293</ele>
        <time>2013-07-30T09:02:36Z</time>
      </trkpt>
      <trkpt lat="44.3069" lon="6.21234">
        <ele>2019.8671875</ele>
        <time>2013-07-30T09:02:40Z</time>
      </trkpt>
      <trkpt lat="44.3069" lon="6.21236">
        <ele>2018.9060059</ele>
        <time>2013-07-30T09:02:43Z</time>
      </trkpt>
      <trkpt lat="44.30689" lon="6.2124">
        <ele>2020.8286133</ele>
        <time>2013-07-30T09:02:52Z</time>
      </trkpt>
      <trkpt lat="44.30689" lon="6.2124">
        <ele>2022.2705078</ele>
        <time>2013-07-30T09:02:54Z</time>
      </trkpt>
      <trkpt lat="44.30687" lon="6.2125">
        <ele>2026.1157227</ele>
        <time>2013-07-30T09:03:16Z</time>
      </trkpt>
      <trkpt lat="44.30687" lon="6.2125">
        <ele>2026.1157227</ele>
        <time>2013-07-30T09:03:17Z</time>
      </trkpt>
      <trkpt lat="44.30685" lon="6.21257">
        <ele>2030.4418945</ele>
        <time>2013-07-30T09:03:37Z</time>
      </trkpt>
      <trkpt lat="44.30684" lon="6.21258">
        <ele>2030.4418945</ele>
        <time>2013-07-30T09:03:38Z</time>
      </trkpt>
      <trkpt lat="44.30682" lon="6.21269">
        <ele>2033.8063965</ele>
        <time>2013-07-30T09:04:02Z</time>
      </trkpt>
      <trkpt lat="44.3068" lon="6.21278">
        <ele>2036.6901855</ele>
        <time>2013-07-30T09:04:23Z</time>
      </trkpt>
      <trkpt lat="44.30679" lon="6.21288">
        <ele>2039.5742188</ele>
        <time>2013-07-30T09:04:42Z</time>
      </trkpt>
      <trkpt lat="44.30677" lon="6.21293">
        <ele>2041.4968262</ele>
        <time>2013-07-30T09:04:56Z</time>
      </trkpt>
      <trkpt lat="44.30675" lon="6.21296">
        <ele>2044.3808594</ele>
        <time>2013-07-30T09:05:10Z</time>
      </trkpt>
      <trkpt lat="44.3067" lon="6.21303">
        <ele>2047.7456055</ele>
        <time>2013-07-30T09:05:31Z</time>
      </trkpt>
      <trkpt lat="44.3067" lon="6.21309">
        <ele>2049.6682129</ele>
        <time>2013-07-30T09:05:48Z</time>
      </trkpt>
      <trkpt lat="44.30669" lon="6.21314">
        <ele>2052.552002</ele>
        <time>2013-07-30T09:06:03Z</time>
      </trkpt>
      <trkpt lat="44.30669" lon="6.21324">
        <ele>2055.9165039</ele>
        <time>2013-07-30T09:06:26Z</time>
      </trkpt>
      <trkpt lat="44.30675" lon="6.21331">
        <ele>2057.8393555</ele>
        <time>2013-07-30T09:06:46Z</time>
      </trkpt>
      <trkpt lat="44.30686" lon="6.21355">
        <ele>2060.2426758</ele>
        <time>2013-07-30T09:07:16Z</time>
      </trkpt>
      <trkpt lat="44.30687" lon="6.2136">
        <ele>2061.2041016</ele>
        <time>2013-07-30T09:07:35Z</time>
      </trkpt>
      <trkpt lat="44.30688" lon="6.21359">
        <ele>2062.1652832</ele>
        <time>2013-07-30T09:09:02Z</time>
      </trkpt>
      <trkpt lat="44.30688" lon="6.21359">
        <ele>2061.2041016</ele>
        <time>2013-07-30T09:09:12Z</time>
      </trkpt>
      <trkpt lat="44.30688" lon="6.21359">
        <ele>2061.2041016</ele>
        <time>2013-07-30T09:09:53Z</time>
      </trkpt>
      <trkpt lat="44.30688" lon="6.21359">
        <ele>2062.1652832</ele>
        <time>2013-07-30T09:10:24Z</time>
      </trkpt>
      <trkpt lat="44.30688" lon="6.21359">
        <ele>2060.2426758</ele>
        <time>2013-07-30T09:10:26Z</time>
      </trkpt>
      <trkpt lat="44.30688" lon="6.21359">
        <ele>2062.1652832</ele>
        <time>2013-07-30T09:10:28Z</time>
      </trkpt>
      <trkpt lat="44.30688" lon="6.21358">
        <ele>2063.6071777</ele>
        <time>2013-07-30T09:11:17Z</time>
      </trkpt>
      <trkpt lat="44.30688" lon="6.21358">
        <ele>2062.1652832</ele>
        <time>2013-07-30T09:12:01Z</time>
      </trkpt>
      <trkpt lat="44.30688" lon="6.21358">
        <ele>2063.126709</ele>
        <time>2013-07-30T09:18:34Z</time>
      </trkpt>
      <trkpt lat="44.30688" lon="6.21358">
        <ele>2063.6071777</ele>
        <time>2013-07-30T09:19:27Z</time>
      </trkpt>
      <trkpt lat="44.30688" lon="6.21359">
        <ele>2065.5300293</ele>
        <time>2013-07-30T09:20:45Z</time>
      </trkpt>
      <trkpt lat="44.30687" lon="6.21356">
        <ele>2064.5686035</ele>
        <time>2013-07-30T09:21:17Z</time>
      </trkpt>
      <trkpt lat="44.30687" lon="6.21356">
        <ele>2063.126709</ele>
        <time>2013-07-30T09:21:19Z</time>
      </trkpt>
      <trkpt lat="44.30684" lon="6.21351">
        <ele>2063.126709</ele>
        <time>2013-07-30T09:21:28Z</time>
      </trkpt>
      <trkpt lat="44.30681" lon="6.21346">
        <ele>2062.1652832</ele>
        <time>2013-07-30T09:21:33Z</time>
      </trkpt>
      <trkpt lat="44.3067" lon="6.21328">
        <ele>2059.7617188</ele>
        <time>2013-07-30T09:22:02Z</time>
      </trkpt>
      <trkpt lat="44.30665" lon="6.21325">
        <ele>2060.7233887</ele>
        <time>2013-07-30T09:22:09Z</time>
      </trkpt>
      <trkpt lat="44.30656" lon="6.2132">
        <ele>2058.3198242</ele>
        <time>2013-07-30T09:22:26Z</time>
      </trkpt>
      <trkpt lat="44.30656" lon="6.21319">
        <ele>2056.8779297</ele>
        <time>2013-07-30T09:22:31Z</time>
      </trkpt>
      <trkpt lat="44.30651" lon="6.21319">
        <ele>2053.5134277</ele>
        <time>2013-07-30T09:22:46Z</time>
      </trkpt>
      <trkpt lat="44.30644" lon="6.21316">
        <ele>2053.9941406</ele>
        <time>2013-07-30T09:23:01Z</time>
      </trkpt>
      <trkpt lat="44.30643" lon="6.21318">
        <ele>2052.0712891</ele>
        <time>2013-07-30T09:23:05Z</time>
      </trkpt>
      <trkpt lat="44.30638" lon="6.21318">
        <ele>2048.7067871</ele>
        <time>2013-07-30T09:23:29Z</time>
      </trkpt>
      <trkpt lat="44.30632" lon="6.21315">
        <ele>2045.3422852</ele>
        <time>2013-07-30T09:23:57Z</time>
      </trkpt>
      <trkpt lat="44.30624" lon="6.2131">
        <ele>2041.9775391</ele>
        <time>2013-07-30T09:24:18Z</time>
      </trkpt>
      <trkpt lat="44.30615" lon="6.2131">
        <ele>2039.0935059</ele>
        <time>2013-07-30T09:24:57Z</time>
      </trkpt>
      <trkpt lat="44.30606" lon="6.21308">
        <ele>2036.2097168</ele>
        <time>2013-07-30T09:25:18Z</time>
      </trkpt>
      <trkpt lat="44.30598" lon="6.21307">
        <ele>2032.8449707</ele>
        <time>2013-07-30T09:25:39Z</time>
      </trkpt>
      <trkpt lat="44.30588" lon="6.21305">
        <ele>2029.9611816</ele>
        <time>2013-07-30T09:25:58Z</time>
      </trkpt>
      <trkpt lat="44.30581" lon="6.21305">
        <ele>2026.5964355</ele>
        <time>2013-07-30T09:26:14Z</time>
      </trkpt>
      <trkpt lat="44.30568" lon="6.21302">
        <ele>2023.7124023</ele>
        <time>2013-07-30T09:26:33Z</time>
      </trkpt>
      <trkpt lat="44.30556" lon="6.21301">
        <ele>2020.3479004</ele>
        <time>2013-07-30T09:26:49Z</time>
      </trkpt>
      <trkpt lat="44.30549" lon="6.21301">
        <ele>2016.9833984</ele>
        <time>2013-07-30T09:27:07Z</time>
      </trkpt>
      <trkpt lat="44.3054" lon="6.21301">
        <ele>2014.5800781</ele>
        <time>2013-07-30T09:27:18Z</time>
      </trkpt>
      <trkpt lat="44.30524" lon="6.21298">
        <ele>2011.215332</ele>
        <time>2013-07-30T09:27:37Z</time>
      </trkpt>
      <trkpt lat="44.30513" lon="6.21295">
        <ele>2007.8508301</ele>
        <time>2013-07-30T09:27:51Z</time>
      </trkpt>
      <trkpt lat="44.30499" lon="6.21299">
        <ele>2004.486084</ele>
        <time>2013-07-30T09:28:10Z</time>
      </trkpt>
      <trkpt lat="44.3048" lon="6.21297">
        <ele>2002.0827637</ele>
        <time>2013-07-30T09:28:32Z</time>
      </trkpt>
      <trkpt lat="44.3047" lon="6.21301">
        <ele>1999.1989746</ele>
        <time>2013-07-30T09:28:52Z</time>
      </trkpt>
      <trkpt lat="44.30458" lon="6.21298">
        <ele>1995.8342285</ele>
        <time>2013-07-30T09:29:12Z</time>
      </trkpt>
      <trkpt lat="44.30451" lon="6.21298">
        <ele>1992.9501953</ele>
        <time>2013-07-30T09:29:36Z</time>
      </trkpt>
      <trkpt lat="44.30441" lon="6.21302">
        <ele>1989.1049805</ele>
        <time>2013-07-30T09:29:56Z</time>
      </trkpt>
      <trkpt lat="44.30426" lon="6.21306">
        <ele>1987.6630859</ele>
        <time>2013-07-30T09:30:16Z</time>
      </trkpt>
      <trkpt lat="44.30409" lon="6.21308">
        <ele>1987.182373</ele>
        <time>2013-07-30T09:30:34Z</time>
      </trkpt>
      <trkpt lat="44.30402" lon="6.21306">
        <ele>1984.7792969</ele>
        <time>2013-07-30T09:30:53Z</time>
      </trkpt>
      <trkpt lat="44.304" lon="6.21306">
        <ele>1984.298584</ele>
        <time>2013-07-30T09:31:46Z</time>
      </trkpt>
      <trkpt lat="44.30399" lon="6.21304">
        <ele>1983.8178711</ele>
        <time>2013-07-30T09:32:15Z</time>
      </trkpt>
      <trkpt lat="44.30397" lon="6.21301">
        <ele>1982.8564453</ele>
        <time>2013-07-30T09:32:37Z</time>
      </trkpt>
      <trkpt lat="44.30398" lon="6.213">
        <ele>1982.8564453</ele>
        <time>2013-07-30T09:33:32Z</time>
      </trkpt>
      <trkpt lat="44.30402" lon="6.21305">
        <ele>1984.298584</ele>
        <time>2013-07-30T09:33:58Z</time>
      </trkpt>
      <trkpt lat="44.30393" lon="6.21313">
        <ele>1983.8178711</ele>
        <time>2013-07-30T09:34:22Z</time>
      </trkpt>
      <trkpt lat="44.30376" lon="6.21309">
        <ele>1983.8178711</ele>
        <time>2013-07-30T09:34:40Z</time>
      </trkpt>
      <trkpt lat="44.3035" lon="6.21299">
        <ele>1982.8564453</ele>
        <time>2013-07-30T09:35:06Z</time>
      </trkpt>
      <trkpt lat="44.30348" lon="6.21298">
        <ele>1985.2597656</ele>
        <time>2013-07-30T09:35:08Z</time>
      </trkpt>
      <trkpt lat="44.30325" lon="6.21286">
        <ele>1983.8178711</ele>
        <time>2013-07-30T09:35:33Z</time>
      </trkpt>
      <trkpt lat="44.30302" lon="6.21272">
        <ele>1980.934082</ele>
        <time>2013-07-30T09:35:58Z</time>
      </trkpt>
      <trkpt lat="44.30282" lon="6.2127">
        <ele>1981.8952637</ele>
        <time>2013-07-30T09:36:20Z</time>
      </trkpt>
      <trkpt lat="44.30266" lon="6.21276">
        <ele>1984.298584</ele>
        <time>2013-07-30T09:36:38Z</time>
      </trkpt>
      <trkpt lat="44.30245" lon="6.21284">
        <ele>1984.298584</ele>
        <time>2013-07-30T09:37:03Z</time>
      </trkpt>
      <trkpt lat="44.30238" lon="6.21284">
        <ele>1984.7792969</ele>
        <time>2013-07-30T09:37:11Z</time>
      </trkpt>
      <trkpt lat="44.30211" lon="6.21293">
        <ele>1983.8178711</ele>
        <time>2013-07-30T09:37:39Z</time>
      </trkpt>
      <trkpt lat="44.30193" lon="6.21299">
        <ele>1981.8952637</ele>
        <time>2013-07-30T09:37:59Z</time>
      </trkpt>
      <trkpt lat="44.3019" lon="6.213">
        <ele>1981.8952637</ele>
        <time>2013-07-30T09:38:02Z</time>
      </trkpt>
      <trkpt lat="44.30167" lon="6.21306">
        <ele>1979.4916992</ele>
        <time>2013-07-30T09:38:28Z</time>
      </trkpt>
      <trkpt lat="44.30156" lon="6.21306">
        <ele>1977.088623</ele>
        <time>2013-07-30T09:38:40Z</time>
      </trkpt>
      <trkpt lat="44.30138" lon="6.2131">
        <ele>1975.6464844</ele>
        <time>2013-07-30T09:39:01Z</time>
      </trkpt>
      <trkpt lat="44.3012" lon="6.21317">
        <ele>1975.6464844</ele>
        <time>2013-07-30T09:39:21Z</time>
      </trkpt>
      <trkpt lat="44.30102" lon="6.21328">
        <ele>1974.2045898</ele>
        <time>2013-07-30T09:39:42Z</time>
      </trkpt>
      <trkpt lat="44.30076" lon="6.21344">
        <ele>1974.6853027</ele>
        <time>2013-07-30T09:40:10Z</time>
      </trkpt>
      <trkpt lat="44.30069" lon="6.21351">
        <ele>1975.6464844</ele>
        <time>2013-07-30T09:40:25Z</time>
      </trkpt>
      <trkpt lat="44.30045" lon="6.21356">
        <ele>1978.0498047</ele>
        <time>2013-07-30T09:40:52Z</time>
      </trkpt>
      <trkpt lat="44.30037" lon="6.21355">
        <ele>1979.0109863</ele>
        <time>2013-07-30T09:41:12Z</time>
      </trkpt>
      <trkpt lat="44.30025" lon="6.21356">
        <ele>1979.9724121</ele>
        <time>2013-07-30T09:41:41Z</time>
      </trkpt>
      <trkpt lat="44.30005" lon="6.21353">
        <ele>1981.4145508</ele>
        <time>2013-07-30T09:42:02Z</time>
      </trkpt>
      <trkpt lat="44.2999" lon="6.21357">
        <ele>1984.298584</ele>
        <time>2013-07-30T09:42:22Z</time>
      </trkpt>
      <trkpt lat="44.29973" lon="6.21355">
        <ele>1988.1437988</ele>
        <time>2013-07-30T09:42:47Z</time>
      </trkpt>
      <trkpt lat="44.29961" lon="6.21353">
        <ele>1989.5856934</ele>
        <time>2013-07-30T09:43:04Z</time>
      </trkpt>
      <trkpt lat="44.29945" lon="6.21345">
        <ele>1991.0275879</ele>
        <time>2013-07-30T09:43:27Z</time>
      </trkpt>
      <trkpt lat="44.29928" lon="6.21337">
        <ele>1993.9116211</ele>
        <time>2013-07-30T09:43:52Z</time>
      </trkpt>
      <trkpt lat="44.29913" lon="6.21327">
        <ele>1996.7956543</ele>
        <time>2013-07-30T09:44:19Z</time>
      </trkpt>
      <trkpt lat="44.29899" lon="6.21314">
        <ele>1999.6796875</ele>
        <time>2013-07-30T09:44:45Z</time>
      </trkpt>
      <trkpt lat="44.29887" lon="6.21307">
        <ele>2003.0441895</ele>
        <time>2013-07-30T09:45:07Z</time>
      </trkpt>
      <trkpt lat="44.29873" lon="6.21293">
        <ele>2006.4086914</ele>
        <time>2013-07-30T09:45:34Z</time>
      </trkpt>
      <trkpt lat="44.29857" lon="6.2128">
        <ele>2009.2927246</ele>
        <time>2013-07-30T09:46:05Z</time>
      </trkpt>
      <trkpt lat="44.29844" lon="6.2127">
        <ele>2011.6960449</ele>
        <time>2013-07-30T09:46:29Z</time>
      </trkpt>
      <trkpt lat="44.29828" lon="6.21258">
        <ele>2014.5800781</ele>
        <time>2013-07-30T09:47:00Z</time>
      </trkpt>
      <trkpt lat="44.29812" lon="6.2125">
        <ele>2017.9445801</ele>
        <time>2013-07-30T09:47:32Z</time>
      </trkpt>
      <trkpt lat="44.29801" lon="6.21246">
        <ele>2021.309082</ele>
        <time>2013-07-30T09:47:56Z</time>
      </trkpt>
      <trkpt lat="44.29789" lon="6.21245">
        <ele>2024.1931152</ele>
        <time>2013-07-30T09:48:23Z</time>
      </trkpt>
      <trkpt lat="44.29779" lon="6.21245">
        <ele>2027.5576172</ele>
        <time>2013-07-30T09:48:47Z</time>
      </trkpt>
      <trkpt lat="44.29771" lon="6.21245">
        <ele>2030.9226074</ele>
        <time>2013-07-30T09:49:07Z</time>
      </trkpt>
      <trkpt lat="44.29763" lon="6.21246">
        <ele>2033.8063965</ele>
        <time>2013-07-30T09:49:30Z</time>
      </trkpt>
      <trkpt lat="44.29755" lon="6.21248">
        <ele>2037.6516113</ele>
        <time>2013-07-30T09:49:54Z</time>
      </trkpt>
      <trkpt lat="44.29751" lon="6.21248">
        <ele>2039.0935059</ele>
        <time>2013-07-30T09:50:11Z</time>
      </trkpt>
      <trkpt lat="44.29745" lon="6.21249">
        <ele>2042.458252</ele>
        <time>2013-07-30T09:50:31Z</time>
      </trkpt>
      <trkpt lat="44.29735" lon="6.21249">
        <ele>2045.822998</ele>
        <time>2013-07-30T09:50:58Z</time>
      </trkpt>
      <trkpt lat="44.29729" lon="6.21249">
        <ele>2049.1875</ele>
        <time>2013-07-30T09:51:24Z</time>
      </trkpt>
      <trkpt lat="44.29722" lon="6.21249">
        <ele>2050.1489258</ele>
        <time>2013-07-30T09:51:46Z</time>
      </trkpt>
      <trkpt lat="44.29722" lon="6.21248">
        <ele>2049.6682129</ele>
        <time>2013-07-30T09:52:00Z</time>
      </trkpt>
      <trkpt lat="44.2972" lon="6.21247">
        <ele>2051.1101074</ele>
        <time>2013-07-30T09:52:14Z</time>
      </trkpt>
      <trkpt lat="44.29718" lon="6.21245">
        <ele>2051.5908203</ele>
        <time>2013-07-30T09:52:21Z</time>
      </trkpt>
      <trkpt lat="44.29713" lon="6.21247">
        <ele>2054.4746094</ele>
        <time>2013-07-30T09:52:40Z</time>
      </trkpt>
      <trkpt lat="44.29706" lon="6.21249">
        <ele>2056.8779297</ele>
        <time>2013-07-30T09:52:57Z</time>
      </trkpt>
      <trkpt lat="44.29701" lon="6.2125">
        <ele>2058.8005371</ele>
        <time>2013-07-30T09:53:14Z</time>
      </trkpt>
      <trkpt lat="44.29691" lon="6.21248">
        <ele>2062.1652832</ele>
        <time>2013-07-30T09:53:38Z</time>
      </trkpt>
      <trkpt lat="44.29687" lon="6.21247">
        <ele>2065.0493164</ele>
        <time>2013-07-30T09:53:54Z</time>
      </trkpt>
      <trkpt lat="44.29681" lon="6.21248">
        <ele>2066.9719238</ele>
        <time>2013-07-30T09:54:13Z</time>
      </trkpt>
      <trkpt lat="44.29679" lon="6.2125">
        <ele>2069.8557129</ele>
        <time>2013-07-30T09:54:26Z</time>
      </trkpt>
      <trkpt lat="44.29675" lon="6.21253">
        <ele>2071.7783203</ele>
        <time>2013-07-30T09:54:41Z</time>
      </trkpt>
      <trkpt lat="44.29675" lon="6.21252">
        <ele>2071.7783203</ele>
        <time>2013-07-30T09:54:42Z</time>
      </trkpt>
      <trkpt lat="44.29674" lon="6.21254">
        <ele>2073.220459</ele>
        <time>2013-07-30T09:54:57Z</time>
      </trkpt>
      <trkpt lat="44.29671" lon="6.21257">
        <ele>2075.6235352</ele>
        <time>2013-07-30T09:55:13Z</time>
      </trkpt>
      <trkpt lat="44.29667" lon="6.21262">
        <ele>2078.5078125</ele>
        <time>2013-07-30T09:55:33Z</time>
      </trkpt>
      <trkpt lat="44.29662" lon="6.2126">
        <ele>2080.4304199</ele>
        <time>2013-07-30T09:55:49Z</time>
      </trkpt>
      <trkpt lat="44.2966" lon="6.21262">
        <ele>2082.3530273</ele>
        <time>2013-07-30T09:56:01Z</time>
      </trkpt>
      <trkpt lat="44.29653" lon="6.21265">
        <ele>2085.7175293</ele>
        <time>2013-07-30T09:56:22Z</time>
      </trkpt>
      <trkpt lat="44.29642" lon="6.2126">
        <ele>2089.0820313</ele>
        <time>2013-07-30T09:56:48Z</time>
      </trkpt>
      <trkpt lat="44.29635" lon="6.2126">
        <ele>2091.9660645</ele>
        <time>2013-07-30T09:57:09Z</time>
      </trkpt>
      <trkpt lat="44.29629" lon="6.2126">
        <ele>2094.8500977</ele>
        <time>2013-07-30T09:57:31Z</time>
      </trkpt>
      <trkpt lat="44.29621" lon="6.21258">
        <ele>2098.2145996</ele>
        <time>2013-07-30T09:57:53Z</time>
      </trkpt>
      <trkpt lat="44.29611" lon="6.2125">
        <ele>2101.5793457</ele>
        <time>2013-07-30T09:58:20Z</time>
      </trkpt>
      <trkpt lat="44.29604" lon="6.21244">
        <ele>2104.9438477</ele>
        <time>2013-07-30T09:58:42Z</time>
      </trkpt>
      <trkpt lat="44.29599" lon="6.21233">
        <ele>2105.9050293</ele>
        <time>2013-07-30T09:59:03Z</time>
      </trkpt>
      <trkpt lat="44.29591" lon="6.21228">
        <ele>2105.4245605</ele>
        <time>2013-07-30T09:59:24Z</time>
      </trkpt>
      <trkpt lat="44.29591" lon="6.21228">
        <ele>2106.3857422</ele>
        <time>2013-07-30T10:00:20Z</time>
      </trkpt>
      <trkpt lat="44.29591" lon="6.21228">
        <ele>2106.8664551</ele>
        <time>2013-07-30T10:01:12Z</time>
      </trkpt>
      <trkpt lat="44.29591" lon="6.21228">
        <ele>2105.9050293</ele>
        <time>2013-07-30T10:02:11Z</time>
      </trkpt>
      <trkpt lat="44.29592" lon="6.21226">
        <ele>2105.4245605</ele>
        <time>2013-07-30T10:02:48Z</time>
      </trkpt>
      <trkpt lat="44.29589" lon="6.21224">
        <ele>2103.982666</ele>
        <time>2013-07-30T10:03:23Z</time>
      </trkpt>
      <trkpt lat="44.29579" lon="6.21222">
        <ele>2102.5405273</ele>
        <time>2013-07-30T10:03:42Z</time>
      </trkpt>
      <trkpt lat="44.29578" lon="6.21222">
        <ele>2101.0986328</ele>
        <time>2013-07-30T10:03:44Z</time>
      </trkpt>
      <trkpt lat="44.29574" lon="6.21222">
        <ele>2098.6953125</ele>
        <time>2013-07-30T10:03:51Z</time>
      </trkpt>
      <trkpt lat="44.29564" lon="6.21223">
        <ele>2096.2922363</ele>
        <time>2013-07-30T10:04:11Z</time>
      </trkpt>
      <trkpt lat="44.2956" lon="6.21224">
        <ele>2095.3308105</ele>
        <time>2013-07-30T10:04:34Z</time>
      </trkpt>
      <trkpt lat="44.29554" lon="6.21227">
        <ele>2092.9274902</ele>
        <time>2013-07-30T10:04:44Z</time>
      </trkpt>
      <trkpt lat="44.29549" lon="6.21228">
        <ele>2091.9660645</ele>
        <time>2013-07-30T10:04:51Z</time>
      </trkpt>
      <trkpt lat="44.29545" lon="6.2123">
        <ele>2092.9274902</ele>
        <time>2013-07-30T10:05:00Z</time>
      </trkpt>
      <trkpt lat="44.29541" lon="6.21231">
        <ele>2092.4470215</ele>
        <time>2013-07-30T10:05:25Z</time>
      </trkpt>
      <trkpt lat="44.29532" lon="6.21234">
        <ele>2089.5627441</ele>
        <time>2013-07-30T10:05:43Z</time>
      </trkpt>
      <trkpt lat="44.29523" lon="6.21238">
        <ele>2086.1982422</ele>
        <time>2013-07-30T10:06:04Z</time>
      </trkpt>
      <trkpt lat="44.29516" lon="6.21243">
        <ele>2083.314209</ele>
        <time>2013-07-30T10:06:25Z</time>
      </trkpt>
      <trkpt lat="44.29508" lon="6.21248">
        <ele>2079.949707</ele>
        <time>2013-07-30T10:06:54Z</time>
      </trkpt>
      <trkpt lat="44.29503" lon="6.2125">
        <ele>2077.5463867</ele>
        <time>2013-07-30T10:07:20Z</time>
      </trkpt>
      <trkpt lat="44.29501" lon="6.21248">
        <ele>2076.1044922</ele>
        <time>2013-07-30T10:07:42Z</time>
      </trkpt>
      <trkpt lat="44.29496" lon="6.2125">
        <ele>2073.7009277</ele>
        <time>2013-07-30T10:08:01Z</time>
      </trkpt>
      <trkpt lat="44.29492" lon="6.21254">
        <ele>2071.7783203</ele>
        <time>2013-07-30T10:08:23Z</time>
      </trkpt>
      <trkpt lat="44.29488" lon="6.21254">
        <ele>2069.3752441</ele>
        <time>2013-07-30T10:08:42Z</time>
      </trkpt>
      <trkpt lat="44.29482" lon="6.21255">
        <ele>2066.9719238</ele>
        <time>2013-07-30T10:09:07Z</time>
      </trkpt>
      <trkpt lat="44.29478" lon="6.21258">
        <ele>2063.6071777</ele>
        <time>2013-07-30T10:09:28Z</time>
      </trkpt>
      <trkpt lat="44.29471" lon="6.21263">
        <ele>2060.2426758</ele>
        <time>2013-07-30T10:09:51Z</time>
      </trkpt>
      <trkpt lat="44.29468" lon="6.21265">
        <ele>2059.28125</ele>
        <time>2013-07-30T10:10:10Z</time>
      </trkpt>
      <trkpt lat="44.29464" lon="6.21268">
        <ele>2057.8393555</ele>
        <time>2013-07-30T10:10:36Z</time>
      </trkpt>
      <trkpt lat="44.29457" lon="6.21269">
        <ele>2053.9941406</ele>
        <time>2013-07-30T10:10:55Z</time>
      </trkpt>
      <trkpt lat="44.29447" lon="6.21276">
        <ele>2051.1101074</ele>
        <time>2013-07-30T10:11:14Z</time>
      </trkpt>
      <trkpt lat="44.2944" lon="6.21282">
        <ele>2047.7456055</ele>
        <time>2013-07-30T10:11:32Z</time>
      </trkpt>
      <trkpt lat="44.29433" lon="6.21286">
        <ele>2044.3808594</ele>
        <time>2013-07-30T10:11:51Z</time>
      </trkpt>
      <trkpt lat="44.29427" lon="6.21289">
        <ele>2041.4968262</ele>
        <time>2013-07-30T10:12:07Z</time>
      </trkpt>
      <trkpt lat="44.2942" lon="6.21298">
        <ele>2038.1323242</ele>
        <time>2013-07-30T10:12:26Z</time>
      </trkpt>
      <trkpt lat="44.29413" lon="6.21309">
        <ele>2035.248291</ele>
        <time>2013-07-30T10:12:47Z</time>
      </trkpt>
      <trkpt lat="44.29406" lon="6.2132">
        <ele>2031.8837891</ele>
        <time>2013-07-30T10:13:07Z</time>
      </trkpt>
      <trkpt lat="44.29396" lon="6.21337">
        <ele>2028.9997559</ele>
        <time>2013-07-30T10:13:30Z</time>
      </trkpt>
      <trkpt lat="44.2939" lon="6.21347">
        <ele>2027.0771484</ele>
        <time>2013-07-30T10:13:58Z</time>
      </trkpt>
      <trkpt lat="44.2939" lon="6.21347">
        <ele>2027.5576172</ele>
        <time>2013-07-30T10:14:07Z</time>
      </trkpt>
      <trkpt lat="44.2939" lon="6.21347">
        <ele>2028.0385742</ele>
        <time>2013-07-30T10:14:13Z</time>
      </trkpt>
      <trkpt lat="44.2939" lon="6.21347">
        <ele>2026.1157227</ele>
        <time>2013-07-30T10:14:23Z</time>
      </trkpt>
      <trkpt lat="44.29387" lon="6.21354">
        <ele>2026.1157227</ele>
        <time>2013-07-30T10:14:34Z</time>
      </trkpt>
      <trkpt lat="44.29379" lon="6.21364">
        <ele>2022.7512207</ele>
        <time>2013-07-30T10:14:52Z</time>
      </trkpt>
      <trkpt lat="44.29377" lon="6.21366">
        <ele>2021.309082</ele>
        <time>2013-07-30T10:14:57Z</time>
      </trkpt>
      <trkpt lat="44.29369" lon="6.21377">
        <ele>2017.9445801</ele>
        <time>2013-07-30T10:15:15Z</time>
      </trkpt>
      <trkpt lat="44.29364" lon="6.21384">
        <ele>2016.5026855</ele>
        <time>2013-07-30T10:15:28Z</time>
      </trkpt>
      <trkpt lat="44.29356" lon="6.21391">
        <ele>2013.6186523</ele>
        <time>2013-07-30T10:15:43Z</time>
      </trkpt>
      <trkpt lat="44.29349" lon="6.214">
        <ele>2010.2539063</ele>
        <time>2013-07-30T10:15:59Z</time>
      </trkpt>
      <trkpt lat="44.29342" lon="6.21405">
        <ele>2008.8120117</ele>
        <time>2013-07-30T10:16:18Z</time>
      </trkpt>
      <trkpt lat="44.29341" lon="6.21407">
        <ele>2007.3701172</ele>
        <time>2013-07-30T10:16:21Z</time>
      </trkpt>
      <trkpt lat="44.29334" lon="6.21411">
        <ele>2004.0056152</ele>
        <time>2013-07-30T10:16:34Z</time>
      </trkpt>
      <trkpt lat="44.29327" lon="6.21419">
        <ele>2001.121582</ele>
        <time>2013-07-30T10:16:52Z</time>
      </trkpt>
      <trkpt lat="44.2932" lon="6.21424">
        <ele>1998.2375488</ele>
        <time>2013-07-30T10:17:06Z</time>
      </trkpt>
      <trkpt lat="44.29311" lon="6.21434">
        <ele>1994.8728027</ele>
        <time>2013-07-30T10:17:24Z</time>
      </trkpt>
      <trkpt lat="44.29304" lon="6.21445">
        <ele>1991.5083008</ele>
        <time>2013-07-30T10:17:43Z</time>
      </trkpt>
      <trkpt lat="44.29293" lon="6.21459">
        <ele>1988.1437988</ele>
        <time>2013-07-30T10:18:09Z</time>
      </trkpt>
      <trkpt lat="44.29286" lon="6.21472">
        <ele>1986.2211914</ele>
        <time>2013-07-30T10:18:31Z</time>
      </trkpt>
      <trkpt lat="44.29274" lon="6.21487">
        <ele>1982.3759766</ele>
        <time>2013-07-30T10:18:57Z</time>
      </trkpt>
      <trkpt lat="44.29267" lon="6.21501">
        <ele>1980.934082</ele>
        <time>2013-07-30T10:19:12Z</time>
      </trkpt>
      <trkpt lat="44.29261" lon="6.2153">
        <ele>1981.4145508</ele>
        <time>2013-07-30T10:19:36Z</time>
      </trkpt>
      <trkpt lat="44.29252" lon="6.21545">
        <ele>1979.4916992</ele>
        <time>2013-07-30T10:20:08Z</time>
      </trkpt>
      <trkpt lat="44.29241" lon="6.21563">
        <ele>1975.6464844</ele>
        <time>2013-07-30T10:20:34Z</time>
      </trkpt>
      <trkpt lat="44.29237" lon="6.21576">
        <ele>1974.2045898</ele>
        <time>2013-07-30T10:20:54Z</time>
      </trkpt>
      <trkpt lat="44.29232" lon="6.21597">
        <ele>1973.2434082</ele>
        <time>2013-07-30T10:21:16Z</time>
      </trkpt>
      <trkpt lat="44.29228" lon="6.21609">
        <ele>1972.2819824</ele>
        <time>2013-07-30T10:21:45Z</time>
      </trkpt>
      <trkpt lat="44.29219" lon="6.21627">
        <ele>1969.3981934</ele>
        <time>2013-07-30T10:22:09Z</time>
      </trkpt>
      <trkpt lat="44.29211" lon="6.21645">
        <ele>1966.0334473</ele>
        <time>2013-07-30T10:22:28Z</time>
      </trkpt>
      <trkpt lat="44.29203" lon="6.21667">
        <ele>1962.6687012</ele>
        <time>2013-07-30T10:22:51Z</time>
      </trkpt>
      <trkpt lat="44.29196" lon="6.21682">
        <ele>1959.784668</ele>
        <time>2013-07-30T10:23:11Z</time>
      </trkpt>
      <trkpt lat="44.29192" lon="6.21693">
        <ele>1957.3815918</ele>
        <time>2013-07-30T10:23:27Z</time>
      </trkpt>
      <trkpt lat="44.29184" lon="6.2171">
        <ele>1955.9394531</ele>
        <time>2013-07-30T10:23:43Z</time>
      </trkpt>
      <trkpt lat="44.29181" lon="6.21721">
        <ele>1954.4975586</ele>
        <time>2013-07-30T10:24:00Z</time>
      </trkpt>
      <trkpt lat="44.29173" lon="6.21736">
        <ele>1951.6137695</ele>
        <time>2013-07-30T10:24:19Z</time>
      </trkpt>
      <trkpt lat="44.29164" lon="6.21753">
        <ele>1948.7297363</ele>
        <time>2013-07-30T10:24:38Z</time>
      </trkpt>
      <trkpt lat="44.29154" lon="6.21782">
        <ele>1946.8068848</ele>
        <time>2013-07-30T10:25:00Z</time>
      </trkpt>
      <trkpt lat="44.29142" lon="6.21811">
        <ele>1946.326416</ele>
        <time>2013-07-30T10:25:23Z</time>
      </trkpt>
      <trkpt lat="44.29135" lon="6.2183">
        <ele>1946.326416</ele>
        <time>2013-07-30T10:25:41Z</time>
      </trkpt>
      <trkpt lat="44.29128" lon="6.21859">
        <ele>1947.7683105</ele>
        <time>2013-07-30T10:26:05Z</time>
      </trkpt>
      <trkpt lat="44.29117" lon="6.21881">
        <ele>1948.2490234</ele>
        <time>2013-07-30T10:26:26Z</time>
      </trkpt>
      <trkpt lat="44.29117" lon="6.21882">
        <ele>1948.2490234</ele>
        <time>2013-07-30T10:26:27Z</time>
      </trkpt>
      <trkpt lat="44.29099" lon="6.21902">
        <ele>1946.326416</ele>
        <time>2013-07-30T10:26:50Z</time>
      </trkpt>
      <trkpt lat="44.29088" lon="6.21913">
        <ele>1945.8457031</ele>
        <time>2013-07-30T10:27:08Z</time>
      </trkpt>
      <trkpt lat="44.29087" lon="6.21938">
        <ele>1946.8068848</ele>
        <time>2013-07-30T10:27:27Z</time>
      </trkpt>
      <trkpt lat="44.29081" lon="6.21944">
        <ele>1947.2875977</ele>
        <time>2013-07-30T10:27:34Z</time>
      </trkpt>
      <trkpt lat="44.2908" lon="6.21946">
        <ele>1947.2875977</ele>
        <time>2013-07-30T10:27:36Z</time>
      </trkpt>
      <trkpt lat="44.29067" lon="6.2197">
        <ele>1947.7683105</ele>
        <time>2013-07-30T10:27:57Z</time>
      </trkpt>
      <trkpt lat="44.29057" lon="6.21991">
        <ele>1947.2875977</ele>
        <time>2013-07-30T10:28:17Z</time>
      </trkpt>
      <trkpt lat="44.29055" lon="6.21995">
        <ele>1946.8068848</ele>
        <time>2013-07-30T10:28:40Z</time>
      </trkpt>
      <trkpt lat="44.29049" lon="6.22004">
        <ele>1947.2875977</ele>
        <time>2013-07-30T10:30:21Z</time>
      </trkpt>
      <trkpt lat="44.29048" lon="6.22004">
        <ele>1948.7297363</ele>
        <time>2013-07-30T10:30:23Z</time>
      </trkpt>
      <trkpt lat="44.29046" lon="6.22006">
        <ele>1948.7297363</ele>
        <time>2013-07-30T10:30:25Z</time>
      </trkpt>
      <trkpt lat="44.29041" lon="6.22011">
        <ele>1949.2104492</ele>
        <time>2013-07-30T10:30:45Z</time>
      </trkpt>
      <trkpt lat="44.29041" lon="6.22015">
        <ele>1948.7297363</ele>
        <time>2013-07-30T10:30:50Z</time>
      </trkpt>
      <trkpt lat="44.29025" lon="6.22041">
        <ele>1949.2104492</ele>
        <time>2013-07-30T10:31:12Z</time>
      </trkpt>
      <trkpt lat="44.2902" lon="6.22048">
        <ele>1949.6911621</ele>
        <time>2013-07-30T10:31:19Z</time>
      </trkpt>
      <trkpt lat="44.29007" lon="6.22068">
        <ele>1951.6137695</ele>
        <time>2013-07-30T10:31:43Z</time>
      </trkpt>
      <trkpt lat="44.28996" lon="6.22086">
        <ele>1954.9782715</ele>
        <time>2013-07-30T10:32:05Z</time>
      </trkpt>
      <trkpt lat="44.2898" lon="6.22095">
        <ele>1955.9394531</ele>
        <time>2013-07-30T10:32:27Z</time>
      </trkpt>
      <trkpt lat="44.28965" lon="6.22107">
        <ele>1957.3815918</ele>
        <time>2013-07-30T10:32:52Z</time>
      </trkpt>
      <trkpt lat="44.28953" lon="6.22119">
        <ele>1959.784668</ele>
        <time>2013-07-30T10:33:17Z</time>
      </trkpt>
      <trkpt lat="44.28942" lon="6.2213">
        <ele>1961.7075195</ele>
        <time>2013-07-30T10:33:38Z</time>
      </trkpt>
      <trkpt lat="44.28941" lon="6.22139">
        <ele>1961.7075195</ele>
        <time>2013-07-30T10:34:02Z</time>
      </trkpt>
      <trkpt lat="44.28933" lon="6.22148">
        <ele>1963.1494141</ele>
        <time>2013-07-30T10:34:21Z</time>
      </trkpt>
      <trkpt lat="44.2893" lon="6.22157">
        <ele>1966.0334473</ele>
        <time>2013-07-30T10:34:40Z</time>
      </trkpt>
      <trkpt lat="44.28924" lon="6.22167">
        <ele>1969.3981934</ele>
        <time>2013-07-30T10:35:05Z</time>
      </trkpt>
      <trkpt lat="44.2892" lon="6.22177">
        <ele>1972.2819824</ele>
        <time>2013-07-30T10:35:29Z</time>
      </trkpt>
      <trkpt lat="44.28915" lon="6.22184">
        <ele>1975.1657715</ele>
        <time>2013-07-30T10:35:49Z</time>
      </trkpt>
      <trkpt lat="44.28907" lon="6.22191">
        <ele>1978.0498047</ele>
        <time>2013-07-30T10:36:12Z</time>
      </trkpt>
      <trkpt lat="44.28896" lon="6.222">
        <ele>1980.934082</ele>
        <time>2013-07-30T10:36:41Z</time>
      </trkpt>
      <trkpt lat="44.28893" lon="6.22202">
        <ele>1983.3371582</ele>
        <time>2013-07-30T10:36:53Z</time>
      </trkpt>
      <trkpt lat="44.28885" lon="6.22208">
        <ele>1985.2597656</ele>
        <time>2013-07-30T10:37:15Z</time>
      </trkpt>
      <trkpt lat="44.28886" lon="6.22213">
        <ele>1987.6630859</ele>
        <time>2013-07-30T10:37:32Z</time>
      </trkpt>
      <trkpt lat="44.28891" lon="6.2222">
        <ele>1990.546875</ele>
        <time>2013-07-30T10:37:52Z</time>
      </trkpt>
      <trkpt lat="44.28888" lon="6.2223">
        <ele>1993.9116211</ele>
        <time>2013-07-30T10:38:13Z</time>
      </trkpt>
      <trkpt lat="44.28886" lon="6.22239">
        <ele>1996.7956543</ele>
        <time>2013-07-30T10:38:36Z</time>
      </trkpt>
      <trkpt lat="44.28885" lon="6.2225">
        <ele>1999.6796875</ele>
        <time>2013-07-30T10:38:59Z</time>
      </trkpt>
      <trkpt lat="44.28882" lon="6.2226">
        <ele>2003.0441895</ele>
        <time>2013-07-30T10:39:25Z</time>
      </trkpt>
      <trkpt lat="44.28879" lon="6.22269">
        <ele>2006.4086914</ele>
        <time>2013-07-30T10:39:47Z</time>
      </trkpt>
      <trkpt lat="44.28871" lon="6.22277">
        <ele>2008.3312988</ele>
        <time>2013-07-30T10:40:09Z</time>
      </trkpt>
      <trkpt lat="44.28867" lon="6.22287">
        <ele>2011.6960449</ele>
        <time>2013-07-30T10:40:31Z</time>
      </trkpt>
      <trkpt lat="44.28858" lon="6.22294">
        <ele>2014.5800781</ele>
        <time>2013-07-30T10:40:55Z</time>
      </trkpt>
      <trkpt lat="44.28849" lon="6.22305">
        <ele>2017.4638672</ele>
        <time>2013-07-30T10:41:23Z</time>
      </trkpt>
      <trkpt lat="44.28836" lon="6.22323">
        <ele>2019.8671875</ele>
        <time>2013-07-30T10:41:52Z</time>
      </trkpt>
      <trkpt lat="44.28818" lon="6.22335">
        <ele>2021.309082</ele>
        <time>2013-07-30T10:42:20Z</time>
      </trkpt>
      <trkpt lat="44.28812" lon="6.22344">
        <ele>2021.7897949</ele>
        <time>2013-07-30T10:42:41Z</time>
      </trkpt>
      <trkpt lat="44.2881" lon="6.22342">
        <ele>2021.309082</ele>
        <time>2013-07-30T10:42:58Z</time>
      </trkpt>
      <trkpt lat="44.2881" lon="6.22342">
        <ele>2021.7897949</ele>
        <time>2013-07-30T10:43:24Z</time>
      </trkpt>
      <trkpt lat="44.28804" lon="6.2233">
        <ele>2020.3479004</ele>
        <time>2013-07-30T10:43:48Z</time>
      </trkpt>
      <trkpt lat="44.28804" lon="6.22314">
        <ele>2018.425293</ele>
        <time>2013-07-30T10:44:05Z</time>
      </trkpt>
      <trkpt lat="44.28804" lon="6.22313">
        <ele>2018.425293</ele>
        <time>2013-07-30T10:44:06Z</time>
      </trkpt>
      <trkpt lat="44.28805" lon="6.22309">
        <ele>2017.9445801</ele>
        <time>2013-07-30T10:44:11Z</time>
      </trkpt>
      <trkpt lat="44.28812" lon="6.22302">
        <ele>2018.425293</ele>
        <time>2013-07-30T10:44:21Z</time>
      </trkpt>
      <trkpt lat="44.28817" lon="6.22294">
        <ele>2017.4638672</ele>
        <time>2013-07-30T10:44:38Z</time>
      </trkpt>
      <trkpt lat="44.28819" lon="6.22296">
        <ele>2016.9833984</ele>
        <time>2013-07-30T10:44:50Z</time>
      </trkpt>
      <trkpt lat="44.28819" lon="6.22294">
        <ele>2016.9833984</ele>
        <time>2013-07-30T10:45:38Z</time>
      </trkpt>
      <trkpt lat="44.28821" lon="6.22292">
        <ele>2016.9833984</ele>
        <time>2013-07-30T10:46:46Z</time>
      </trkpt>
      <trkpt lat="44.28819" lon="6.22293">
        <ele>2016.9833984</ele>
        <time>2013-07-30T10:48:23Z</time>
      </trkpt>
      <trkpt lat="44.2882" lon="6.22297">
        <ele>2015.5415039</ele>
        <time>2013-07-30T10:49:08Z</time>
      </trkpt>
      <trkpt lat="44.28819" lon="6.22296">
        <ele>2015.5415039</ele>
        <time>2013-07-30T10:49:26Z</time>
      </trkpt>
      <trkpt lat="44.28814" lon="6.223">
        <ele>2018.425293</ele>
        <time>2013-07-30T10:49:37Z</time>
      </trkpt>
      <trkpt lat="44.28801" lon="6.22303">
        <ele>2017.4638672</ele>
        <time>2013-07-30T10:49:56Z</time>
      </trkpt>
      <trkpt lat="44.28799" lon="6.22304">
        <ele>2016.5026855</ele>
        <time>2013-07-30T10:49:59Z</time>
      </trkpt>
      <trkpt lat="44.28789" lon="6.22312">
        <ele>2015.060791</ele>
        <time>2013-07-30T10:50:18Z</time>
      </trkpt>
      <trkpt lat="44.28774" lon="6.2231">
        <ele>2012.6574707</ele>
        <time>2013-07-30T10:50:37Z</time>
      </trkpt>
      <trkpt lat="44.28771" lon="6.22309">
        <ele>2013.6186523</ele>
        <time>2013-07-30T10:50:42Z</time>
      </trkpt>
      <trkpt lat="44.28768" lon="6.22306">
        <ele>2012.6574707</ele>
        <time>2013-07-30T10:50:57Z</time>
      </trkpt>
      <trkpt lat="44.28765" lon="6.22304">
        <ele>2010.7346191</ele>
        <time>2013-07-30T10:51:07Z</time>
      </trkpt>
      <trkpt lat="44.28761" lon="6.22302">
        <ele>2009.7731934</ele>
        <time>2013-07-30T10:51:16Z</time>
      </trkpt>
      <trkpt lat="44.28759" lon="6.22303">
        <ele>2007.3701172</ele>
        <time>2013-07-30T10:51:21Z</time>
      </trkpt>
      <trkpt lat="44.28757" lon="6.22303">
        <ele>2008.3312988</ele>
        <time>2013-07-30T10:51:23Z</time>
      </trkpt>
      <trkpt lat="44.28755" lon="6.22303">
        <ele>2006.4086914</ele>
        <time>2013-07-30T10:51:28Z</time>
      </trkpt>
      <trkpt lat="44.28748" lon="6.22305">
        <ele>2004.486084</ele>
        <time>2013-07-30T10:51:49Z</time>
      </trkpt>
      <trkpt lat="44.28735" lon="6.22309">
        <ele>2001.121582</ele>
        <time>2013-07-30T10:52:13Z</time>
      </trkpt>
      <trkpt lat="44.28728" lon="6.22308">
        <ele>1998.2375488</ele>
        <time>2013-07-30T10:52:32Z</time>
      </trkpt>
      <trkpt lat="44.28725" lon="6.22301">
        <ele>1994.8728027</ele>
        <time>2013-07-30T10:52:52Z</time>
      </trkpt>
      <trkpt lat="44.28717" lon="6.22295">
        <ele>1991.9890137</ele>
        <time>2013-07-30T10:53:07Z</time>
      </trkpt>
      <trkpt lat="44.28706" lon="6.22292">
        <ele>1988.6245117</ele>
        <time>2013-07-30T10:53:32Z</time>
      </trkpt>
      <trkpt lat="44.28702" lon="6.22288">
        <ele>1986.2211914</ele>
        <time>2013-07-30T10:53:45Z</time>
      </trkpt>
      <trkpt lat="44.28695" lon="6.22284">
        <ele>1983.3371582</ele>
        <time>2013-07-30T10:54:00Z</time>
      </trkpt>
      <trkpt lat="44.28692" lon="6.22279">
        <ele>1981.4145508</ele>
        <time>2013-07-30T10:54:18Z</time>
      </trkpt>
      <trkpt lat="44.28688" lon="6.2228">
        <ele>1980.934082</ele>
        <time>2013-07-30T10:54:32Z</time>
      </trkpt>
      <trkpt lat="44.28687" lon="6.2228">
        <ele>1979.4916992</ele>
        <time>2013-07-30T10:54:38Z</time>
      </trkpt>
      <trkpt lat="44.28677" lon="6.22274">
        <ele>1976.1271973</ele>
        <time>2013-07-30T10:55:05Z</time>
      </trkpt>
      <trkpt lat="44.28669" lon="6.22269">
        <ele>1972.7626953</ele>
        <time>2013-07-30T10:55:23Z</time>
      </trkpt>
      <trkpt lat="44.28663" lon="6.22261">
        <ele>1969.3981934</ele>
        <time>2013-07-30T10:55:42Z</time>
      </trkpt>
      <trkpt lat="44.28657" lon="6.22254">
        <ele>1966.5141602</ele>
        <time>2013-07-30T10:56:01Z</time>
      </trkpt>
      <trkpt lat="44.28653" lon="6.22247">
        <ele>1963.6298828</ele>
        <time>2013-07-30T10:56:21Z</time>
      </trkpt>
      <trkpt lat="44.28652" lon="6.22245">
        <ele>1961.7075195</ele>
        <time>2013-07-30T10:56:27Z</time>
      </trkpt>
      <trkpt lat="44.28647" lon="6.22239">
        <ele>1959.3041992</ele>
        <time>2013-07-30T10:56:49Z</time>
      </trkpt>
      <trkpt lat="44.28642" lon="6.22233">
        <ele>1956.420166</ele>
        <time>2013-07-30T10:57:03Z</time>
      </trkpt>
      <trkpt lat="44.28642" lon="6.22232">
        <ele>1956.420166</ele>
        <time>2013-07-30T10:57:04Z</time>
      </trkpt>
      <trkpt lat="44.28637" lon="6.22222">
        <ele>1953.0556641</ele>
        <time>2013-07-30T10:57:23Z</time>
      </trkpt>
      <trkpt lat="44.28632" lon="6.22216">
        <ele>1949.2104492</ele>
        <time>2013-07-30T10:57:42Z</time>
      </trkpt>
      <trkpt lat="44.28625" lon="6.2221">
        <ele>1946.326416</ele>
        <time>2013-07-30T10:58:07Z</time>
      </trkpt>
      <trkpt lat="44.2862" lon="6.22204">
        <ele>1942.9616699</ele>
        <time>2013-07-30T10:58:24Z</time>
      </trkpt>
      <trkpt lat="44.28618" lon="6.22197">
        <ele>1940.5583496</ele>
        <time>2013-07-30T10:58:45Z</time>
      </trkpt>
      <trkpt lat="44.28612" lon="6.22188">
        <ele>1938.1552734</ele>
        <time>2013-07-30T10:59:13Z</time>
      </trkpt>
      <trkpt lat="44.28611" lon="6.2218">
        <ele>1934.7907715</ele>
        <time>2013-07-30T10:59:29Z</time>
      </trkpt>
      <trkpt lat="44.28607" lon="6.22174">
        <ele>1932.3874512</ele>
        <time>2013-07-30T10:59:41Z</time>
      </trkpt>
      <trkpt lat="44.28602" lon="6.22168">
        <ele>1931.4257813</ele>
        <time>2013-07-30T11:00:03Z</time>
      </trkpt>
      <trkpt lat="44.28596" lon="6.2216">
        <ele>1928.0612793</ele>
        <time>2013-07-30T11:00:19Z</time>
      </trkpt>
      <trkpt lat="44.28591" lon="6.22146">
        <ele>1925.1772461</ele>
        <time>2013-07-30T11:00:42Z</time>
      </trkpt>
      <trkpt lat="44.28584" lon="6.22136">
        <ele>1922.293457</ele>
        <time>2013-07-30T11:00:59Z</time>
      </trkpt>
      <trkpt lat="44.28571" lon="6.22117">
        <ele>1918.9289551</ele>
        <time>2013-07-30T11:01:24Z</time>
      </trkpt>
      <trkpt lat="44.28565" lon="6.22109">
        <ele>1917.0063477</ele>
        <time>2013-07-30T11:01:35Z</time>
      </trkpt>
      <trkpt lat="44.28553" lon="6.22096">
        <ele>1913.1608887</ele>
        <time>2013-07-30T11:01:57Z</time>
      </trkpt>
      <trkpt lat="44.28543" lon="6.22081">
        <ele>1909.7961426</ele>
        <time>2013-07-30T11:02:22Z</time>
      </trkpt>
      <trkpt lat="44.28535" lon="6.22068">
        <ele>1906.9123535</ele>
        <time>2013-07-30T11:02:43Z</time>
      </trkpt>
      <trkpt lat="44.28524" lon="6.22052">
        <ele>1903.5478516</ele>
        <time>2013-07-30T11:03:04Z</time>
      </trkpt>
      <trkpt lat="44.28522" lon="6.22049">
        <ele>1903.0671387</ele>
        <time>2013-07-30T11:03:32Z</time>
      </trkpt>
      <trkpt lat="44.28508" lon="6.22032">
        <ele>1899.7023926</ele>
        <time>2013-07-30T11:03:55Z</time>
      </trkpt>
      <trkpt lat="44.28507" lon="6.22031">
        <ele>1899.7023926</ele>
        <time>2013-07-30T11:03:56Z</time>
      </trkpt>
      <trkpt lat="44.28489" lon="6.22013">
        <ele>1897.2990723</ele>
        <time>2013-07-30T11:04:21Z</time>
      </trkpt>
      <trkpt lat="44.2848" lon="6.22003">
        <ele>1893.9345703</ele>
        <time>2013-07-30T11:04:36Z</time>
      </trkpt>
      <trkpt lat="44.28469" lon="6.21992">
        <ele>1890.5698242</ele>
        <time>2013-07-30T11:04:53Z</time>
      </trkpt>
      <trkpt lat="44.28459" lon="6.21972">
        <ele>1888.166748</ele>
        <time>2013-07-30T11:05:15Z</time>
      </trkpt>
      <trkpt lat="44.28452" lon="6.21959">
        <ele>1886.2441406</ele>
        <time>2013-07-30T11:05:28Z</time>
      </trkpt>
      <trkpt lat="44.2845" lon="6.2195">
        <ele>1885.2827148</ele>
        <time>2013-07-30T11:05:35Z</time>
      </trkpt>
      <trkpt lat="44.28449" lon="6.21946">
        <ele>1885.7634277</ele>
        <time>2013-07-30T11:05:38Z</time>
      </trkpt>
      <trkpt lat="44.28445" lon="6.21939">
        <ele>1886.7246094</ele>
        <time>2013-07-30T11:05:44Z</time>
      </trkpt>
      <trkpt lat="44.28443" lon="6.21935">
        <ele>1884.8022461</ele>
        <time>2013-07-30T11:05:47Z</time>
      </trkpt>
      <trkpt lat="44.28442" lon="6.21933">
        <ele>1883.8405762</ele>
        <time>2013-07-30T11:05:49Z</time>
      </trkpt>
      <trkpt lat="44.28428" lon="6.21915">
        <ele>1884.3215332</ele>
        <time>2013-07-30T11:06:07Z</time>
      </trkpt>
      <trkpt lat="44.28427" lon="6.21914">
        <ele>1884.3215332</ele>
        <time>2013-07-30T11:06:08Z</time>
      </trkpt>
      <trkpt lat="44.28426" lon="6.21912">
        <ele>1886.2441406</ele>
        <time>2013-07-30T11:06:10Z</time>
      </trkpt>
      <trkpt lat="44.28424" lon="6.21904">
        <ele>1886.2441406</ele>
        <time>2013-07-30T11:06:16Z</time>
      </trkpt>
      <trkpt lat="44.28419" lon="6.21897">
        <ele>1887.2053223</ele>
        <time>2013-07-30T11:06:22Z</time>
      </trkpt>
      <trkpt lat="44.28418" lon="6.21895">
        <ele>1885.7634277</ele>
        <time>2013-07-30T11:06:24Z</time>
      </trkpt>
      <trkpt lat="44.28417" lon="6.21893">
        <ele>1887.2053223</ele>
        <time>2013-07-30T11:06:26Z</time>
      </trkpt>
      <trkpt lat="44.28415" lon="6.21889">
        <ele>1884.8022461</ele>
        <time>2013-07-30T11:06:29Z</time>
      </trkpt>
      <trkpt lat="44.28414" lon="6.21887">
        <ele>1887.6860352</ele>
        <time>2013-07-30T11:06:31Z</time>
      </trkpt>
      <trkpt lat="44.28413" lon="6.21884">
        <ele>1885.7634277</ele>
        <time>2013-07-30T11:06:33Z</time>
      </trkpt>
      <trkpt lat="44.28412" lon="6.21881">
        <ele>1887.6860352</ele>
        <time>2013-07-30T11:06:36Z</time>
      </trkpt>
      <trkpt lat="44.28411" lon="6.21881">
        <ele>1886.7246094</ele>
        <time>2013-07-30T11:06:37Z</time>
      </trkpt>
      <trkpt lat="44.28407" lon="6.21874">
        <ele>1887.2053223</ele>
        <time>2013-07-30T11:06:44Z</time>
      </trkpt>
      <trkpt lat="44.28403" lon="6.21868">
        <ele>1888.6474609</ele>
        <time>2013-07-30T11:06:50Z</time>
      </trkpt>
      <trkpt lat="44.28402" lon="6.21865">
        <ele>1887.2053223</ele>
        <time>2013-07-30T11:06:52Z</time>
      </trkpt>
      <trkpt lat="44.28397" lon="6.2186">
        <ele>1889.1279297</ele>
        <time>2013-07-30T11:06:59Z</time>
      </trkpt>
      <trkpt lat="44.28395" lon="6.21859">
        <ele>1887.2053223</ele>
        <time>2013-07-30T11:07:01Z</time>
      </trkpt>
      <trkpt lat="44.28391" lon="6.21852">
        <ele>1887.6860352</ele>
        <time>2013-07-30T11:07:08Z</time>
      </trkpt>
      <trkpt lat="44.28386" lon="6.21846">
        <ele>1888.166748</ele>
        <time>2013-07-30T11:07:14Z</time>
      </trkpt>
      <trkpt lat="44.28381" lon="6.21824">
        <ele>1887.2053223</ele>
        <time>2013-07-30T11:07:31Z</time>
      </trkpt>
      <trkpt lat="44.28379" lon="6.21823">
        <ele>1890.0893555</ele>
        <time>2013-07-30T11:07:34Z</time>
      </trkpt>
      <trkpt lat="44.28374" lon="6.21815">
        <ele>1890.0893555</ele>
        <time>2013-07-30T11:07:41Z</time>
      </trkpt>
      <trkpt lat="44.28371" lon="6.21814">
        <ele>1889.1279297</ele>
        <time>2013-07-30T11:07:44Z</time>
      </trkpt>
      <trkpt lat="44.2836" lon="6.21792">
        <ele>1887.2053223</ele>
        <time>2013-07-30T11:08:06Z</time>
      </trkpt>
      <trkpt lat="44.28335" lon="6.21761">
        <ele>1887.6860352</ele>
        <time>2013-07-30T11:08:35Z</time>
      </trkpt>
      <trkpt lat="44.28325" lon="6.21745">
        <ele>1887.2053223</ele>
        <time>2013-07-30T11:08:50Z</time>
      </trkpt>
      <trkpt lat="44.28323" lon="6.21742">
        <ele>1886.7246094</ele>
        <time>2013-07-30T11:08:53Z</time>
      </trkpt>
      <trkpt lat="44.28312" lon="6.2173">
        <ele>1888.6474609</ele>
        <time>2013-07-30T11:09:06Z</time>
      </trkpt>
      <trkpt lat="44.28305" lon="6.21718">
        <ele>1885.7634277</ele>
        <time>2013-07-30T11:09:16Z</time>
      </trkpt>
      <trkpt lat="44.28297" lon="6.21708">
        <ele>1888.166748</ele>
        <time>2013-07-30T11:09:26Z</time>
      </trkpt>
      <trkpt lat="44.28295" lon="6.21705">
        <ele>1886.7246094</ele>
        <time>2013-07-30T11:09:29Z</time>
      </trkpt>
      <trkpt lat="44.28289" lon="6.21697">
        <ele>1888.166748</ele>
        <time>2013-07-30T11:09:36Z</time>
      </trkpt>
      <trkpt lat="44.28286" lon="6.21696">
        <ele>1885.2827148</ele>
        <time>2013-07-30T11:09:41Z</time>
      </trkpt>
      <trkpt lat="44.28284" lon="6.21694">
        <ele>1886.7246094</ele>
        <time>2013-07-30T11:09:43Z</time>
      </trkpt>
      <trkpt lat="44.28281" lon="6.2169">
        <ele>1885.7634277</ele>
        <time>2013-07-30T11:09:47Z</time>
      </trkpt>
      <trkpt lat="44.28278" lon="6.21687">
        <ele>1887.6860352</ele>
        <time>2013-07-30T11:09:50Z</time>
      </trkpt>
      <trkpt lat="44.28268" lon="6.21676">
        <ele>1886.7246094</ele>
        <time>2013-07-30T11:10:03Z</time>
      </trkpt>
      <trkpt lat="44.28249" lon="6.21659">
        <ele>1887.6860352</ele>
        <time>2013-07-30T11:10:26Z</time>
      </trkpt>
      <trkpt lat="44.28227" lon="6.21644">
        <ele>1885.7634277</ele>
        <time>2013-07-30T11:10:49Z</time>
      </trkpt>
      <trkpt lat="44.28221" lon="6.21637">
        <ele>1885.2827148</ele>
        <time>2013-07-30T11:10:57Z</time>
      </trkpt>
      <trkpt lat="44.2821" lon="6.21625">
        <ele>1883.8405762</ele>
        <time>2013-07-30T11:11:11Z</time>
      </trkpt>
      <trkpt lat="44.28203" lon="6.21617">
        <ele>1882.8791504</ele>
        <time>2013-07-30T11:11:21Z</time>
      </trkpt>
      <trkpt lat="44.28199" lon="6.21612">
        <ele>1881.9179688</ele>
        <time>2013-07-30T11:11:26Z</time>
      </trkpt>
      <trkpt lat="44.28181" lon="6.21592">
        <ele>1880.4760742</ele>
        <time>2013-07-30T11:11:50Z</time>
      </trkpt>
      <trkpt lat="44.28167" lon="6.21578">
        <ele>1879.0339355</ele>
        <time>2013-07-30T11:12:09Z</time>
      </trkpt>
      <trkpt lat="44.2815" lon="6.2157">
        <ele>1879.0339355</ele>
        <time>2013-07-30T11:12:28Z</time>
      </trkpt>
      <trkpt lat="44.28133" lon="6.21553">
        <ele>1876.6308594</ele>
        <time>2013-07-30T11:12:50Z</time>
      </trkpt>
      <trkpt lat="44.28118" lon="6.21533">
        <ele>1873.7468262</ele>
        <time>2013-07-30T11:13:17Z</time>
      </trkpt>
      <trkpt lat="44.28101" lon="6.21516">
        <ele>1870.3823242</ele>
        <time>2013-07-30T11:13:45Z</time>
      </trkpt>
      <trkpt lat="44.2808" lon="6.21503">
        <ele>1868.9404297</ele>
        <time>2013-07-30T11:14:13Z</time>
      </trkpt>
      <trkpt lat="44.28068" lon="6.21493">
        <ele>1865.5756836</ele>
        <time>2013-07-30T11:14:34Z</time>
      </trkpt>
      <trkpt lat="44.28054" lon="6.21482">
        <ele>1862.2109375</ele>
        <time>2013-07-30T11:14:55Z</time>
      </trkpt>
      <trkpt lat="44.28038" lon="6.21471">
        <ele>1858.8464355</ele>
        <time>2013-07-30T11:15:20Z</time>
      </trkpt>
      <trkpt lat="44.28032" lon="6.21464">
        <ele>1855.9624023</ele>
        <time>2013-07-30T11:15:38Z</time>
      </trkpt>
      <trkpt lat="44.28032" lon="6.21463">
        <ele>1854.5205078</ele>
        <time>2013-07-30T11:15:47Z</time>
      </trkpt>
      <trkpt lat="44.28029" lon="6.21461">
        <ele>1854.5205078</ele>
        <time>2013-07-30T11:16:17Z</time>
      </trkpt>
      <trkpt lat="44.28024" lon="6.21458">
        <ele>1851.1557617</ele>
        <time>2013-07-30T11:16:29Z</time>
      </trkpt>
      <trkpt lat="44.28023" lon="6.21458">
        <ele>1850.6750488</ele>
        <time>2013-07-30T11:16:30Z</time>
      </trkpt>
      <trkpt lat="44.28022" lon="6.21456">
        <ele>1852.5979004</ele>
        <time>2013-07-30T11:16:33Z</time>
      </trkpt>
      <trkpt lat="44.2802" lon="6.21456">
        <ele>1850.1945801</ele>
        <time>2013-07-30T11:16:38Z</time>
      </trkpt>
      <trkpt lat="44.28016" lon="6.21453">
        <ele>1847.7912598</ele>
        <time>2013-07-30T11:16:49Z</time>
      </trkpt>
      <trkpt lat="44.28013" lon="6.2145">
        <ele>1845.8686523</ele>
        <time>2013-07-30T11:17:03Z</time>
      </trkpt>
      <trkpt lat="44.28007" lon="6.21445">
        <ele>1842.0234375</ele>
        <time>2013-07-30T11:17:20Z</time>
      </trkpt>
      <trkpt lat="44.28003" lon="6.21442">
        <ele>1839.6201172</ele>
        <time>2013-07-30T11:17:31Z</time>
      </trkpt>
      <trkpt lat="44.28002" lon="6.2144">
        <ele>1841.5427246</ele>
        <time>2013-07-30T11:17:33Z</time>
      </trkpt>
      <trkpt lat="44.27997" lon="6.21439">
        <ele>1837.6975098</ele>
        <time>2013-07-30T11:17:53Z</time>
      </trkpt>
      <trkpt lat="44.27996" lon="6.21439">
        <ele>1837.6975098</ele>
        <time>2013-07-30T11:17:54Z</time>
      </trkpt>
      <trkpt lat="44.27991" lon="6.21431">
        <ele>1834.3327637</ele>
        <time>2013-07-30T11:18:12Z</time>
      </trkpt>
      <trkpt lat="44.27988" lon="6.2143">
        <ele>1831.9294434</ele>
        <time>2013-07-30T11:18:31Z</time>
      </trkpt>
      <trkpt lat="44.27981" lon="6.21425">
        <ele>1828.0842285</ele>
        <time>2013-07-30T11:18:56Z</time>
      </trkpt>
      <trkpt lat="44.27973" lon="6.21425">
        <ele>1824.7197266</ele>
        <time>2013-07-30T11:19:18Z</time>
      </trkpt>
      <trkpt lat="44.27967" lon="6.21419">
        <ele>1821.8356934</ele>
        <time>2013-07-30T11:19:37Z</time>
      </trkpt>
      <trkpt lat="44.27959" lon="6.21415">
        <ele>1818.4709473</ele>
        <time>2013-07-30T11:19:51Z</time>
      </trkpt>
      <trkpt lat="44.27952" lon="6.21406">
        <ele>1814.6257324</ele>
        <time>2013-07-30T11:20:12Z</time>
      </trkpt>
      <trkpt lat="44.27943" lon="6.21402">
        <ele>1812.703125</ele>
        <time>2013-07-30T11:20:34Z</time>
      </trkpt>
      <trkpt lat="44.27939" lon="6.21398">
        <ele>1809.338623</ele>
        <time>2013-07-30T11:20:49Z</time>
      </trkpt>
      <trkpt lat="44.27937" lon="6.21396">
        <ele>1808.3771973</ele>
        <time>2013-07-30T11:20:55Z</time>
      </trkpt>
      <trkpt lat="44.27934" lon="6.21387">
        <ele>1806.4545898</ele>
        <time>2013-07-30T11:21:18Z</time>
      </trkpt>
      <trkpt lat="44.27933" lon="6.21381">
        <ele>1804.0515137</ele>
        <time>2013-07-30T11:21:25Z</time>
      </trkpt>
      <trkpt lat="44.27931" lon="6.21378">
        <ele>1802.6091309</ele>
        <time>2013-07-30T11:21:32Z</time>
      </trkpt>
      <trkpt lat="44.27924" lon="6.21371">
        <ele>1799.2446289</ele>
        <time>2013-07-30T11:21:54Z</time>
      </trkpt>
      <trkpt lat="44.27924" lon="6.21356">
        <ele>1796.3608398</ele>
        <time>2013-07-30T11:22:14Z</time>
      </trkpt>
      <trkpt lat="44.27922" lon="6.2135">
        <ele>1792.9960938</ele>
        <time>2013-07-30T11:22:35Z</time>
      </trkpt>
      <trkpt lat="44.27916" lon="6.2134">
        <ele>1789.6315918</ele>
        <time>2013-07-30T11:22:58Z</time>
      </trkpt>
      <trkpt lat="44.27916" lon="6.21338">
        <ele>1788.6704102</ele>
        <time>2013-07-30T11:23:00Z</time>
      </trkpt>
      <trkpt lat="44.27913" lon="6.21331">
        <ele>1786.2668457</ele>
        <time>2013-07-30T11:23:20Z</time>
      </trkpt>
      <trkpt lat="44.27908" lon="6.21323">
        <ele>1781.940918</ele>
        <time>2013-07-30T11:23:38Z</time>
      </trkpt>
      <trkpt lat="44.27908" lon="6.21323">
        <ele>1781.940918</ele>
        <time>2013-07-30T11:23:39Z</time>
      </trkpt>
      <trkpt lat="44.27904" lon="6.21319">
        <ele>1779.5375977</ele>
        <time>2013-07-30T11:24:02Z</time>
      </trkpt>
      <trkpt lat="44.27902" lon="6.21313">
        <ele>1776.1730957</ele>
        <time>2013-07-30T11:24:22Z</time>
      </trkpt>
      <trkpt lat="44.27901" lon="6.21313">
        <ele>1775.2116699</ele>
        <time>2013-07-30T11:24:25Z</time>
      </trkpt>
      <trkpt lat="44.27897" lon="6.21309">
        <ele>1775.2116699</ele>
        <time>2013-07-30T11:24:37Z</time>
      </trkpt>
      <trkpt lat="44.27897" lon="6.21308">
        <ele>1773.7697754</ele>
        <time>2013-07-30T11:24:39Z</time>
      </trkpt>
      <trkpt lat="44.27895" lon="6.21304">
        <ele>1772.8085938</ele>
        <time>2013-07-30T11:25:05Z</time>
      </trkpt>
      <trkpt lat="44.27895" lon="6.21304">
        <ele>1769.9243164</ele>
        <time>2013-07-30T11:25:07Z</time>
      </trkpt>
      <trkpt lat="44.27892" lon="6.21302">
        <ele>1772.3278809</ele>
        <time>2013-07-30T11:25:14Z</time>
      </trkpt>
      <trkpt lat="44.27892" lon="6.21303">
        <ele>1770.4050293</ele>
        <time>2013-07-30T11:25:16Z</time>
      </trkpt>
      <trkpt lat="44.2789" lon="6.21301">
        <ele>1769.4438477</ele>
        <time>2013-07-30T11:25:21Z</time>
      </trkpt>
      <trkpt lat="44.2789" lon="6.21302">
        <ele>1767.5209961</ele>
        <time>2013-07-30T11:25:23Z</time>
      </trkpt>
      <trkpt lat="44.27886" lon="6.21302">
        <ele>1765.5986328</ele>
        <time>2013-07-30T11:25:33Z</time>
      </trkpt>
      <trkpt lat="44.27886" lon="6.21301">
        <ele>1768.9631348</ele>
        <time>2013-07-30T11:25:34Z</time>
      </trkpt>
      <trkpt lat="44.27886" lon="6.21301">
        <ele>1768.9631348</ele>
        <time>2013-07-30T11:25:35Z</time>
      </trkpt>
      <trkpt lat="44.27886" lon="6.213">
        <ele>1767.5209961</ele>
        <time>2013-07-30T11:25:37Z</time>
      </trkpt>
      <trkpt lat="44.27885" lon="6.21299">
        <ele>1769.4438477</ele>
        <time>2013-07-30T11:25:39Z</time>
      </trkpt>
      <trkpt lat="44.27885" lon="6.21297">
        <ele>1767.5209961</ele>
        <time>2013-07-30T11:25:42Z</time>
      </trkpt>
      <trkpt lat="44.27885" lon="6.21295">
        <ele>1766.0791016</ele>
        <time>2013-07-30T11:25:44Z</time>
      </trkpt>
      <trkpt lat="44.27885" lon="6.21291">
        <ele>1764.637207</ele>
        <time>2013-07-30T11:26:08Z</time>
      </trkpt>
      <trkpt lat="44.2788" lon="6.21288">
        <ele>1761.2727051</ele>
        <time>2013-07-30T11:26:25Z</time>
      </trkpt>
      <trkpt lat="44.27878" lon="6.21286">
        <ele>1760.7919922</ele>
        <time>2013-07-30T11:26:45Z</time>
      </trkpt>
      <trkpt lat="44.27869" lon="6.21283">
        <ele>1757.9082031</ele>
        <time>2013-07-30T11:27:06Z</time>
      </trkpt>
      <trkpt lat="44.27867" lon="6.21273">
        <ele>1755.0239258</ele>
        <time>2013-07-30T11:27:23Z</time>
      </trkpt>
      <trkpt lat="44.27865" lon="6.21268">
        <ele>1754.0627441</ele>
        <time>2013-07-30T11:27:45Z</time>
      </trkpt>
      <trkpt lat="44.2786" lon="6.21264">
        <ele>1750.697998</ele>
        <time>2013-07-30T11:28:02Z</time>
      </trkpt>
      <trkpt lat="44.27857" lon="6.21263">
        <ele>1749.2561035</ele>
        <time>2013-07-30T11:28:23Z</time>
      </trkpt>
      <trkpt lat="44.27852" lon="6.2126">
        <ele>1745.8916016</ele>
        <time>2013-07-30T11:28:43Z</time>
      </trkpt>
      <trkpt lat="44.27852" lon="6.21251">
        <ele>1743.9689941</ele>
        <time>2013-07-30T11:29:05Z</time>
      </trkpt>
      <trkpt lat="44.27843" lon="6.21251">
        <ele>1741.0849609</ele>
        <time>2013-07-30T11:29:27Z</time>
      </trkpt>
      <trkpt lat="44.27837" lon="6.21244">
        <ele>1737.7202148</ele>
        <time>2013-07-30T11:29:48Z</time>
      </trkpt>
      <trkpt lat="44.27829" lon="6.21246">
        <ele>1735.3168945</ele>
        <time>2013-07-30T11:30:11Z</time>
      </trkpt>
      <trkpt lat="44.27823" lon="6.21241">
        <ele>1732.9135742</ele>
        <time>2013-07-30T11:30:33Z</time>
      </trkpt>
      <trkpt lat="44.2782" lon="6.2124">
        <ele>1730.510498</ele>
        <time>2013-07-30T11:30:58Z</time>
      </trkpt>
      <trkpt lat="44.27811" lon="6.21242">
        <ele>1728.1071777</ele>
        <time>2013-07-30T11:31:24Z</time>
      </trkpt>
      <trkpt lat="44.27807" lon="6.2124">
        <ele>1725.2231445</ele>
        <time>2013-07-30T11:31:39Z</time>
      </trkpt>
      <trkpt lat="44.27799" lon="6.21235">
        <ele>1722.8198242</ele>
        <time>2013-07-30T11:32:02Z</time>
      </trkpt>
      <trkpt lat="44.27787" lon="6.21232">
        <ele>1719.935791</ele>
        <time>2013-07-30T11:32:23Z</time>
      </trkpt>
      <trkpt lat="44.27778" lon="6.21228">
        <ele>1716.5712891</ele>
        <time>2013-07-30T11:32:38Z</time>
      </trkpt>
      <trkpt lat="44.27764" lon="6.21224">
        <ele>1713.6872559</ele>
        <time>2013-07-30T11:32:56Z</time>
      </trkpt>
      <trkpt lat="44.27753" lon="6.21221">
        <ele>1711.2841797</ele>
        <time>2013-07-30T11:33:08Z</time>
      </trkpt>
      <trkpt lat="44.2774" lon="6.21217">
        <ele>1707.9194336</ele>
        <time>2013-07-30T11:33:24Z</time>
      </trkpt>
      <trkpt lat="44.27734" lon="6.21214">
        <ele>1706.4772949</ele>
        <time>2013-07-30T11:33:32Z</time>
      </trkpt>
      <trkpt lat="44.27713" lon="6.2121">
        <ele>1703.5935059</ele>
        <time>2013-07-30T11:33:54Z</time>
      </trkpt>
      <trkpt lat="44.27704" lon="6.21216">
        <ele>1701.1901855</ele>
        <time>2013-07-30T11:34:07Z</time>
      </trkpt>
      <trkpt lat="44.27691" lon="6.21204">
        <ele>1697.8256836</ele>
        <time>2013-07-30T11:34:29Z</time>
      </trkpt>
      <trkpt lat="44.2769" lon="6.21204">
        <ele>1697.8256836</ele>
        <time>2013-07-30T11:34:30Z</time>
      </trkpt>
      <trkpt lat="44.27683" lon="6.21187">
        <ele>1694.4609375</ele>
        <time>2013-07-30T11:34:47Z</time>
      </trkpt>
      <trkpt lat="44.27672" lon="6.2118">
        <ele>1692.5385742</ele>
        <time>2013-07-30T11:35:00Z</time>
      </trkpt>
      <trkpt lat="44.27657" lon="6.21167">
        <ele>1689.173584</ele>
        <time>2013-07-30T11:35:20Z</time>
      </trkpt>
      <trkpt lat="44.2765" lon="6.21162">
        <ele>1688.6931152</ele>
        <time>2013-07-30T11:35:27Z</time>
      </trkpt>
      <trkpt lat="44.27641" lon="6.21156">
        <ele>1688.2124023</ele>
        <time>2013-07-30T11:35:36Z</time>
      </trkpt>
      <trkpt lat="44.27639" lon="6.21153">
        <ele>1688.2124023</ele>
        <time>2013-07-30T11:35:38Z</time>
      </trkpt>
      <trkpt lat="44.2762" lon="6.2115">
        <ele>1687.2509766</ele>
        <time>2013-07-30T11:35:58Z</time>
      </trkpt>
      <trkpt lat="44.27608" lon="6.21155">
        <ele>1685.809082</ele>
        <time>2013-07-30T11:36:17Z</time>
      </trkpt>
      <trkpt lat="44.27609" lon="6.21155">
        <ele>1685.809082</ele>
        <time>2013-07-30T11:37:58Z</time>
      </trkpt>
      <trkpt lat="44.27611" lon="6.21155">
        <ele>1686.7702637</ele>
        <time>2013-07-30T11:40:27Z</time>
      </trkpt>
      <trkpt lat="44.27611" lon="6.21152">
        <ele>1686.2897949</ele>
        <time>2013-07-30T11:40:56Z</time>
      </trkpt>
      <trkpt lat="44.27611" lon="6.21152">
        <ele>1687.2509766</ele>
        <time>2013-07-30T11:41:01Z</time>
      </trkpt>
      <trkpt lat="44.27611" lon="6.21152">
        <ele>1686.7702637</ele>
        <time>2013-07-30T11:41:12Z</time>
      </trkpt>
      <trkpt lat="44.27611" lon="6.21152">
        <ele>1686.2897949</ele>
        <time>2013-07-30T11:41:17Z</time>
      </trkpt>
      <trkpt lat="44.27611" lon="6.21152">
        <ele>1688.6931152</ele>
        <time>2013-07-30T11:41:19Z</time>
      </trkpt>
      <trkpt lat="44.27611" lon="6.21152">
        <ele>1686.2897949</ele>
        <time>2013-07-30T11:41:26Z</time>
      </trkpt>
      <trkpt lat="44.27611" lon="6.21152">
        <ele>1685.809082</ele>
        <time>2013-07-30T11:41:33Z</time>
      </trkpt>
      <trkpt lat="44.27611" lon="6.21152">
        <ele>1684.8479004</ele>
        <time>2013-07-30T11:41:50Z</time>
      </trkpt>
      <trkpt lat="44.27611" lon="6.21154">
        <ele>1685.3283691</ele>
        <time>2013-07-30T11:42:27Z</time>
      </trkpt>
      <trkpt lat="44.27611" lon="6.21154">
        <ele>1687.7316895</ele>
        <time>2013-07-30T11:42:48Z</time>
      </trkpt>
      <trkpt lat="44.27611" lon="6.21154">
        <ele>1687.7316895</ele>
        <time>2013-07-30T11:42:59Z</time>
      </trkpt>
      <trkpt lat="44.27611" lon="6.21154">
        <ele>1685.809082</ele>
        <time>2013-07-30T11:43:03Z</time>
      </trkpt>
      <trkpt lat="44.27611" lon="6.21154">
        <ele>1687.2509766</ele>
        <time>2013-07-30T11:43:18Z</time>
      </trkpt>
      <trkpt lat="44.27611" lon="6.21154">
        <ele>1686.2897949</ele>
        <time>2013-07-30T11:43:36Z</time>
      </trkpt>
      <trkpt lat="44.27611" lon="6.21153">
        <ele>1686.2897949</ele>
        <time>2013-07-30T11:45:16Z</time>
      </trkpt>
      <trkpt lat="44.27611" lon="6.21153">
        <ele>1684.8479004</ele>
        <time>2013-07-30T11:45:34Z</time>
      </trkpt>
      <trkpt lat="44.27611" lon="6.21153">
        <ele>1682.9250488</ele>
        <time>2013-07-30T11:45:36Z</time>
      </trkpt>
      <trkpt lat="44.27611" lon="6.21154">
        <ele>1683.4057617</ele>
        <time>2013-07-30T11:46:09Z</time>
      </trkpt>
      <trkpt lat="44.27611" lon="6.21154">
        <ele>1686.2897949</ele>
        <time>2013-07-30T11:46:37Z</time>
      </trkpt>
      <trkpt lat="44.27611" lon="6.21154">
        <ele>1684.8479004</ele>
        <time>2013-07-30T11:49:20Z</time>
      </trkpt>
      <trkpt lat="44.2761" lon="6.21153">
        <ele>1681.9638672</ele>
        <time>2013-07-30T11:51:51Z</time>
      </trkpt>
      <trkpt lat="44.2761" lon="6.21153">
        <ele>1683.8864746</ele>
        <time>2013-07-30T11:52:40Z</time>
      </trkpt>
      <trkpt lat="44.2761" lon="6.21153">
        <ele>1685.3283691</ele>
        <time>2013-07-30T11:52:42Z</time>
      </trkpt>
      <trkpt lat="44.2761" lon="6.21154">
        <ele>1684.3671875</ele>
        <time>2013-07-30T11:56:34Z</time>
      </trkpt>
      <trkpt lat="44.27611" lon="6.21146">
        <ele>1683.8864746</ele>
        <time>2013-07-30T11:56:46Z</time>
      </trkpt>
      <trkpt lat="44.27612" lon="6.21144">
        <ele>1686.2897949</ele>
        <time>2013-07-30T11:56:48Z</time>
      </trkpt>
      <trkpt lat="44.27616" lon="6.21138">
        <ele>1685.809082</ele>
        <time>2013-07-30T11:57:00Z</time>
      </trkpt>
      <trkpt lat="44.27623" lon="6.21131">
        <ele>1687.2509766</ele>
        <time>2013-07-30T11:57:11Z</time>
      </trkpt>
      <trkpt lat="44.27623" lon="6.21128">
        <ele>1686.2897949</ele>
        <time>2013-07-30T11:57:13Z</time>
      </trkpt>
      <trkpt lat="44.2763" lon="6.21123">
        <ele>1685.3283691</ele>
        <time>2013-07-30T11:57:21Z</time>
      </trkpt>
      <trkpt lat="44.27641" lon="6.21103">
        <ele>1683.4057617</ele>
        <time>2013-07-30T11:57:42Z</time>
      </trkpt>
      <trkpt lat="44.27648" lon="6.21087">
        <ele>1682.4445801</ele>
        <time>2013-07-30T11:57:58Z</time>
      </trkpt>
      <trkpt lat="44.27647" lon="6.21082">
        <ele>1683.4057617</ele>
        <time>2013-07-30T11:58:02Z</time>
      </trkpt>
      <trkpt lat="44.27647" lon="6.21076">
        <ele>1681.9638672</ele>
        <time>2013-07-30T11:58:05Z</time>
      </trkpt>
      <trkpt lat="44.27646" lon="6.21049">
        <ele>1679.5605469</ele>
        <time>2013-07-30T11:58:24Z</time>
      </trkpt>
      <trkpt lat="44.2765" lon="6.21035">
        <ele>1677.6379395</ele>
        <time>2013-07-30T11:58:37Z</time>
      </trkpt>
      <trkpt lat="44.27652" lon="6.21025">
        <ele>1678.1186523</ele>
        <time>2013-07-30T11:58:44Z</time>
      </trkpt>
      <trkpt lat="44.27652" lon="6.21017">
        <ele>1676.1960449</ele>
        <time>2013-07-30T11:58:51Z</time>
      </trkpt>
      <trkpt lat="44.27652" lon="6.21016">
        <ele>1676.6767578</ele>
        <time>2013-07-30T11:58:52Z</time>
      </trkpt>
      <trkpt lat="44.27651" lon="6.21011">
        <ele>1677.6379395</ele>
        <time>2013-07-30T11:58:57Z</time>
      </trkpt>
      <trkpt lat="44.27649" lon="6.21">
        <ele>1673.3120117</ele>
        <time>2013-07-30T11:59:06Z</time>
      </trkpt>
      <trkpt lat="44.27649" lon="6.21">
        <ele>1673.3120117</ele>
        <time>2013-07-30T11:59:07Z</time>
      </trkpt>
      <trkpt lat="44.27648" lon="6.20997">
        <ele>1673.3120117</ele>
        <time>2013-07-30T11:59:09Z</time>
      </trkpt>
      <trkpt lat="44.27648" lon="6.2099">
        <ele>1672.8312988</ele>
        <time>2013-07-30T11:59:15Z</time>
      </trkpt>
      <trkpt lat="44.27649" lon="6.20984">
        <ele>1670.9086914</ele>
        <time>2013-07-30T11:59:21Z</time>
      </trkpt>
      <trkpt lat="44.2765" lon="6.20981">
        <ele>1669.9472656</ele>
        <time>2013-07-30T11:59:26Z</time>
      </trkpt>
      <trkpt lat="44.27649" lon="6.20968">
        <ele>1668.0246582</ele>
        <time>2013-07-30T11:59:40Z</time>
      </trkpt>
      <trkpt lat="44.27646" lon="6.2095">
        <ele>1665.1408691</ele>
        <time>2013-07-30T11:59:57Z</time>
      </trkpt>
      <trkpt lat="44.27642" lon="6.20939">
        <ele>1662.7375488</ele>
        <time>2013-07-30T12:00:09Z</time>
      </trkpt>
      <trkpt lat="44.27643" lon="6.20929">
        <ele>1660.3342285</ele>
        <time>2013-07-30T12:00:21Z</time>
      </trkpt>
      <trkpt lat="44.27638" lon="6.20912">
        <ele>1657.4501953</ele>
        <time>2013-07-30T12:00:38Z</time>
      </trkpt>
      <trkpt lat="44.27633" lon="6.20898">
        <ele>1654.0856934</ele>
        <time>2013-07-30T12:00:53Z</time>
      </trkpt>
      <trkpt lat="44.27632" lon="6.20881">
        <ele>1651.2016602</ele>
        <time>2013-07-30T12:01:11Z</time>
      </trkpt>
      <trkpt lat="44.27631" lon="6.2087">
        <ele>1648.317627</ele>
        <time>2013-07-30T12:01:29Z</time>
      </trkpt>
      <trkpt lat="44.27628" lon="6.2085">
        <ele>1644.953125</ele>
        <time>2013-07-30T12:01:45Z</time>
      </trkpt>
      <trkpt lat="44.27626" lon="6.20842">
        <ele>1643.5109863</ele>
        <time>2013-07-30T12:02:01Z</time>
      </trkpt>
      <trkpt lat="44.27635" lon="6.20837">
        <ele>1640.1464844</ele>
        <time>2013-07-30T12:02:13Z</time>
      </trkpt>
      <trkpt lat="44.27641" lon="6.20825">
        <ele>1637.2624512</ele>
        <time>2013-07-30T12:02:30Z</time>
      </trkpt>
      <trkpt lat="44.27639" lon="6.20811">
        <ele>1634.859375</ele>
        <time>2013-07-30T12:02:44Z</time>
      </trkpt>
      <trkpt lat="44.27636" lon="6.208">
        <ele>1632.9365234</ele>
        <time>2013-07-30T12:02:54Z</time>
      </trkpt>
      <trkpt lat="44.2763" lon="6.2078">
        <ele>1630.5334473</ele>
        <time>2013-07-30T12:03:14Z</time>
      </trkpt>
      <trkpt lat="44.27628" lon="6.20772">
        <ele>1629.5720215</ele>
        <time>2013-07-30T12:03:29Z</time>
      </trkpt>
      <trkpt lat="44.27632" lon="6.20776">
        <ele>1628.6108398</ele>
        <time>2013-07-30T12:04:11Z</time>
      </trkpt>
      <trkpt lat="44.27634" lon="6.20775">
        <ele>1629.5720215</ele>
        <time>2013-07-30T12:04:37Z</time>
      </trkpt>
      <trkpt lat="44.2763" lon="6.20777">
        <ele>1629.5720215</ele>
        <time>2013-07-30T12:05:27Z</time>
      </trkpt>
      <trkpt lat="44.27628" lon="6.20762">
        <ele>1626.2072754</ele>
        <time>2013-07-30T12:05:46Z</time>
      </trkpt>
      <trkpt lat="44.27624" lon="6.20755">
        <ele>1624.7653809</ele>
        <time>2013-07-30T12:05:55Z</time>
      </trkpt>
      <trkpt lat="44.27622" lon="6.20748">
        <ele>1623.3234863</ele>
        <time>2013-07-30T12:06:02Z</time>
      </trkpt>
      <trkpt lat="44.27617" lon="6.2073">
        <ele>1620.4394531</ele>
        <time>2013-07-30T12:06:19Z</time>
      </trkpt>
      <trkpt lat="44.27617" lon="6.20718">
        <ele>1619.4782715</ele>
        <time>2013-07-30T12:06:28Z</time>
      </trkpt>
      <trkpt lat="44.27616" lon="6.20698">
        <ele>1618.0361328</ele>
        <time>2013-07-30T12:06:46Z</time>
      </trkpt>
      <trkpt lat="44.27614" lon="6.20675">
        <ele>1617.0749512</ele>
        <time>2013-07-30T12:07:05Z</time>
      </trkpt>
      <trkpt lat="44.27615" lon="6.20659">
        <ele>1616.5942383</ele>
        <time>2013-07-30T12:07:15Z</time>
      </trkpt>
      <trkpt lat="44.27623" lon="6.20641">
        <ele>1616.5942383</ele>
        <time>2013-07-30T12:07:32Z</time>
      </trkpt>
      <trkpt lat="44.27632" lon="6.20628">
        <ele>1616.5942383</ele>
        <time>2013-07-30T12:07:48Z</time>
      </trkpt>
      <trkpt lat="44.27638" lon="6.20614">
        <ele>1616.5942383</ele>
        <time>2013-07-30T12:08:02Z</time>
      </trkpt>
      <trkpt lat="44.27643" lon="6.20605">
        <ele>1616.5942383</ele>
        <time>2013-07-30T12:08:17Z</time>
      </trkpt>
      <trkpt lat="44.27645" lon="6.20599">
        <ele>1616.1135254</ele>
        <time>2013-07-30T12:08:43Z</time>
      </trkpt>
      <trkpt lat="44.2764" lon="6.20598">
        <ele>1614.6716309</ele>
        <time>2013-07-30T12:08:59Z</time>
      </trkpt>
      <trkpt lat="44.27638" lon="6.20591">
        <ele>1615.1523438</ele>
        <time>2013-07-30T12:09:15Z</time>
      </trkpt>
      <trkpt lat="44.27636" lon="6.20577">
        <ele>1618.0361328</ele>
        <time>2013-07-30T12:09:31Z</time>
      </trkpt>
      <trkpt lat="44.27629" lon="6.20557">
        <ele>1619.4782715</ele>
        <time>2013-07-30T12:09:52Z</time>
      </trkpt>
      <trkpt lat="44.27629" lon="6.20533">
        <ele>1619.4782715</ele>
        <time>2013-07-30T12:10:14Z</time>
      </trkpt>
      <trkpt lat="44.27627" lon="6.2052">
        <ele>1619.9587402</ele>
        <time>2013-07-30T12:10:28Z</time>
      </trkpt>
      <trkpt lat="44.27625" lon="6.20505">
        <ele>1619.4782715</ele>
        <time>2013-07-30T12:10:44Z</time>
      </trkpt>
      <trkpt lat="44.27616" lon="6.20489">
        <ele>1616.5942383</ele>
        <time>2013-07-30T12:11:02Z</time>
      </trkpt>
      <trkpt lat="44.27612" lon="6.20465">
        <ele>1615.6330566</ele>
        <time>2013-07-30T12:11:34Z</time>
      </trkpt>
      <trkpt lat="44.27621" lon="6.20438">
        <ele>1614.190918</ele>
        <time>2013-07-30T12:12:01Z</time>
      </trkpt>
      <trkpt lat="44.27631" lon="6.20419">
        <ele>1612.7490234</ele>
        <time>2013-07-30T12:12:27Z</time>
      </trkpt>
      <trkpt lat="44.27644" lon="6.20404">
        <ele>1611.3068848</ele>
        <time>2013-07-30T12:12:42Z</time>
      </trkpt>
      <trkpt lat="44.27659" lon="6.20381">
        <ele>1608.4228516</ele>
        <time>2013-07-30T12:13:08Z</time>
      </trkpt>
      <trkpt lat="44.2766" lon="6.2038">
        <ele>1607.9423828</ele>
        <time>2013-07-30T12:13:09Z</time>
      </trkpt>
      <trkpt lat="44.27672" lon="6.20366">
        <ele>1607.4616699</ele>
        <time>2013-07-30T12:13:20Z</time>
      </trkpt>
      <trkpt lat="44.27687" lon="6.20342">
        <ele>1605.5390625</ele>
        <time>2013-07-30T12:13:41Z</time>
      </trkpt>
      <trkpt lat="44.27695" lon="6.20332">
        <ele>1606.5002441</ele>
        <time>2013-07-30T12:13:54Z</time>
      </trkpt>
      <trkpt lat="44.27699" lon="6.20331">
        <ele>1605.5390625</ele>
        <time>2013-07-30T12:13:58Z</time>
      </trkpt>
      <trkpt lat="44.27706" lon="6.2031">
        <ele>1604.5776367</ele>
        <time>2013-07-30T12:14:14Z</time>
      </trkpt>
      <trkpt lat="44.27714" lon="6.20297">
        <ele>1605.0583496</ele>
        <time>2013-07-30T12:14:22Z</time>
      </trkpt>
      <trkpt lat="44.27721" lon="6.20276">
        <ele>1602.6550293</ele>
        <time>2013-07-30T12:14:39Z</time>
      </trkpt>
      <trkpt lat="44.27722" lon="6.20274">
        <ele>1602.1743164</ele>
        <time>2013-07-30T12:14:41Z</time>
      </trkpt>
      <trkpt lat="44.27726" lon="6.20259">
        <ele>1602.6550293</ele>
        <time>2013-07-30T12:14:50Z</time>
      </trkpt>
      <trkpt lat="44.27726" lon="6.20255">
        <ele>1603.1357422</ele>
        <time>2013-07-30T12:14:53Z</time>
      </trkpt>
      <trkpt lat="44.27729" lon="6.20246">
        <ele>1601.6938477</ele>
        <time>2013-07-30T12:14:59Z</time>
      </trkpt>
      <trkpt lat="44.27731" lon="6.20239">
        <ele>1603.6164551</ele>
        <time>2013-07-30T12:15:03Z</time>
      </trkpt>
      <trkpt lat="44.27732" lon="6.20225">
        <ele>1602.6550293</ele>
        <time>2013-07-30T12:15:14Z</time>
      </trkpt>
      <trkpt lat="44.27736" lon="6.2021">
        <ele>1602.6550293</ele>
        <time>2013-07-30T12:15:25Z</time>
      </trkpt>
      <trkpt lat="44.27737" lon="6.20206">
        <ele>1602.1743164</ele>
        <time>2013-07-30T12:15:28Z</time>
      </trkpt>
      <trkpt lat="44.27737" lon="6.20188">
        <ele>1601.6938477</ele>
        <time>2013-07-30T12:15:43Z</time>
      </trkpt>
      <trkpt lat="44.27738" lon="6.20181">
        <ele>1599.7712402</ele>
        <time>2013-07-30T12:15:48Z</time>
      </trkpt>
      <trkpt lat="44.27739" lon="6.20175">
        <ele>1600.2519531</ele>
        <time>2013-07-30T12:15:53Z</time>
      </trkpt>
      <trkpt lat="44.27742" lon="6.20169">
        <ele>1599.7712402</ele>
        <time>2013-07-30T12:15:58Z</time>
      </trkpt>
      <trkpt lat="44.27745" lon="6.20163">
        <ele>1602.1743164</ele>
        <time>2013-07-30T12:16:06Z</time>
      </trkpt>
      <trkpt lat="44.27748" lon="6.20157">
        <ele>1599.7712402</ele>
        <time>2013-07-30T12:16:11Z</time>
      </trkpt>
      <trkpt lat="44.2775" lon="6.20154">
        <ele>1601.2131348</ele>
        <time>2013-07-30T12:16:15Z</time>
      </trkpt>
      <trkpt lat="44.27756" lon="6.20138">
        <ele>1599.2905273</ele>
        <time>2013-07-30T12:16:27Z</time>
      </trkpt>
      <trkpt lat="44.27767" lon="6.20106">
        <ele>1599.2905273</ele>
        <time>2013-07-30T12:16:51Z</time>
      </trkpt>
      <trkpt lat="44.27769" lon="6.20091">
        <ele>1599.7712402</ele>
        <time>2013-07-30T12:17:07Z</time>
      </trkpt>
      <trkpt lat="44.27768" lon="6.20072">
        <ele>1599.7712402</ele>
        <time>2013-07-30T12:17:30Z</time>
      </trkpt>
      <trkpt lat="44.27763" lon="6.20055">
        <ele>1597.3679199</ele>
        <time>2013-07-30T12:17:44Z</time>
      </trkpt>
      <trkpt lat="44.27759" lon="6.20049">
        <ele>1595.4450684</ele>
        <time>2013-07-30T12:17:50Z</time>
      </trkpt>
      <trkpt lat="44.27745" lon="6.20036">
        <ele>1595.4450684</ele>
        <time>2013-07-30T12:18:08Z</time>
      </trkpt>
      <trkpt lat="44.27744" lon="6.20016">
        <ele>1595.9257813</ele>
        <time>2013-07-30T12:18:28Z</time>
      </trkpt>
      <trkpt lat="44.27743" lon="6.20013">
        <ele>1595.9257813</ele>
        <time>2013-07-30T12:18:58Z</time>
      </trkpt>
      <trkpt lat="44.27747" lon="6.20017">
        <ele>1594.9643555</ele>
        <time>2013-07-30T12:19:23Z</time>
      </trkpt>
      <trkpt lat="44.27745" lon="6.19998">
        <ele>1595.4450684</ele>
        <time>2013-07-30T12:19:52Z</time>
      </trkpt>
      <trkpt lat="44.27745" lon="6.19979">
        <ele>1595.4450684</ele>
        <time>2013-07-30T12:20:08Z</time>
      </trkpt>
      <trkpt lat="44.2774" lon="6.19967">
        <ele>1594.9643555</ele>
        <time>2013-07-30T12:20:18Z</time>
      </trkpt>
      <trkpt lat="44.27738" lon="6.19964">
        <ele>1594.9643555</ele>
        <time>2013-07-30T12:20:20Z</time>
      </trkpt>
      <trkpt lat="44.27741" lon="6.19957">
        <ele>1594.4836426</ele>
        <time>2013-07-30T12:20:40Z</time>
      </trkpt>
      <trkpt lat="44.27747" lon="6.19946">
        <ele>1594.0031738</ele>
        <time>2013-07-30T12:20:47Z</time>
      </trkpt>
      <trkpt lat="44.27747" lon="6.19941">
        <ele>1594.4836426</ele>
        <time>2013-07-30T12:20:53Z</time>
      </trkpt>
      <trkpt lat="44.27751" lon="6.19947">
        <ele>1595.4450684</ele>
        <time>2013-07-30T12:21:02Z</time>
      </trkpt>
      <trkpt lat="44.27766" lon="6.1995">
        <ele>1596.4067383</ele>
        <time>2013-07-30T12:21:19Z</time>
      </trkpt>
      <trkpt lat="44.27773" lon="6.19947">
        <ele>1596.4067383</ele>
        <time>2013-07-30T12:22:12Z</time>
      </trkpt>
      <trkpt lat="44.27787" lon="6.19951">
        <ele>1598.3291016</ele>
        <time>2013-07-30T12:22:36Z</time>
      </trkpt>
      <trkpt lat="44.27788" lon="6.1995">
        <ele>1598.3291016</ele>
        <time>2013-07-30T12:22:37Z</time>
      </trkpt>
      <trkpt lat="44.2779" lon="6.19949">
        <ele>1598.8098145</ele>
        <time>2013-07-30T12:22:39Z</time>
      </trkpt>
      <trkpt lat="44.2781" lon="6.19941">
        <ele>1600.2519531</ele>
        <time>2013-07-30T12:22:54Z</time>
      </trkpt>
      <trkpt lat="44.27825" lon="6.19922">
        <ele>1601.6938477</ele>
        <time>2013-07-30T12:23:09Z</time>
      </trkpt>
      <trkpt lat="44.27832" lon="6.19907">
        <ele>1602.1743164</ele>
        <time>2013-07-30T12:23:24Z</time>
      </trkpt>
      <trkpt lat="44.27849" lon="6.19883">
        <ele>1601.6938477</ele>
        <time>2013-07-30T12:23:46Z</time>
      </trkpt>
      <trkpt lat="44.27858" lon="6.19863">
        <ele>1604.097168</ele>
        <time>2013-07-30T12:24:09Z</time>
      </trkpt>
      <trkpt lat="44.27862" lon="6.19839">
        <ele>1606.0195313</ele>
        <time>2013-07-30T12:24:35Z</time>
      </trkpt>
      <trkpt lat="44.27869" lon="6.19807">
        <ele>1607.4616699</ele>
        <time>2013-07-30T12:24:58Z</time>
      </trkpt>
      <trkpt lat="44.27876" lon="6.19793">
        <ele>1607.9423828</ele>
        <time>2013-07-30T12:25:07Z</time>
      </trkpt>
      <trkpt lat="44.27874" lon="6.19777">
        <ele>1606.5002441</ele>
        <time>2013-07-30T12:25:25Z</time>
      </trkpt>
      <trkpt lat="44.27872" lon="6.19773">
        <ele>1607.4616699</ele>
        <time>2013-07-30T12:25:45Z</time>
      </trkpt>
      <trkpt lat="44.2787" lon="6.1976">
        <ele>1607.9423828</ele>
        <time>2013-07-30T12:25:55Z</time>
      </trkpt>
      <trkpt lat="44.27863" lon="6.19747">
        <ele>1607.9423828</ele>
        <time>2013-07-30T12:26:08Z</time>
      </trkpt>
      <trkpt lat="44.27857" lon="6.19736">
        <ele>1606.5002441</ele>
        <time>2013-07-30T12:26:15Z</time>
      </trkpt>
      <trkpt lat="44.27851" lon="6.1972">
        <ele>1604.5776367</ele>
        <time>2013-07-30T12:26:36Z</time>
      </trkpt>
      <trkpt lat="44.27837" lon="6.19699">
        <ele>1603.1357422</ele>
        <time>2013-07-30T12:26:53Z</time>
      </trkpt>
      <trkpt lat="44.27835" lon="6.19683">
        <ele>1605.0583496</ele>
        <time>2013-07-30T12:27:03Z</time>
      </trkpt>
      <trkpt lat="44.27839" lon="6.19679">
        <ele>1606.0195313</ele>
        <time>2013-07-30T12:27:17Z</time>
      </trkpt>
      <trkpt lat="44.27844" lon="6.19673">
        <ele>1606.0195313</ele>
        <time>2013-07-30T12:27:31Z</time>
      </trkpt>
      <trkpt lat="44.27844" lon="6.19673">
        <ele>1604.5776367</ele>
        <time>2013-07-30T12:27:33Z</time>
      </trkpt>
      <trkpt lat="44.27845" lon="6.19644">
        <ele>1606.5002441</ele>
        <time>2013-07-30T12:27:53Z</time>
      </trkpt>
      <trkpt lat="44.2785" lon="6.19636">
        <ele>1605.5390625</ele>
        <time>2013-07-30T12:28:04Z</time>
      </trkpt>
      <trkpt lat="44.27863" lon="6.19618">
        <ele>1606.980957</ele>
        <time>2013-07-30T12:28:24Z</time>
      </trkpt>
      <trkpt lat="44.27867" lon="6.19614">
        <ele>1607.4616699</ele>
        <time>2013-07-30T12:28:29Z</time>
      </trkpt>
      <trkpt lat="44.27871" lon="6.19605">
        <ele>1608.9035645</ele>
        <time>2013-07-30T12:28:42Z</time>
      </trkpt>
      <trkpt lat="44.27877" lon="6.19592">
        <ele>1608.9035645</ele>
        <time>2013-07-30T12:28:53Z</time>
      </trkpt>
      <trkpt lat="44.27874" lon="6.19577">
        <ele>1609.8647461</ele>
        <time>2013-07-30T12:29:06Z</time>
      </trkpt>
      <trkpt lat="44.27883" lon="6.19561">
        <ele>1610.345459</ele>
        <time>2013-07-30T12:29:24Z</time>
      </trkpt>
      <trkpt lat="44.2789" lon="6.19555">
        <ele>1610.8261719</ele>
        <time>2013-07-30T12:29:28Z</time>
      </trkpt>
      <trkpt lat="44.279" lon="6.19527">
        <ele>1611.7875977</ele>
        <time>2013-07-30T12:29:45Z</time>
      </trkpt>
      <trkpt lat="44.27908" lon="6.1951">
        <ele>1612.2683105</ele>
        <time>2013-07-30T12:29:57Z</time>
      </trkpt>
      <trkpt lat="44.27911" lon="6.19499">
        <ele>1612.7490234</ele>
        <time>2013-07-30T12:30:11Z</time>
      </trkpt>
      <trkpt lat="44.27914" lon="6.19492">
        <ele>1612.7490234</ele>
        <time>2013-07-30T12:30:23Z</time>
      </trkpt>
      <trkpt lat="44.27924" lon="6.19482">
        <ele>1612.2683105</ele>
        <time>2013-07-30T12:30:35Z</time>
      </trkpt>
      <trkpt lat="44.27929" lon="6.1948">
        <ele>1611.7875977</ele>
        <time>2013-07-30T12:30:46Z</time>
      </trkpt>
      <trkpt lat="44.27945" lon="6.19473">
        <ele>1611.3068848</ele>
        <time>2013-07-30T12:30:58Z</time>
      </trkpt>
      <trkpt lat="44.27958" lon="6.19463">
        <ele>1610.8261719</ele>
        <time>2013-07-30T12:31:12Z</time>
      </trkpt>
      <trkpt lat="44.27975" lon="6.19452">
        <ele>1610.8261719</ele>
        <time>2013-07-30T12:31:26Z</time>
      </trkpt>
      <trkpt lat="44.27977" lon="6.19447">
        <ele>1610.345459</ele>
        <time>2013-07-30T12:31:31Z</time>
      </trkpt>
      <trkpt lat="44.2799" lon="6.19434">
        <ele>1611.3068848</ele>
        <time>2013-07-30T12:31:45Z</time>
      </trkpt>
      <trkpt lat="44.27995" lon="6.19423">
        <ele>1611.3068848</ele>
        <time>2013-07-30T12:31:58Z</time>
      </trkpt>
      <trkpt lat="44.28004" lon="6.19413">
        <ele>1611.7875977</ele>
        <time>2013-07-30T12:32:12Z</time>
      </trkpt>
      <trkpt lat="44.28012" lon="6.19406">
        <ele>1612.2683105</ele>
        <time>2013-07-30T12:32:23Z</time>
      </trkpt>
      <trkpt lat="44.28045" lon="6.19394">
        <ele>1612.7490234</ele>
        <time>2013-07-30T12:32:43Z</time>
      </trkpt>
      <trkpt lat="44.28049" lon="6.19394">
        <ele>1612.7490234</ele>
        <time>2013-07-30T12:32:46Z</time>
      </trkpt>
      <trkpt lat="44.28058" lon="6.19394">
        <ele>1612.2683105</ele>
        <time>2013-07-30T12:32:54Z</time>
      </trkpt>
      <trkpt lat="44.28076" lon="6.19387">
        <ele>1612.7490234</ele>
        <time>2013-07-30T12:33:10Z</time>
      </trkpt>
      <trkpt lat="44.28096" lon="6.19374">
        <ele>1612.7490234</ele>
        <time>2013-07-30T12:33:24Z</time>
      </trkpt>
      <trkpt lat="44.28105" lon="6.19364">
        <ele>1612.7490234</ele>
        <time>2013-07-30T12:33:37Z</time>
      </trkpt>
      <trkpt lat="44.28115" lon="6.19343">
        <ele>1610.8261719</ele>
        <time>2013-07-30T12:33:56Z</time>
      </trkpt>
      <trkpt lat="44.28133" lon="6.19328">
        <ele>1608.4228516</ele>
        <time>2013-07-30T12:34:14Z</time>
      </trkpt>
      <trkpt lat="44.28136" lon="6.19326">
        <ele>1606.980957</ele>
        <time>2013-07-30T12:34:17Z</time>
      </trkpt>
      <trkpt lat="44.28153" lon="6.19307">
        <ele>1606.0195313</ele>
        <time>2013-07-30T12:34:34Z</time>
      </trkpt>
      <trkpt lat="44.28153" lon="6.19303">
        <ele>1607.4616699</ele>
        <time>2013-07-30T12:34:37Z</time>
      </trkpt>
      <trkpt lat="44.28155" lon="6.19301">
        <ele>1606.980957</ele>
        <time>2013-07-30T12:34:39Z</time>
      </trkpt>
      <trkpt lat="44.28155" lon="6.19288">
        <ele>1606.0195313</ele>
        <time>2013-07-30T12:34:49Z</time>
      </trkpt>
      <trkpt lat="44.28156" lon="6.19285">
        <ele>1606.0195313</ele>
        <time>2013-07-30T12:34:51Z</time>
      </trkpt>
      <trkpt lat="44.28156" lon="6.19281">
        <ele>1606.0195313</ele>
        <time>2013-07-30T12:34:54Z</time>
      </trkpt>
      <trkpt lat="44.2816" lon="6.19277">
        <ele>1606.0195313</ele>
        <time>2013-07-30T12:34:58Z</time>
      </trkpt>
      <trkpt lat="44.2816" lon="6.19276">
        <ele>1606.5002441</ele>
        <time>2013-07-30T12:35:01Z</time>
      </trkpt>
      <trkpt lat="44.2816" lon="6.19274">
        <ele>1605.0583496</ele>
        <time>2013-07-30T12:35:03Z</time>
      </trkpt>
      <trkpt lat="44.28167" lon="6.19257">
        <ele>1605.5390625</ele>
        <time>2013-07-30T12:35:16Z</time>
      </trkpt>
      <trkpt lat="44.28175" lon="6.19242">
        <ele>1607.4616699</ele>
        <time>2013-07-30T12:35:31Z</time>
      </trkpt>
      <trkpt lat="44.28183" lon="6.19228">
        <ele>1607.9423828</ele>
        <time>2013-07-30T12:35:46Z</time>
      </trkpt>
      <trkpt lat="44.28191" lon="6.19216">
        <ele>1608.9035645</ele>
        <time>2013-07-30T12:36:02Z</time>
      </trkpt>
      <trkpt lat="44.2819" lon="6.19213">
        <ele>1609.8647461</ele>
        <time>2013-07-30T12:36:10Z</time>
      </trkpt>
      <trkpt lat="44.28191" lon="6.19211">
        <ele>1608.4228516</ele>
        <time>2013-07-30T12:36:17Z</time>
      </trkpt>
      <trkpt lat="44.28065" lon="6.1902">
        <ele>1608.9035645</ele>
        <time>2013-07-30T12:36:33Z</time>
      </trkpt>
      <trkpt lat="44.28072" lon="6.19">
        <ele>1608.4228516</ele>
        <time>2013-07-30T12:36:50Z</time>
      </trkpt>
      <trkpt lat="44.28071" lon="6.1896">
        <ele>1607.4616699</ele>
        <time>2013-07-30T12:37:23Z</time>
      </trkpt>
      <trkpt lat="44.28069" lon="6.18937">
        <ele>1605.5390625</ele>
        <time>2013-07-30T12:37:39Z</time>
      </trkpt>
      <trkpt lat="44.2807" lon="6.18922">
        <ele>1604.097168</ele>
        <time>2013-07-30T12:37:51Z</time>
      </trkpt>
      <trkpt lat="44.28065" lon="6.18884">
        <ele>1602.6550293</ele>
        <time>2013-07-30T12:38:14Z</time>
      </trkpt>
      <trkpt lat="44.28074" lon="6.18857">
        <ele>1605.0583496</ele>
        <time>2013-07-30T12:38:33Z</time>
      </trkpt>
      <trkpt lat="44.28074" lon="6.18856">
        <ele>1605.0583496</ele>
        <time>2013-07-30T12:38:34Z</time>
      </trkpt>
      <trkpt lat="44.28064" lon="6.18836">
        <ele>1604.097168</ele>
        <time>2013-07-30T12:38:51Z</time>
      </trkpt>
      <trkpt lat="44.28061" lon="6.1882">
        <ele>1604.5776367</ele>
        <time>2013-07-30T12:39:09Z</time>
      </trkpt>
      <trkpt lat="44.2807" lon="6.18817">
        <ele>1603.1357422</ele>
        <time>2013-07-30T12:39:24Z</time>
      </trkpt>
      <trkpt lat="44.28076" lon="6.18812">
        <ele>1603.1357422</ele>
        <time>2013-07-30T12:39:45Z</time>
      </trkpt>
      <trkpt lat="44.28077" lon="6.18811">
        <ele>1604.097168</ele>
        <time>2013-07-30T12:39:50Z</time>
      </trkpt>
      <trkpt lat="44.28074" lon="6.18814">
        <ele>1603.1357422</ele>
        <time>2013-07-30T12:40:41Z</time>
      </trkpt>
      <trkpt lat="44.28074" lon="6.18814">
        <ele>1602.6550293</ele>
        <time>2013-07-30T12:41:04Z</time>
      </trkpt>
      <trkpt lat="44.28075" lon="6.18809">
        <ele>1602.1743164</ele>
        <time>2013-07-30T12:41:08Z</time>
      </trkpt>
      <trkpt lat="44.28086" lon="6.18784">
        <ele>1601.2131348</ele>
        <time>2013-07-30T12:41:27Z</time>
      </trkpt>
      <trkpt lat="44.28087" lon="6.18782">
        <ele>1600.7324219</ele>
        <time>2013-07-30T12:41:28Z</time>
      </trkpt>
      <trkpt lat="44.2809" lon="6.1878">
        <ele>1601.6938477</ele>
        <time>2013-07-30T12:41:31Z</time>
      </trkpt>
      <trkpt lat="44.28092" lon="6.18779">
        <ele>1600.2519531</ele>
        <time>2013-07-30T12:41:34Z</time>
      </trkpt>
      <trkpt lat="44.28097" lon="6.18772">
        <ele>1599.7712402</ele>
        <time>2013-07-30T12:41:41Z</time>
      </trkpt>
      <trkpt lat="44.2811" lon="6.18747">
        <ele>1598.8098145</ele>
        <time>2013-07-30T12:42:03Z</time>
      </trkpt>
      <trkpt lat="44.2812" lon="6.18732">
        <ele>1596.4067383</ele>
        <time>2013-07-30T12:42:21Z</time>
      </trkpt>
      <trkpt lat="44.28132" lon="6.18727">
        <ele>1595.9257813</ele>
        <time>2013-07-30T12:42:34Z</time>
      </trkpt>
      <trkpt lat="44.28136" lon="6.18727">
        <ele>1594.4836426</ele>
        <time>2013-07-30T12:42:37Z</time>
      </trkpt>
      <trkpt lat="44.28141" lon="6.18735">
        <ele>1593.5224609</ele>
        <time>2013-07-30T12:42:46Z</time>
      </trkpt>
      <trkpt lat="44.28142" lon="6.18752">
        <ele>1593.041748</ele>
        <time>2013-07-30T12:43:02Z</time>
      </trkpt>
      <trkpt lat="44.28155" lon="6.1875">
        <ele>1591.5998535</ele>
        <time>2013-07-30T12:43:13Z</time>
      </trkpt>
      <trkpt lat="44.28156" lon="6.18748">
        <ele>1591.5998535</ele>
        <time>2013-07-30T12:43:15Z</time>
      </trkpt>
      <trkpt lat="44.2816" lon="6.18729">
        <ele>1590.157959</ele>
        <time>2013-07-30T12:43:31Z</time>
      </trkpt>
      <trkpt lat="44.28163" lon="6.18705">
        <ele>1588.7160645</ele>
        <time>2013-07-30T12:43:48Z</time>
      </trkpt>
      <trkpt lat="44.28173" lon="6.1869">
        <ele>1586.7932129</ele>
        <time>2013-07-30T12:44:02Z</time>
      </trkpt>
      <trkpt lat="44.28174" lon="6.18684">
        <ele>1586.7932129</ele>
        <time>2013-07-30T12:44:08Z</time>
      </trkpt>
      <trkpt lat="44.28159" lon="6.18682">
        <ele>1585.3513184</ele>
        <time>2013-07-30T12:44:24Z</time>
      </trkpt>
      <trkpt lat="44.28153" lon="6.18679">
        <ele>1584.8708496</ele>
        <time>2013-07-30T12:44:29Z</time>
      </trkpt>
      <trkpt lat="44.28144" lon="6.18677">
        <ele>1582.4675293</ele>
        <time>2013-07-30T12:44:41Z</time>
      </trkpt>
      <trkpt lat="44.28139" lon="6.18676">
        <ele>1582.4675293</ele>
        <time>2013-07-30T12:44:52Z</time>
      </trkpt>
      <trkpt lat="44.28137" lon="6.18674">
        <ele>1582.947998</ele>
        <time>2013-07-30T12:44:55Z</time>
      </trkpt>
      <trkpt lat="44.28135" lon="6.18674">
        <ele>1581.0256348</ele>
        <time>2013-07-30T12:44:58Z</time>
      </trkpt>
      <trkpt lat="44.28124" lon="6.18666">
        <ele>1580.5449219</ele>
        <time>2013-07-30T12:45:19Z</time>
      </trkpt>
      <trkpt lat="44.28101" lon="6.18663">
        <ele>1577.6606445</ele>
        <time>2013-07-30T12:45:44Z</time>
      </trkpt>
      <trkpt lat="44.28082" lon="6.18652">
        <ele>1576.21875</ele>
        <time>2013-07-30T12:46:09Z</time>
      </trkpt>
      <trkpt lat="44.28047" lon="6.18643">
        <ele>1575.2573242</ele>
        <time>2013-07-30T12:46:32Z</time>
      </trkpt>
      <trkpt lat="44.28032" lon="6.1864">
        <ele>1574.2961426</ele>
        <time>2013-07-30T12:46:50Z</time>
      </trkpt>
      <trkpt lat="44.2799" lon="6.18649">
        <ele>1573.3349609</ele>
        <time>2013-07-30T12:47:12Z</time>
      </trkpt>
      <trkpt lat="44.27973" lon="6.18651">
        <ele>1572.3735352</ele>
        <time>2013-07-30T12:47:27Z</time>
      </trkpt>
      <trkpt lat="44.2797" lon="6.18643">
        <ele>1571.4121094</ele>
        <time>2013-07-30T12:47:36Z</time>
      </trkpt>
      <trkpt lat="44.27959" lon="6.18639">
        <ele>1571.8928223</ele>
        <time>2013-07-30T12:47:51Z</time>
      </trkpt>
      <trkpt lat="44.27963" lon="6.18629">
        <ele>1571.8928223</ele>
        <time>2013-07-30T12:48:06Z</time>
      </trkpt>
      <trkpt lat="44.27992" lon="6.186">
        <ele>1572.3735352</ele>
        <time>2013-07-30T12:48:26Z</time>
      </trkpt>
      <trkpt lat="44.28004" lon="6.18585">
        <ele>1573.3349609</ele>
        <time>2013-07-30T12:48:42Z</time>
      </trkpt>
      <trkpt lat="44.28009" lon="6.18583">
        <ele>1572.854248</ele>
        <time>2013-07-30T12:48:47Z</time>
      </trkpt>
      <trkpt lat="44.28026" lon="6.18569">
        <ele>1573.3349609</ele>
        <time>2013-07-30T12:49:04Z</time>
      </trkpt>
      <trkpt lat="44.28035" lon="6.1855">
        <ele>1573.3349609</ele>
        <time>2013-07-30T12:49:20Z</time>
      </trkpt>
      <trkpt lat="44.28054" lon="6.18514">
        <ele>1572.854248</ele>
        <time>2013-07-30T12:49:42Z</time>
      </trkpt>
      <trkpt lat="44.28066" lon="6.18499">
        <ele>1572.854248</ele>
        <time>2013-07-30T12:49:59Z</time>
      </trkpt>
      <trkpt lat="44.28068" lon="6.18497">
        <ele>1572.3735352</ele>
        <time>2013-07-30T12:50:04Z</time>
      </trkpt>
      <trkpt lat="44.28078" lon="6.18479">
        <ele>1572.3735352</ele>
        <time>2013-07-30T12:50:19Z</time>
      </trkpt>
      <trkpt lat="44.28074" lon="6.18473">
        <ele>1571.8928223</ele>
        <time>2013-07-30T12:50:37Z</time>
      </trkpt>
      <trkpt lat="44.28071" lon="6.18459">
        <ele>1571.8928223</ele>
        <time>2013-07-30T12:50:52Z</time>
      </trkpt>
      <trkpt lat="44.28071" lon="6.18434">
        <ele>1571.4121094</ele>
        <time>2013-07-30T12:51:04Z</time>
      </trkpt>
      <trkpt lat="44.28076" lon="6.18416">
        <ele>1569.9702148</ele>
        <time>2013-07-30T12:51:17Z</time>
      </trkpt>
      <trkpt lat="44.2808" lon="6.18406">
        <ele>1569.4897461</ele>
        <time>2013-07-30T12:51:24Z</time>
      </trkpt>
      <trkpt lat="44.28098" lon="6.18383">
        <ele>1568.5283203</ele>
        <time>2013-07-30T12:51:40Z</time>
      </trkpt>
      <trkpt lat="44.28104" lon="6.18377">
        <ele>1568.5283203</ele>
        <time>2013-07-30T12:51:43Z</time>
      </trkpt>
      <trkpt lat="44.2811" lon="6.18364">
        <ele>1568.5283203</ele>
        <time>2013-07-30T12:51:53Z</time>
      </trkpt>
      <trkpt lat="44.28112" lon="6.1836">
        <ele>1568.5283203</ele>
        <time>2013-07-30T12:51:55Z</time>
      </trkpt>
      <trkpt lat="44.28116" lon="6.18355">
        <ele>1568.5283203</ele>
        <time>2013-07-30T12:52:01Z</time>
      </trkpt>
      <trkpt lat="44.28116" lon="6.18351">
        <ele>1568.5283203</ele>
        <time>2013-07-30T12:52:04Z</time>
      </trkpt>
      <trkpt lat="44.28116" lon="6.18339">
        <ele>1568.0476074</ele>
        <time>2013-07-30T12:52:17Z</time>
      </trkpt>
      <trkpt lat="44.28122" lon="6.18329">
        <ele>1566.6057129</ele>
        <time>2013-07-30T12:52:31Z</time>
      </trkpt>
      <trkpt lat="44.28143" lon="6.18315">
        <ele>1565.1638184</ele>
        <time>2013-07-30T12:52:51Z</time>
      </trkpt>
      <trkpt lat="44.28168" lon="6.18312">
        <ele>1563.7214355</ele>
        <time>2013-07-30T12:53:14Z</time>
      </trkpt>
      <trkpt lat="44.28178" lon="6.18312">
        <ele>1562.7602539</ele>
        <time>2013-07-30T12:53:22Z</time>
      </trkpt>
      <trkpt lat="44.28193" lon="6.1831">
        <ele>1561.3183594</ele>
        <time>2013-07-30T12:53:43Z</time>
      </trkpt>
      <trkpt lat="44.28209" lon="6.18297">
        <ele>1559.395752</ele>
        <time>2013-07-30T12:54:12Z</time>
      </trkpt>
      <trkpt lat="44.28212" lon="6.18294">
        <ele>1559.395752</ele>
        <time>2013-07-30T12:54:16Z</time>
      </trkpt>
      <trkpt lat="44.2823" lon="6.18282">
        <ele>1557.9538574</ele>
        <time>2013-07-30T12:54:34Z</time>
      </trkpt>
      <trkpt lat="44.28238" lon="6.18256">
        <ele>1556.9924316</ele>
        <time>2013-07-30T12:54:56Z</time>
      </trkpt>
      <trkpt lat="44.28239" lon="6.18252">
        <ele>1556.9924316</ele>
        <time>2013-07-30T12:54:59Z</time>
      </trkpt>
      <trkpt lat="44.28244" lon="6.18225">
        <ele>1556.9924316</ele>
        <time>2013-07-30T12:55:19Z</time>
      </trkpt>
      <trkpt lat="44.28247" lon="6.18215">
        <ele>1556.0310059</ele>
        <time>2013-07-30T12:55:28Z</time>
      </trkpt>
      <trkpt lat="44.28251" lon="6.18204">
        <ele>1556.5117188</ele>
        <time>2013-07-30T12:55:49Z</time>
      </trkpt>
      <trkpt lat="44.28246" lon="6.18191">
        <ele>1556.0310059</ele>
        <time>2013-07-30T12:56:07Z</time>
      </trkpt>
      <trkpt lat="44.28243" lon="6.18179">
        <ele>1556.0310059</ele>
        <time>2013-07-30T12:56:23Z</time>
      </trkpt>
      <trkpt lat="44.28245" lon="6.18179">
        <ele>1556.0310059</ele>
        <time>2013-07-30T12:56:34Z</time>
      </trkpt>
      <trkpt lat="44.28244" lon="6.18179">
        <ele>1554.1086426</ele>
        <time>2013-07-30T12:57:05Z</time>
      </trkpt>
      <trkpt lat="44.28244" lon="6.18179">
        <ele>1557.4731445</ele>
        <time>2013-07-30T12:57:09Z</time>
      </trkpt>
      <trkpt lat="44.28244" lon="6.18179">
        <ele>1557.4731445</ele>
        <time>2013-07-30T12:57:10Z</time>
      </trkpt>
      <trkpt lat="44.28244" lon="6.18179">
        <ele>1555.0698242</ele>
        <time>2013-07-30T12:57:12Z</time>
      </trkpt>
      <trkpt lat="44.28244" lon="6.18179">
        <ele>1554.5891113</ele>
        <time>2013-07-30T12:59:03Z</time>
      </trkpt>
      <trkpt lat="44.28247" lon="6.18187">
        <ele>1554.5891113</ele>
        <time>2013-07-30T12:59:35Z</time>
      </trkpt>
      <trkpt lat="44.28255" lon="6.18198">
        <ele>1554.5891113</ele>
        <time>2013-07-30T12:59:45Z</time>
      </trkpt>
      <trkpt lat="44.28255" lon="6.182">
        <ele>1555.0698242</ele>
        <time>2013-07-30T12:59:47Z</time>
      </trkpt>
      <trkpt lat="44.28249" lon="6.18207">
        <ele>1554.1086426</ele>
        <time>2013-07-30T13:00:04Z</time>
      </trkpt>
      <trkpt lat="44.28256" lon="6.18205">
        <ele>1555.0698242</ele>
        <time>2013-07-30T13:00:17Z</time>
      </trkpt>
      <trkpt lat="44.28273" lon="6.18203">
        <ele>1555.5505371</ele>
        <time>2013-07-30T13:00:31Z</time>
      </trkpt>
      <trkpt lat="44.28285" lon="6.18204">
        <ele>1556.0310059</ele>
        <time>2013-07-30T13:00:42Z</time>
      </trkpt>
      <trkpt lat="44.28313" lon="6.18203">
        <ele>1556.5117188</ele>
        <time>2013-07-30T13:01:07Z</time>
      </trkpt>
      <trkpt lat="44.28338" lon="6.18208">
        <ele>1557.4731445</ele>
        <time>2013-07-30T13:01:32Z</time>
      </trkpt>
      <trkpt lat="44.28362" lon="6.18215">
        <ele>1558.4343262</ele>
        <time>2013-07-30T13:01:53Z</time>
      </trkpt>
      <trkpt lat="44.28382" lon="6.18222">
        <ele>1558.9150391</ele>
        <time>2013-07-30T13:02:10Z</time>
      </trkpt>
      <trkpt lat="44.28385" lon="6.18222">
        <ele>1558.9150391</ele>
        <time>2013-07-30T13:02:13Z</time>
      </trkpt>
      <trkpt lat="44.28388" lon="6.18223">
        <ele>1558.9150391</ele>
        <time>2013-07-30T13:02:16Z</time>
      </trkpt>
      <trkpt lat="44.2839" lon="6.18225">
        <ele>1558.9150391</ele>
        <time>2013-07-30T13:02:19Z</time>
      </trkpt>
      <trkpt lat="44.28399" lon="6.18224">
        <ele>1559.395752</ele>
        <time>2013-07-30T13:02:30Z</time>
      </trkpt>
      <trkpt lat="44.28422" lon="6.18219">
        <ele>1559.395752</ele>
        <time>2013-07-30T13:02:48Z</time>
      </trkpt>
      <trkpt lat="44.28423" lon="6.18218">
        <ele>1559.395752</ele>
        <time>2013-07-30T13:02:50Z</time>
      </trkpt>
      <trkpt lat="44.28445" lon="6.18211">
        <ele>1559.395752</ele>
        <time>2013-07-30T13:03:10Z</time>
      </trkpt>
      <trkpt lat="44.28454" lon="6.18203">
        <ele>1559.8762207</ele>
        <time>2013-07-30T13:03:22Z</time>
      </trkpt>
      <trkpt lat="44.28456" lon="6.18204">
        <ele>1560.3569336</ele>
        <time>2013-07-30T13:03:36Z</time>
      </trkpt>
      <trkpt lat="44.2847" lon="6.18202">
        <ele>1558.9150391</ele>
        <time>2013-07-30T13:03:55Z</time>
      </trkpt>
      <trkpt lat="44.28476" lon="6.18202">
        <ele>1559.8762207</ele>
        <time>2013-07-30T13:04:02Z</time>
      </trkpt>
      <trkpt lat="44.28489" lon="6.182">
        <ele>1557.9538574</ele>
        <time>2013-07-30T13:04:16Z</time>
      </trkpt>
      <trkpt lat="44.28512" lon="6.18197">
        <ele>1556.9924316</ele>
        <time>2013-07-30T13:04:39Z</time>
      </trkpt>
      <trkpt lat="44.28523" lon="6.18196">
        <ele>1556.0310059</ele>
        <time>2013-07-30T13:04:52Z</time>
      </trkpt>
      <trkpt lat="44.28532" lon="6.18196">
        <ele>1555.0698242</ele>
        <time>2013-07-30T13:05:07Z</time>
      </trkpt>
      <trkpt lat="44.28534" lon="6.18205">
        <ele>1555.5505371</ele>
        <time>2013-07-30T13:05:21Z</time>
      </trkpt>
      <trkpt lat="44.28547" lon="6.182">
        <ele>1554.5891113</ele>
        <time>2013-07-30T13:05:38Z</time>
      </trkpt>
      <trkpt lat="44.28562" lon="6.18194">
        <ele>1553.6279297</ele>
        <time>2013-07-30T13:05:52Z</time>
      </trkpt>
      <trkpt lat="44.28569" lon="6.18188">
        <ele>1553.1472168</ele>
        <time>2013-07-30T13:06:00Z</time>
      </trkpt>
      <trkpt lat="44.28575" lon="6.18173">
        <ele>1551.2246094</ele>
        <time>2013-07-30T13:06:18Z</time>
      </trkpt>
      <trkpt lat="44.2859" lon="6.18163">
        <ele>1549.7827148</ele>
        <time>2013-07-30T13:06:33Z</time>
      </trkpt>
      <trkpt lat="44.28594" lon="6.18161">
        <ele>1549.302002</ele>
        <time>2013-07-30T13:06:36Z</time>
      </trkpt>
      <trkpt lat="44.28604" lon="6.18155">
        <ele>1549.7827148</ele>
        <time>2013-07-30T13:06:44Z</time>
      </trkpt>
      <trkpt lat="44.28611" lon="6.18156">
        <ele>1549.302002</ele>
        <time>2013-07-30T13:06:51Z</time>
      </trkpt>
      <trkpt lat="44.28623" lon="6.18147">
        <ele>1548.8212891</ele>
        <time>2013-07-30T13:07:06Z</time>
      </trkpt>
      <trkpt lat="44.28629" lon="6.18145">
        <ele>1549.302002</ele>
        <time>2013-07-30T13:07:15Z</time>
      </trkpt>
      <trkpt lat="44.28636" lon="6.1814">
        <ele>1548.8212891</ele>
        <time>2013-07-30T13:07:21Z</time>
      </trkpt>
      <trkpt lat="44.28635" lon="6.18131">
        <ele>1548.8212891</ele>
        <time>2013-07-30T13:07:36Z</time>
      </trkpt>
      <trkpt lat="44.28631" lon="6.18134">
        <ele>1547.8598633</ele>
        <time>2013-07-30T13:08:08Z</time>
      </trkpt>
      <trkpt lat="44.28626" lon="6.18134">
        <ele>1548.3405762</ele>
        <time>2013-07-30T13:09:05Z</time>
      </trkpt>
      <trkpt lat="44.28623" lon="6.18135">
        <ele>1548.3405762</ele>
        <time>2013-07-30T13:10:30Z</time>
      </trkpt>
      <trkpt lat="44.28633" lon="6.18147">
        <ele>1548.3405762</ele>
        <time>2013-07-30T13:11:00Z</time>
      </trkpt>
      <trkpt lat="44.28636" lon="6.18164">
        <ele>1546.4179688</ele>
        <time>2013-07-30T13:11:17Z</time>
      </trkpt>
      <trkpt lat="44.28641" lon="6.18171">
        <ele>1543.0532227</ele>
        <time>2013-07-30T13:11:27Z</time>
      </trkpt>
      <trkpt lat="44.28642" lon="6.18172">
        <ele>1543.0532227</ele>
        <time>2013-07-30T13:11:29Z</time>
      </trkpt>
      <trkpt lat="44.28648" lon="6.18176">
        <ele>1541.6113281</ele>
        <time>2013-07-30T13:11:38Z</time>
      </trkpt>
      <trkpt lat="44.28651" lon="6.18182">
        <ele>1541.6113281</ele>
        <time>2013-07-30T13:11:43Z</time>
      </trkpt>
      <trkpt lat="44.28664" lon="6.1818">
        <ele>1539.6887207</ele>
        <time>2013-07-30T13:12:04Z</time>
      </trkpt>
      <trkpt lat="44.28685" lon="6.18167">
        <ele>1537.2854004</ele>
        <time>2013-07-30T13:12:28Z</time>
      </trkpt>
      <trkpt lat="44.28688" lon="6.18183">
        <ele>1534.4016113</ele>
        <time>2013-07-30T13:12:45Z</time>
      </trkpt>
      <trkpt lat="44.28688" lon="6.18195">
        <ele>1531.9980469</ele>
        <time>2013-07-30T13:13:04Z</time>
      </trkpt>
      <trkpt lat="44.28687" lon="6.18202">
        <ele>1531.0368652</ele>
        <time>2013-07-30T13:13:11Z</time>
      </trkpt>
      <trkpt lat="44.28697" lon="6.18205">
        <ele>1529.1140137</ele>
        <time>2013-07-30T13:13:28Z</time>
      </trkpt>
      <trkpt lat="44.28709" lon="6.18199">
        <ele>1526.7109375</ele>
        <time>2013-07-30T13:13:43Z</time>
      </trkpt>
      <trkpt lat="44.28721" lon="6.18198">
        <ele>1523.8269043</ele>
        <time>2013-07-30T13:14:00Z</time>
      </trkpt>
      <trkpt lat="44.28723" lon="6.18197">
        <ele>1523.3464355</ele>
        <time>2013-07-30T13:14:02Z</time>
      </trkpt>
      <trkpt lat="44.28733" lon="6.18196">
        <ele>1521.423584</ele>
        <time>2013-07-30T13:14:15Z</time>
      </trkpt>
      <trkpt lat="44.28749" lon="6.18192">
        <ele>1519.9816895</ele>
        <time>2013-07-30T13:14:31Z</time>
      </trkpt>
      <trkpt lat="44.28757" lon="6.1819">
        <ele>1516.1364746</ele>
        <time>2013-07-30T13:14:44Z</time>
      </trkpt>
      <trkpt lat="44.28764" lon="6.18187">
        <ele>1515.1750488</ele>
        <time>2013-07-30T13:15:03Z</time>
      </trkpt>
      <trkpt lat="44.28777" lon="6.18187">
        <ele>1513.2524414</ele>
        <time>2013-07-30T13:15:24Z</time>
      </trkpt>
      <trkpt lat="44.28795" lon="6.18192">
        <ele>1510.3684082</ele>
        <time>2013-07-30T13:15:44Z</time>
      </trkpt>
      <trkpt lat="44.28814" lon="6.18202">
        <ele>1507.965332</ele>
        <time>2013-07-30T13:16:00Z</time>
      </trkpt>
      <trkpt lat="44.28825" lon="6.18208">
        <ele>1509.4072266</ele>
        <time>2013-07-30T13:16:13Z</time>
      </trkpt>
      <trkpt lat="44.28826" lon="6.18225">
        <ele>1507.4846191</ele>
        <time>2013-07-30T13:16:24Z</time>
      </trkpt>
      <trkpt lat="44.28829" lon="6.18233">
        <ele>1507.4846191</ele>
        <time>2013-07-30T13:16:28Z</time>
      </trkpt>
      <trkpt lat="44.28834" lon="6.18243">
        <ele>1505.5620117</ele>
        <time>2013-07-30T13:16:36Z</time>
      </trkpt>
      <trkpt lat="44.28843" lon="6.18248">
        <ele>1505.5620117</ele>
        <time>2013-07-30T13:16:48Z</time>
      </trkpt>
      <trkpt lat="44.28851" lon="6.18249">
        <ele>1504.1201172</ele>
        <time>2013-07-30T13:16:59Z</time>
      </trkpt>
      <trkpt lat="44.28859" lon="6.18255">
        <ele>1501.7167969</ele>
        <time>2013-07-30T13:17:12Z</time>
      </trkpt>
      <trkpt lat="44.28861" lon="6.18257">
        <ele>1501.236084</ele>
        <time>2013-07-30T13:17:15Z</time>
      </trkpt>
      <trkpt lat="44.28871" lon="6.18265">
        <ele>1499.3132324</ele>
        <time>2013-07-30T13:17:31Z</time>
      </trkpt>
      <trkpt lat="44.28877" lon="6.1828">
        <ele>1496.9099121</ele>
        <time>2013-07-30T13:17:47Z</time>
      </trkpt>
      <trkpt lat="44.28874" lon="6.18288">
        <ele>1495.4680176</ele>
        <time>2013-07-30T13:17:53Z</time>
      </trkpt>
      <trkpt lat="44.28874" lon="6.1829">
        <ele>1495.9487305</ele>
        <time>2013-07-30T13:17:54Z</time>
      </trkpt>
      <trkpt lat="44.28873" lon="6.18309">
        <ele>1493.5454102</ele>
        <time>2013-07-30T13:18:09Z</time>
      </trkpt>
      <trkpt lat="44.28873" lon="6.18313">
        <ele>1492.1035156</ele>
        <time>2013-07-30T13:18:12Z</time>
      </trkpt>
      <trkpt lat="44.28875" lon="6.18326">
        <ele>1491.1420898</ele>
        <time>2013-07-30T13:18:25Z</time>
      </trkpt>
      <trkpt lat="44.28889" lon="6.18343">
        <ele>1489.2194824</ele>
        <time>2013-07-30T13:18:44Z</time>
      </trkpt>
      <trkpt lat="44.2889" lon="6.18345">
        <ele>1488.7390137</ele>
        <time>2013-07-30T13:18:45Z</time>
      </trkpt>
      <trkpt lat="44.28895" lon="6.1836">
        <ele>1487.296875</ele>
        <time>2013-07-30T13:19:01Z</time>
      </trkpt>
      <trkpt lat="44.28901" lon="6.18371">
        <ele>1486.3356934</ele>
        <time>2013-07-30T13:19:10Z</time>
      </trkpt>
      <trkpt lat="44.28918" lon="6.18371">
        <ele>1486.3356934</ele>
        <time>2013-07-30T13:19:25Z</time>
      </trkpt>
      <trkpt lat="44.28933" lon="6.18375">
        <ele>1485.8549805</ele>
        <time>2013-07-30T13:19:40Z</time>
      </trkpt>
      <trkpt lat="44.28937" lon="6.18376">
        <ele>1484.8937988</ele>
        <time>2013-07-30T13:19:46Z</time>
      </trkpt>
      <trkpt lat="44.28948" lon="6.18381">
        <ele>1483.451416</ele>
        <time>2013-07-30T13:20:03Z</time>
      </trkpt>
      <trkpt lat="44.28947" lon="6.18384">
        <ele>1482.0095215</ele>
        <time>2013-07-30T13:20:25Z</time>
      </trkpt>
      <trkpt lat="44.28947" lon="6.18384">
        <ele>1482.0095215</ele>
        <time>2013-07-30T13:20:26Z</time>
      </trkpt>
      <trkpt lat="44.28947" lon="6.18384">
        <ele>1483.451416</ele>
        <time>2013-07-30T13:20:28Z</time>
      </trkpt>
      <trkpt lat="44.28947" lon="6.18384">
        <ele>1484.8937988</ele>
        <time>2013-07-30T13:20:47Z</time>
      </trkpt>
      <trkpt lat="44.28947" lon="6.18384">
        <ele>1482.4902344</ele>
        <time>2013-07-30T13:20:49Z</time>
      </trkpt>
      <trkpt lat="44.28947" lon="6.18384">
        <ele>1482.4902344</ele>
        <time>2013-07-30T13:20:58Z</time>
      </trkpt>
      <trkpt lat="44.28953" lon="6.18388">
        <ele>1481.5288086</ele>
        <time>2013-07-30T13:21:36Z</time>
      </trkpt>
      <trkpt lat="44.28955" lon="6.18387">
        <ele>1480.0869141</ele>
        <time>2013-07-30T13:21:38Z</time>
      </trkpt>
      <trkpt lat="44.28953" lon="6.18388">
        <ele>1479.1254883</ele>
        <time>2013-07-30T13:21:42Z</time>
      </trkpt>
      <trkpt lat="44.28955" lon="6.18391">
        <ele>1477.6835938</ele>
        <time>2013-07-30T13:21:51Z</time>
      </trkpt>
      <trkpt lat="44.28977" lon="6.18399">
        <ele>1477.6835938</ele>
        <time>2013-07-30T13:22:02Z</time>
      </trkpt>
      <trkpt lat="44.29002" lon="6.18398">
        <ele>1475.2802734</ele>
        <time>2013-07-30T13:22:24Z</time>
      </trkpt>
      <trkpt lat="44.29005" lon="6.18397">
        <ele>1475.2802734</ele>
        <time>2013-07-30T13:22:29Z</time>
      </trkpt>
      <trkpt lat="44.29013" lon="6.18396">
        <ele>1472.8771973</ele>
        <time>2013-07-30T13:22:38Z</time>
      </trkpt>
      <trkpt lat="44.29026" lon="6.18395">
        <ele>1470.9545898</ele>
        <time>2013-07-30T13:22:55Z</time>
      </trkpt>
      <trkpt lat="44.29043" lon="6.18394">
        <ele>1468.0705566</ele>
        <time>2013-07-30T13:23:16Z</time>
      </trkpt>
      <trkpt lat="44.2905" lon="6.18391">
        <ele>1465.1865234</ele>
        <time>2013-07-30T13:23:31Z</time>
      </trkpt>
      <trkpt lat="44.2906" lon="6.18394">
        <ele>1464.2250977</ele>
        <time>2013-07-30T13:23:40Z</time>
      </trkpt>
      <trkpt lat="44.29075" lon="6.1839">
        <ele>1461.8220215</ele>
        <time>2013-07-30T13:24:00Z</time>
      </trkpt>
      <trkpt lat="44.29088" lon="6.18385">
        <ele>1457.9768066</ele>
        <time>2013-07-30T13:24:18Z</time>
      </trkpt>
      <trkpt lat="44.29099" lon="6.18382">
        <ele>1456.534668</ele>
        <time>2013-07-30T13:24:35Z</time>
      </trkpt>
      <trkpt lat="44.2911" lon="6.18392">
        <ele>1453.6508789</ele>
        <time>2013-07-30T13:24:56Z</time>
      </trkpt>
      <trkpt lat="44.29116" lon="6.18407">
        <ele>1452.6894531</ele>
        <time>2013-07-30T13:25:09Z</time>
      </trkpt>
      <trkpt lat="44.29126" lon="6.18417">
        <ele>1451.7280273</ele>
        <time>2013-07-30T13:25:24Z</time>
      </trkpt>
      <trkpt lat="44.2914" lon="6.18422">
        <ele>1449.324707</ele>
        <time>2013-07-30T13:25:41Z</time>
      </trkpt>
      <trkpt lat="44.29139" lon="6.18421">
        <ele>1451.2473145</ele>
        <time>2013-07-30T13:26:04Z</time>
      </trkpt>
      <trkpt lat="44.29139" lon="6.18422">
        <ele>1449.324707</ele>
        <time>2013-07-30T13:26:13Z</time>
      </trkpt>
      <trkpt lat="44.29139" lon="6.18423">
        <ele>1448.8439941</ele>
        <time>2013-07-30T13:26:20Z</time>
      </trkpt>
      <trkpt lat="44.2914" lon="6.18423">
        <ele>1450.2861328</ele>
        <time>2013-07-30T13:26:22Z</time>
      </trkpt>
      <trkpt lat="44.29147" lon="6.18422">
        <ele>1448.3632813</ele>
        <time>2013-07-30T13:26:49Z</time>
      </trkpt>
      <trkpt lat="44.29148" lon="6.18422">
        <ele>1448.3632813</ele>
        <time>2013-07-30T13:26:50Z</time>
      </trkpt>
      <trkpt lat="44.29157" lon="6.18419">
        <ele>1448.8439941</ele>
        <time>2013-07-30T13:27:02Z</time>
      </trkpt>
      <trkpt lat="44.29165" lon="6.18406">
        <ele>1448.8439941</ele>
        <time>2013-07-30T13:27:16Z</time>
      </trkpt>
      <trkpt lat="44.29167" lon="6.18403">
        <ele>1447.8828125</ele>
        <time>2013-07-30T13:27:19Z</time>
      </trkpt>
      <trkpt lat="44.29169" lon="6.18397">
        <ele>1449.324707</ele>
        <time>2013-07-30T13:27:23Z</time>
      </trkpt>
      <trkpt lat="44.29169" lon="6.18394">
        <ele>1446.9213867</ele>
        <time>2013-07-30T13:27:25Z</time>
      </trkpt>
      <trkpt lat="44.29168" lon="6.18387">
        <ele>1445.9602051</ele>
        <time>2013-07-30T13:27:30Z</time>
      </trkpt>
      <trkpt lat="44.29164" lon="6.18374">
        <ele>1445.4794922</ele>
        <time>2013-07-30T13:27:42Z</time>
      </trkpt>
      <trkpt lat="44.29162" lon="6.18372">
        <ele>1444.9987793</ele>
        <time>2013-07-30T13:27:44Z</time>
      </trkpt>
      <trkpt lat="44.29157" lon="6.18351">
        <ele>1442.5957031</ele>
        <time>2013-07-30T13:27:59Z</time>
      </trkpt>
      <trkpt lat="44.29159" lon="6.18334">
        <ele>1441.6342773</ele>
        <time>2013-07-30T13:28:14Z</time>
      </trkpt>
      <trkpt lat="44.29158" lon="6.18329">
        <ele>1442.5957031</ele>
        <time>2013-07-30T13:28:18Z</time>
      </trkpt>
      <trkpt lat="44.29157" lon="6.18327">
        <ele>1441.1535645</ele>
        <time>2013-07-30T13:28:21Z</time>
      </trkpt>
      <trkpt lat="44.29161" lon="6.183">
        <ele>1440.1923828</ele>
        <time>2013-07-30T13:28:40Z</time>
      </trkpt>
      <trkpt lat="44.29161" lon="6.1829">
        <ele>1438.7504883</ele>
        <time>2013-07-30T13:28:46Z</time>
      </trkpt>
      <trkpt lat="44.29166" lon="6.18269">
        <ele>1439.230957</ele>
        <time>2013-07-30T13:29:01Z</time>
      </trkpt>
      <trkpt lat="44.29165" lon="6.18267">
        <ele>1438.7504883</ele>
        <time>2013-07-30T13:29:04Z</time>
      </trkpt>
      <trkpt lat="44.29168" lon="6.18259">
        <ele>1437.7890625</ele>
        <time>2013-07-30T13:29:09Z</time>
      </trkpt>
      <trkpt lat="44.29172" lon="6.18255">
        <ele>1437.7890625</ele>
        <time>2013-07-30T13:29:12Z</time>
      </trkpt>
      <trkpt lat="44.29187" lon="6.18249">
        <ele>1436.347168</ele>
        <time>2013-07-30T13:29:26Z</time>
      </trkpt>
      <trkpt lat="44.292" lon="6.1825">
        <ele>1435.8662109</ele>
        <time>2013-07-30T13:29:39Z</time>
      </trkpt>
      <trkpt lat="44.29214" lon="6.18253">
        <ele>1434.4243164</ele>
        <time>2013-07-30T13:29:53Z</time>
      </trkpt>
      <trkpt lat="44.29232" lon="6.18255">
        <ele>1432.501709</ele>
        <time>2013-07-30T13:30:10Z</time>
      </trkpt>
      <trkpt lat="44.29243" lon="6.18259">
        <ele>1431.5402832</ele>
        <time>2013-07-30T13:30:27Z</time>
      </trkpt>
      <trkpt lat="44.29261" lon="6.18251">
        <ele>1429.6176758</ele>
        <time>2013-07-30T13:30:53Z</time>
      </trkpt>
      <trkpt lat="44.29262" lon="6.18249">
        <ele>1428.1757813</ele>
        <time>2013-07-30T13:30:56Z</time>
      </trkpt>
      <trkpt lat="44.29268" lon="6.18235">
        <ele>1428.1757813</ele>
        <time>2013-07-30T13:31:14Z</time>
      </trkpt>
      <trkpt lat="44.29267" lon="6.18234">
        <ele>1426.2531738</ele>
        <time>2013-07-30T13:31:17Z</time>
      </trkpt>
      <trkpt lat="44.29287" lon="6.18206">
        <ele>1426.7338867</ele>
        <time>2013-07-30T13:31:42Z</time>
      </trkpt>
      <trkpt lat="44.29292" lon="6.18216">
        <ele>1426.7338867</ele>
        <time>2013-07-30T13:31:49Z</time>
      </trkpt>
      <trkpt lat="44.29298" lon="6.18218">
        <ele>1424.8112793</ele>
        <time>2013-07-30T13:31:54Z</time>
      </trkpt>
      <trkpt lat="44.29297" lon="6.18219">
        <ele>1423.8498535</ele>
        <time>2013-07-30T13:31:55Z</time>
      </trkpt>
      <trkpt lat="44.29296" lon="6.18222">
        <ele>1425.291748</ele>
        <time>2013-07-30T13:31:58Z</time>
      </trkpt>
      <trkpt lat="44.29297" lon="6.18225">
        <ele>1423.8498535</ele>
        <time>2013-07-30T13:32:01Z</time>
      </trkpt>
      <trkpt lat="44.29294" lon="6.18231">
        <ele>1423.3693848</ele>
        <time>2013-07-30T13:32:08Z</time>
      </trkpt>
      <trkpt lat="44.29289" lon="6.18244">
        <ele>1422.8886719</ele>
        <time>2013-07-30T13:32:17Z</time>
      </trkpt>
      <trkpt lat="44.29282" lon="6.18264">
        <ele>1423.3693848</ele>
        <time>2013-07-30T13:32:33Z</time>
      </trkpt>
      <trkpt lat="44.29281" lon="6.18267">
        <ele>1421.9272461</ele>
        <time>2013-07-30T13:32:35Z</time>
      </trkpt>
      <trkpt lat="44.29283" lon="6.18276">
        <ele>1422.407959</ele>
        <time>2013-07-30T13:32:42Z</time>
      </trkpt>
      <trkpt lat="44.2928" lon="6.18287">
        <ele>1421.4465332</ele>
        <time>2013-07-30T13:32:50Z</time>
      </trkpt>
      <trkpt lat="44.29276" lon="6.18306">
        <ele>1420.0046387</ele>
        <time>2013-07-30T13:33:08Z</time>
      </trkpt>
      <trkpt lat="44.29276" lon="6.18329">
        <ele>1419.0432129</ele>
        <time>2013-07-30T13:33:23Z</time>
      </trkpt>
      <trkpt lat="44.29262" lon="6.1835">
        <ele>1418.0817871</ele>
        <time>2013-07-30T13:33:41Z</time>
      </trkpt>
      <trkpt lat="44.29249" lon="6.18352">
        <ele>1417.6010742</ele>
        <time>2013-07-30T13:33:54Z</time>
      </trkpt>
      <trkpt lat="44.29245" lon="6.18353">
        <ele>1416.6398926</ele>
        <time>2013-07-30T13:33:58Z</time>
      </trkpt>
      <trkpt lat="44.29241" lon="6.18354">
        <ele>1416.6398926</ele>
        <time>2013-07-30T13:34:00Z</time>
      </trkpt>
      <trkpt lat="44.29245" lon="6.18365">
        <ele>1416.1591797</ele>
        <time>2013-07-30T13:34:13Z</time>
      </trkpt>
      <trkpt lat="44.29254" lon="6.18387">
        <ele>1414.2365723</ele>
        <time>2013-07-30T13:34:34Z</time>
      </trkpt>
      <trkpt lat="44.29265" lon="6.18409">
        <ele>1413.7558594</ele>
        <time>2013-07-30T13:34:50Z</time>
      </trkpt>
      <trkpt lat="44.29274" lon="6.18415">
        <ele>1412.3139648</ele>
        <time>2013-07-30T13:35:06Z</time>
      </trkpt>
      <trkpt lat="44.29289" lon="6.18425">
        <ele>1411.3527832</ele>
        <time>2013-07-30T13:35:25Z</time>
      </trkpt>
      <trkpt lat="44.293" lon="6.18452">
        <ele>1410.3913574</ele>
        <time>2013-07-30T13:35:40Z</time>
      </trkpt>
      <trkpt lat="44.29297" lon="6.1848">
        <ele>1408.46875</ele>
        <time>2013-07-30T13:36:00Z</time>
      </trkpt>
      <trkpt lat="44.29295" lon="6.18488">
        <ele>1407.5075684</ele>
        <time>2013-07-30T13:36:06Z</time>
      </trkpt>
      <trkpt lat="44.29286" lon="6.18511">
        <ele>1406.0654297</ele>
        <time>2013-07-30T13:36:26Z</time>
      </trkpt>
      <trkpt lat="44.29283" lon="6.18517">
        <ele>1406.0654297</ele>
        <time>2013-07-30T13:36:32Z</time>
      </trkpt>
      <trkpt lat="44.29273" lon="6.18534">
        <ele>1403.6621094</ele>
        <time>2013-07-30T13:36:49Z</time>
      </trkpt>
      <trkpt lat="44.29269" lon="6.18542">
        <ele>1403.6621094</ele>
        <time>2013-07-30T13:36:58Z</time>
      </trkpt>
      <trkpt lat="44.29267" lon="6.18553">
        <ele>1402.7006836</ele>
        <time>2013-07-30T13:37:05Z</time>
      </trkpt>
      <trkpt lat="44.29258" lon="6.18571">
        <ele>1401.739502</ele>
        <time>2013-07-30T13:37:21Z</time>
      </trkpt>
      <trkpt lat="44.29264" lon="6.18584">
        <ele>1401.2587891</ele>
        <time>2013-07-30T13:37:36Z</time>
      </trkpt>
      <trkpt lat="44.29273" lon="6.18575">
        <ele>1400.7780762</ele>
        <time>2013-07-30T13:37:44Z</time>
      </trkpt>
      <trkpt lat="44.29276" lon="6.18567">
        <ele>1400.2976074</ele>
        <time>2013-07-30T13:37:48Z</time>
      </trkpt>
      <trkpt lat="44.29278" lon="6.18564">
        <ele>1398.8554688</ele>
        <time>2013-07-30T13:37:50Z</time>
      </trkpt>
      <trkpt lat="44.2928" lon="6.1856">
        <ele>1400.7780762</ele>
        <time>2013-07-30T13:37:53Z</time>
      </trkpt>
      <trkpt lat="44.29287" lon="6.18546">
        <ele>1398.3747559</ele>
        <time>2013-07-30T13:38:06Z</time>
      </trkpt>
      <trkpt lat="44.29311" lon="6.18525">
        <ele>1397.8942871</ele>
        <time>2013-07-30T13:38:33Z</time>
      </trkpt>
      <trkpt lat="44.29312" lon="6.18524">
        <ele>1397.8942871</ele>
        <time>2013-07-30T13:38:34Z</time>
      </trkpt>
      <trkpt lat="44.29322" lon="6.18514">
        <ele>1396.4523926</ele>
        <time>2013-07-30T13:38:47Z</time>
      </trkpt>
      <trkpt lat="44.29344" lon="6.18494">
        <ele>1396.4523926</ele>
        <time>2013-07-30T13:39:06Z</time>
      </trkpt>
      <trkpt lat="44.29346" lon="6.18485">
        <ele>1394.529541</ele>
        <time>2013-07-30T13:39:14Z</time>
      </trkpt>
      <trkpt lat="44.29349" lon="6.18472">
        <ele>1393.5683594</ele>
        <time>2013-07-30T13:39:27Z</time>
      </trkpt>
      <trkpt lat="44.29351" lon="6.18462">
        <ele>1391.645752</ele>
        <time>2013-07-30T13:39:34Z</time>
      </trkpt>
      <trkpt lat="44.29362" lon="6.18454">
        <ele>1392.6071777</ele>
        <time>2013-07-30T13:39:45Z</time>
      </trkpt>
      <trkpt lat="44.29378" lon="6.18443">
        <ele>1389.7231445</ele>
        <time>2013-07-30T13:39:57Z</time>
      </trkpt>
      <trkpt lat="44.29378" lon="6.18443">
        <ele>1389.7231445</ele>
        <time>2013-07-30T13:39:58Z</time>
      </trkpt>
      <trkpt lat="44.29378" lon="6.18443">
        <ele>1392.1264648</ele>
        <time>2013-07-30T13:39:59Z</time>
      </trkpt>
      <trkpt lat="44.294" lon="6.18422">
        <ele>1390.6843262</ele>
        <time>2013-07-30T13:40:12Z</time>
      </trkpt>
      <trkpt lat="44.29398" lon="6.18412">
        <ele>1389.7231445</ele>
        <time>2013-07-30T13:40:16Z</time>
      </trkpt>
      <trkpt lat="44.29399" lon="6.18406">
        <ele>1390.2038574</ele>
        <time>2013-07-30T13:40:20Z</time>
      </trkpt>
      <trkpt lat="44.29402" lon="6.184">
        <ele>1391.1650391</ele>
        <time>2013-07-30T13:40:26Z</time>
      </trkpt>
      <trkpt lat="44.29406" lon="6.18395">
        <ele>1389.7231445</ele>
        <time>2013-07-30T13:40:32Z</time>
      </trkpt>
      <trkpt lat="44.29411" lon="6.18387">
        <ele>1387.800293</ele>
        <time>2013-07-30T13:40:41Z</time>
      </trkpt>
      <trkpt lat="44.29425" lon="6.18384">
        <ele>1388.7619629</ele>
        <time>2013-07-30T13:40:52Z</time>
      </trkpt>
      <trkpt lat="44.29436" lon="6.18372">
        <ele>1387.800293</ele>
        <time>2013-07-30T13:41:08Z</time>
      </trkpt>
      <trkpt lat="44.29446" lon="6.1836">
        <ele>1385.8776855</ele>
        <time>2013-07-30T13:41:24Z</time>
      </trkpt>
      <trkpt lat="44.29448" lon="6.18358">
        <ele>1385.8776855</ele>
        <time>2013-07-30T13:41:27Z</time>
      </trkpt>
      <trkpt lat="44.29456" lon="6.18333">
        <ele>1383.9550781</ele>
        <time>2013-07-30T13:41:45Z</time>
      </trkpt>
      <trkpt lat="44.29458" lon="6.18312">
        <ele>1382.5131836</ele>
        <time>2013-07-30T13:42:00Z</time>
      </trkpt>
      <trkpt lat="44.29464" lon="6.18294">
        <ele>1381.0712891</ele>
        <time>2013-07-30T13:42:16Z</time>
      </trkpt>
      <trkpt lat="44.29477" lon="6.18276">
        <ele>1378.6679688</ele>
        <time>2013-07-30T13:42:34Z</time>
      </trkpt>
      <trkpt lat="44.29494" lon="6.18257">
        <ele>1377.2260742</ele>
        <time>2013-07-30T13:42:54Z</time>
      </trkpt>
      <trkpt lat="44.29511" lon="6.18239">
        <ele>1374.342041</ele>
        <time>2013-07-30T13:43:20Z</time>
      </trkpt>
      <trkpt lat="44.29513" lon="6.18238">
        <ele>1374.342041</ele>
        <time>2013-07-30T13:43:21Z</time>
      </trkpt>
      <trkpt lat="44.29532" lon="6.18227">
        <ele>1373.8613281</ele>
        <time>2013-07-30T13:43:33Z</time>
      </trkpt>
      <trkpt lat="44.29534" lon="6.18225">
        <ele>1374.8227539</ele>
        <time>2013-07-30T13:43:48Z</time>
      </trkpt>
      <trkpt lat="44.29539" lon="6.18212">
        <ele>1374.342041</ele>
        <time>2013-07-30T13:44:11Z</time>
      </trkpt>
      <trkpt lat="44.29545" lon="6.18196">
        <ele>1374.8227539</ele>
        <time>2013-07-30T13:44:26Z</time>
      </trkpt>
      <trkpt lat="44.29572" lon="6.18162">
        <ele>1373.3808594</ele>
        <time>2013-07-30T13:44:58Z</time>
      </trkpt>
      <trkpt lat="44.29584" lon="6.18159">
        <ele>1371.9384766</ele>
        <time>2013-07-30T13:45:12Z</time>
      </trkpt>
      <trkpt lat="44.29597" lon="6.1815">
        <ele>1369.5354004</ele>
        <time>2013-07-30T13:45:24Z</time>
      </trkpt>
      <trkpt lat="44.29605" lon="6.18149">
        <ele>1370.0158691</ele>
        <time>2013-07-30T13:45:33Z</time>
      </trkpt>
      <trkpt lat="44.29609" lon="6.18149">
        <ele>1370.9772949</ele>
        <time>2013-07-30T13:45:37Z</time>
      </trkpt>
      <trkpt lat="44.29646" lon="6.18142">
        <ele>1369.5354004</ele>
        <time>2013-07-30T13:46:05Z</time>
      </trkpt>
      <trkpt lat="44.29651" lon="6.1814">
        <ele>1370.0158691</ele>
        <time>2013-07-30T13:46:10Z</time>
      </trkpt>
      <trkpt lat="44.29657" lon="6.18141">
        <ele>1370.0158691</ele>
        <time>2013-07-30T13:46:18Z</time>
      </trkpt>
      <trkpt lat="44.29674" lon="6.18138">
        <ele>1369.5354004</ele>
        <time>2013-07-30T13:46:31Z</time>
      </trkpt>
      <trkpt lat="44.29695" lon="6.18139">
        <ele>1368.5739746</ele>
        <time>2013-07-30T13:46:51Z</time>
      </trkpt>
      <trkpt lat="44.29712" lon="6.18129">
        <ele>1369.0546875</ele>
        <time>2013-07-30T13:47:07Z</time>
      </trkpt>
      <trkpt lat="44.29733" lon="6.18118">
        <ele>1369.5354004</ele>
        <time>2013-07-30T13:47:25Z</time>
      </trkpt>
      <trkpt lat="44.29739" lon="6.18108">
        <ele>1369.5354004</ele>
        <time>2013-07-30T13:47:34Z</time>
      </trkpt>
      <trkpt lat="44.29761" lon="6.18097">
        <ele>1370.9772949</ele>
        <time>2013-07-30T13:47:53Z</time>
      </trkpt>
      <trkpt lat="44.29763" lon="6.18094">
        <ele>1371.4577637</ele>
        <time>2013-07-30T13:47:55Z</time>
      </trkpt>
      <trkpt lat="44.29766" lon="6.18087">
        <ele>1373.3808594</ele>
        <time>2013-07-30T13:48:02Z</time>
      </trkpt>
      <trkpt lat="44.29768" lon="6.18063">
        <ele>1374.8227539</ele>
        <time>2013-07-30T13:48:21Z</time>
      </trkpt>
      <trkpt lat="44.29773" lon="6.18054">
        <ele>1374.342041</ele>
        <time>2013-07-30T13:48:30Z</time>
      </trkpt>
      <trkpt lat="44.29781" lon="6.1804">
        <ele>1375.7839355</ele>
        <time>2013-07-30T13:48:43Z</time>
      </trkpt>
      <trkpt lat="44.29783" lon="6.18033">
        <ele>1376.2646484</ele>
        <time>2013-07-30T13:48:48Z</time>
      </trkpt>
      <trkpt lat="44.29792" lon="6.18015">
        <ele>1376.2646484</ele>
        <time>2013-07-30T13:49:02Z</time>
      </trkpt>
      <trkpt lat="44.29798" lon="6.17996">
        <ele>1375.7839355</ele>
        <time>2013-07-30T13:49:19Z</time>
      </trkpt>
      <trkpt lat="44.29808" lon="6.17971">
        <ele>1375.3032227</ele>
        <time>2013-07-30T13:49:38Z</time>
      </trkpt>
      <trkpt lat="44.29813" lon="6.1796">
        <ele>1373.8613281</ele>
        <time>2013-07-30T13:49:48Z</time>
      </trkpt>
      <trkpt lat="44.29817" lon="6.17953">
        <ele>1372.4194336</ele>
        <time>2013-07-30T13:49:53Z</time>
      </trkpt>
      <trkpt lat="44.29823" lon="6.17936">
        <ele>1371.4577637</ele>
        <time>2013-07-30T13:50:08Z</time>
      </trkpt>
      <trkpt lat="44.29831" lon="6.1793">
        <ele>1371.4577637</ele>
        <time>2013-07-30T13:50:20Z</time>
      </trkpt>
      <trkpt lat="44.29845" lon="6.17935">
        <ele>1368.5739746</ele>
        <time>2013-07-30T13:50:38Z</time>
      </trkpt>
      <trkpt lat="44.29856" lon="6.17927">
        <ele>1367.1320801</ele>
        <time>2013-07-30T13:50:52Z</time>
      </trkpt>
      <trkpt lat="44.2986" lon="6.17921">
        <ele>1369.0546875</ele>
        <time>2013-07-30T13:51:00Z</time>
      </trkpt>
      <trkpt lat="44.2986" lon="6.1792">
        <ele>1367.6125488</ele>
        <time>2013-07-30T13:51:12Z</time>
      </trkpt>
      <trkpt lat="44.29857" lon="6.17912">
        <ele>1368.5739746</ele>
        <time>2013-07-30T13:51:18Z</time>
      </trkpt>
      <trkpt lat="44.2985" lon="6.17893">
        <ele>1369.0546875</ele>
        <time>2013-07-30T13:51:35Z</time>
      </trkpt>
      <trkpt lat="44.29845" lon="6.1788">
        <ele>1369.0546875</ele>
        <time>2013-07-30T13:51:44Z</time>
      </trkpt>
      <trkpt lat="44.29842" lon="6.17855">
        <ele>1369.5354004</ele>
        <time>2013-07-30T13:51:56Z</time>
      </trkpt>
      <trkpt lat="44.29845" lon="6.17854">
        <ele>1370.0158691</ele>
        <time>2013-07-30T13:51:58Z</time>
      </trkpt>
      <trkpt lat="44.29838" lon="6.17811">
        <ele>1369.0546875</ele>
        <time>2013-07-30T13:52:26Z</time>
      </trkpt>
      <trkpt lat="44.29837" lon="6.17809">
        <ele>1367.6125488</ele>
        <time>2013-07-30T13:52:28Z</time>
      </trkpt>
      <trkpt lat="44.29834" lon="6.17801">
        <ele>1367.1320801</ele>
        <time>2013-07-30T13:52:35Z</time>
      </trkpt>
      <trkpt lat="44.29832" lon="6.17799">
        <ele>1366.6513672</ele>
        <time>2013-07-30T13:52:37Z</time>
      </trkpt>
      <trkpt lat="44.29826" lon="6.17782">
        <ele>1365.2094727</ele>
        <time>2013-07-30T13:52:50Z</time>
      </trkpt>
      <trkpt lat="44.29818" lon="6.17764">
        <ele>1367.6125488</ele>
        <time>2013-07-30T13:53:03Z</time>
      </trkpt>
      <trkpt lat="44.29817" lon="6.17762">
        <ele>1365.6901855</ele>
        <time>2013-07-30T13:53:05Z</time>
      </trkpt>
      <trkpt lat="44.29818" lon="6.17758">
        <ele>1367.1320801</ele>
        <time>2013-07-30T13:53:08Z</time>
      </trkpt>
      <trkpt lat="44.29817" lon="6.17727">
        <ele>1364.7287598</ele>
        <time>2013-07-30T13:53:24Z</time>
      </trkpt>
      <trkpt lat="44.29822" lon="6.17701">
        <ele>1364.2480469</ele>
        <time>2013-07-30T13:53:42Z</time>
      </trkpt>
      <trkpt lat="44.29827" lon="6.17689">
        <ele>1364.2480469</ele>
        <time>2013-07-30T13:53:52Z</time>
      </trkpt>
      <trkpt lat="44.29832" lon="6.17665">
        <ele>1365.2094727</ele>
        <time>2013-07-30T13:54:09Z</time>
      </trkpt>
      <trkpt lat="44.29835" lon="6.17653">
        <ele>1365.6901855</ele>
        <time>2013-07-30T13:54:18Z</time>
      </trkpt>
      <trkpt lat="44.29834" lon="6.17634">
        <ele>1366.6513672</ele>
        <time>2013-07-30T13:54:33Z</time>
      </trkpt>
      <trkpt lat="44.29831" lon="6.17629">
        <ele>1365.6901855</ele>
        <time>2013-07-30T13:54:36Z</time>
      </trkpt>
      <trkpt lat="44.29829" lon="6.17626">
        <ele>1366.1706543</ele>
        <time>2013-07-30T13:54:39Z</time>
      </trkpt>
      <trkpt lat="44.29824" lon="6.17614">
        <ele>1366.1706543</ele>
        <time>2013-07-30T13:54:49Z</time>
      </trkpt>
      <trkpt lat="44.29828" lon="6.17606">
        <ele>1365.2094727</ele>
        <time>2013-07-30T13:54:54Z</time>
      </trkpt>
      <trkpt lat="44.29833" lon="6.17567">
        <ele>1363.2868652</ele>
        <time>2013-07-30T13:55:16Z</time>
      </trkpt>
      <trkpt lat="44.29841" lon="6.17537">
        <ele>1361.8449707</ele>
        <time>2013-07-30T13:55:40Z</time>
      </trkpt>
      <trkpt lat="44.29842" lon="6.17511">
        <ele>1358.4802246</ele>
        <time>2013-07-30T13:55:58Z</time>
      </trkpt>
      <trkpt lat="44.29851" lon="6.17473">
        <ele>1356.5576172</ele>
        <time>2013-07-30T13:56:26Z</time>
      </trkpt>
      <trkpt lat="44.29861" lon="6.17445">
        <ele>1354.6347656</ele>
        <time>2013-07-30T13:56:49Z</time>
      </trkpt>
      <trkpt lat="44.29869" lon="6.17434">
        <ele>1354.1542969</ele>
        <time>2013-07-30T13:56:59Z</time>
      </trkpt>
      <trkpt lat="44.29874" lon="6.17428">
        <ele>1353.1928711</ele>
        <time>2013-07-30T13:57:05Z</time>
      </trkpt>
      <trkpt lat="44.29878" lon="6.17423">
        <ele>1353.1928711</ele>
        <time>2013-07-30T13:57:11Z</time>
      </trkpt>
      <trkpt lat="44.29881" lon="6.17424">
        <ele>1352.7121582</ele>
        <time>2013-07-30T13:57:13Z</time>
      </trkpt>
      <trkpt lat="44.29889" lon="6.17416">
        <ele>1351.7509766</ele>
        <time>2013-07-30T13:57:22Z</time>
      </trkpt>
      <trkpt lat="44.29894" lon="6.17408">
        <ele>1351.7509766</ele>
        <time>2013-07-30T13:57:27Z</time>
      </trkpt>
      <trkpt lat="44.29903" lon="6.17389">
        <ele>1349.8283691</ele>
        <time>2013-07-30T13:57:46Z</time>
      </trkpt>
      <trkpt lat="44.29911" lon="6.17373">
        <ele>1348.8669434</ele>
        <time>2013-07-30T13:58:00Z</time>
      </trkpt>
      <trkpt lat="44.29917" lon="6.17369">
        <ele>1348.3862305</ele>
        <time>2013-07-30T13:58:06Z</time>
      </trkpt>
      <trkpt lat="44.29925" lon="6.17353">
        <ele>1346.9443359</ele>
        <time>2013-07-30T13:58:20Z</time>
      </trkpt>
      <trkpt lat="44.29929" lon="6.17348">
        <ele>1345.5024414</ele>
        <time>2013-07-30T13:58:25Z</time>
      </trkpt>
      <trkpt lat="44.29936" lon="6.17327">
        <ele>1343.579834</ele>
        <time>2013-07-30T13:58:41Z</time>
      </trkpt>
      <trkpt lat="44.29948" lon="6.17299">
        <ele>1342.6186523</ele>
        <time>2013-07-30T13:59:04Z</time>
      </trkpt>
      <trkpt lat="44.29963" lon="6.17275">
        <ele>1339.2536621</ele>
        <time>2013-07-30T13:59:26Z</time>
      </trkpt>
      <trkpt lat="44.29976" lon="6.17241">
        <ele>1339.2536621</ele>
        <time>2013-07-30T13:59:53Z</time>
      </trkpt>
      <trkpt lat="44.29975" lon="6.17216">
        <ele>1336.369873</ele>
        <time>2013-07-30T14:00:11Z</time>
      </trkpt>
      <trkpt lat="44.29977" lon="6.17185">
        <ele>1334.9279785</ele>
        <time>2013-07-30T14:00:33Z</time>
      </trkpt>
      <trkpt lat="44.29975" lon="6.17182">
        <ele>1333.005127</ele>
        <time>2013-07-30T14:00:53Z</time>
      </trkpt>
      <trkpt lat="44.29975" lon="6.17182">
        <ele>1334.4472656</ele>
        <time>2013-07-30T14:01:00Z</time>
      </trkpt>
    </trkseg>
  </trk>
</gpx>